GFSSGP_con_mucape_000.txt.gz
CAPE
0 0 0 0 0 0 0 0 0 0 76 70 82 56 228 377 201 161 573 560 205 474 736 970 1372 1607 1887 2010 1945 2150 2419 2135 2107 1911 1701 1566 1362 1303 1637 992 614 433 466 526 884 1122 1473 1708 1472
0 0 0 0 0 0 0 0 8 114 248 270 282 328 457 644 770 597 430 523 292 470 668 1067 1458 1700 1930 2109 2447 2620 2670 2427 2311 2172 1966 1785 1661 1627 1580 1093 638 546 583 766 851 698 1171 1356 1269
0 0 0 0 0 0 0 13 194 306 194 272 446 499 589 796 909 744 720 678 560 551 715 1243 1404 1573 1865 1933 2085 2417 2747 2837 2678 2422 2285 2124 1871 1734 1853 1081 560 493 459 555 759 1052 1064 1345 895
0 0 0 0 0 0 0 74 236 220 198 387 560 591 631 868 1019 939 852 682 465 499 659 1244 1368 1600 1879 1830 1796 2006 2216 2356 2330 2213 2199 2127 1889 1644 1541 1073 716 734 777 831 1002 1118 1479 1459 1056
0 0 0 0 0 0 0 0 0 8 50 166 263 574 740 917 1076 955 865 517 427 541 667 1049 1339 1598 1913 1806 1825 1943 1952 2103 2357 2369 2270 2159 1980 1563 749 621 964 805 991 811 707 614 416 673 699
0 0 0 0 0 0 0 0 0 0 11 170 290 452 678 1063 1009 1019 974 608 481 686 838 831 1124 1302 1591 1702 1657 1655 1741 1837 1888 2028 2151 1949 1601 1403 1154 986 995 845 928 905 739 690 522 444 393
0 0 0 0 0 0 0 0 0 0 0 0 216 484 819 1194 1014 1095 1254 748 616 730 775 704 751 806 897 1007 1135 1293 1552 1708 1554 1425 1512 1397 1256 1084 783 603 492 332 333 212 226 256 408 481 332
0 0 0 0 0 0 0 0 0 0 0 0 104 476 657 1196 1233 1250 1326 838 695 720 700 757 618 567 305 389 679 901 1185 1452 1244 895 689 610 719 557 362 85 171 142 142 120 84 37 33 124 172
0 0 0 0 0 0 0 0 0 0 0 0 8 119 272 1042 1499 1428 1501 1230 976 1079 1018 997 823 787 560 286 267 621 951 1199 1119 673 416 188 35 4 0 8 24 108 34 5 2 0 0 0 20
0 0 0 0 0 0 0 0 0 0 0 0 33 54 623 1109 1346 1588 1642 1456 1389 1283 1222 1050 1031 926 737 580 316 194 280 697 982 682 230 86 102 0 0 0 0 0 0 0 0 0 0 0 0
0 0 0 0 0 0 0 0 0 0 0 0 0 69 924 1147 1156 1590 1673 1604 1537 1561 1459 1042 1087 1166 1048 957 440 346 290 265 405 622 355 192 162 44 0 0 0 0 0 0 0 0 0 0 0
0 0 0 0 0 0 0 0 0 0 0 0 0 108 863 1329 1284 1178 1335 1400 1369 1475 1437 1418 1291 1328 1196 889 755 550 350 276 278 289 180 172 97 18 0 0 0 0 0 0 0 0 0 0 0
0 0 0 0 0 0 0 0 0 0 0 0 0 109 813 1302 1316 1209 923 909 1033 1078 1267 804 551 511 582 433 482 376 433 478 348 356 268 39 16 0 0 0 0 0 0 0 0 0 0 0 0
0 0 0 0 0 0 0 0 0 0 0 0 0 17 767 1179 1240 889 216 145 492 529 464 4 71 276 181 32 110 132 199 269 231 358 127 14 0 0 0 0 0 0 0 0 0 0 0 0 0
0 0 0 0 0 0 0 0 0 0 0 0 0 0 22 358 455 54 102 163 246 255 169 0 0 1 13 0 0 0 0 0 5 9 0 0 0 0 0 1 0 14 0 0 0 0 0 0 0
0 0 0 0 0 0 0 0 0 0 0 0 0 0 0 134 322 327 78 0 23 126 11 0 0 0 0 0 0 0 0 0 0 0 0 0 0 0 0 0 0 0 0 0 0 0 0 0 0
0 0 0 0 0 0 0 0 0 0 0 0 0 0 0 0 45 0 0 0 8 20 0 0 0 0 0 0 0 0 0 0 0 0 0 0 0 0 0 0 0 0 0 0 0 0 0 0 0
0 0 0 0 0 0 0 0 0 0 0 0 0 0 0 0 0 0 0 0 0 0 0 0 0 0 0 0 0 0 0 0 0 0 0 0 0 0 0 0 0 0 0 0 0 0 0 0 0
0 0 0 0 0 0 0 0 0 0 0 0 0 0 0 0 0 0 0 0 0 0 0 0 0 0 0 0 0 0 0 0 0 0 0 0 0 0 0 0 0 0 0 0 0 0 0 0 0
0 0 0 0 0 0 0 0 0 0 0 0 0 0 0 0 0 0 0 0 0 0 0 0 0 0 0 0 0 0 0 0 0 0 0 0 0 0 0 0 0 0 0 0 0 0 0 0 0
0 0 0 0 0 0 0 0 0 0 0 0 0 0 0 0 0 0 0 0 0 0 0 0 0 0 0 0 0 0 0 0 0 0 0 0 0 0 0 0 0 0 0 0 0 0 0 0 0
0 0 0 0 0 0 0 0 0 0 0 0 0 0 0 0 0 0 0 0 0 0 0 0 0 0 0 0 0 0 0 0 0 0 0 0 0 0 0 0 0 0 0 1 9 4 14 0 0
0 0 0 0 0 0 0 0 0 0 0 0 0 0 0 0 0 0 0 0 0 0 0 0 0 0 0 0 0 0 0 0 0 0 0 0 0 0 0 0 0 0 0 0 8 1 4 1 0
0 0 0 0 0 0 0 0 0 0 0 0 0 0 0 0 0 0 0 0 0 0 0 0 0 0 0 0 0 1 0 0 0 0 0 0 0 0 0 0 0 0 0 0 0 0 8 0 2
0 0 0 0 0 0 0 0 0 0 0 0 0 0 0 0 0 0 0 0 0 0 0 0 0 0 0 0 0 0 0 0 0 0 0 0 0 0 0 0 0 0 0 0 0 5 32 11 8
0 0 0 0 0 0 0 0 0 0 0 0 0 0 0 0 0 0 0 0 0 0 0 0 0 0 0 0 0 0 0 0 0 0 0 0 0 0 0 0 0 0 0 3 7 20 43 5 2
0 0 0 0 0 0 0 0 0 0 0 0 0 0 0 0 0 0 4 5 1 0 0 0 0 0 0 0 0 0 0 0 0 0 0 0 0 0 0 0 0 0 2 14 26 8 4 27 1
0 0 0 0 0 0 0 0 0 0 0 0 0 0 0 0 0 1 1 0 0 0 0 1 1 0 0 0 0 0 0 0 0 0 0 0 0 0 0 0 1 7 1 3 0 0 0 0 0
0 0 0 0 0 0 0 0 0 0 0 0 0 0 0 0 0 0 0 0 0 0 5 1 0 0 0 0 0 0 0 0 0 0 0 0 0 0 2 0 0 0 0 1 0 0 0 0 0
0 0 0 0 0 0 0 0 0 0 0 0 0 0 0 0 0 0 0 0 1 0 0 0 0 0 0 0 0 0 0 0 0 0 0 0 0 0 0 0 1 0 0 0 0 0 0 0 0

GFSSGP_con_mucape_003.txt.gz
CAPE
0 0 0 0 0 0 0 0 17 46 89 73 102 70 235 353 160 212 487 342 455 851 1032 1205 1316 1498 1583 1703 1831 1878 2100 2081 1983 1885 1714 1549 1645 1708 1524 1197 989 943 665 944 1042 958 1572 1966 1771
0 0 0 0 0 0 0 0 0 108 229 181 210 324 432 431 673 462 411 363 467 782 1019 1225 1434 1674 1914 2097 2183 2431 2469 2338 2226 1998 1836 1713 1730 1840 1866 1317 664 666 572 822 1097 1454 1245 1211 1076
0 0 0 0 0 0 0 83 209 240 118 287 417 407 524 697 702 431 357 285 515 724 1005 1332 1443 1587 1821 2134 2519 2784 2955 2813 2546 2319 2263 2149 1966 1911 1865 1107 951 781 924 1059 1253 1343 1534 1603 1685
0 0 0 0 0 0 15 209 368 187 220 400 399 413 521 683 820 759 570 405 493 602 1004 1226 1359 1614 1776 1843 1962 2201 2339 2393 2295 2155 2181 2154 2050 1885 1333 1165 1096 958 1066 1166 1076 925 692 831 1322
0 0 0 0 0 20 153 312 346 66 142 348 238 498 522 856 937 747 517 461 346 496 882 1134 1282 1485 1744 1781 1805 1796 1904 2103 2221 2191 2171 2068 1796 1392 934 718 978 1039 1129 1106 1064 858 614 478 462
0 0 0 0 0 0 0 0 6 12 77 179 450 455 547 783 881 680 498 403 304 385 766 1002 1264 1440 1522 1614 1614 1573 1717 1814 1815 1805 1947 1853 1593 1413 1262 1135 820 673 480 515 540 730 987 949 842
0 0 0 0 0 0 0 0 0 6 3 0 165 350 681 848 897 782 524 320 418 570 712 882 884 895 882 958 1017 1186 1454 1486 1375 1319 1176 1133 1197 915 683 559 417 289 309 322 241 286 272 208 224
0 0 0 0 0 0 0 0 0 0 0 50 140 243 796 946 920 904 802 344 479 650 668 709 632 379 440 627 571 808 1060 1262 981 747 481 419 435 227 210 1 55 137 166 130 73 27 8 0 61
0 0 0 0 0 0 0 0 0 0 0 0 0 220 220 1009 959 994 946 569 575 563 570 453 321 273 208 210 412 516 781 1049 912 513 234 159 225 87 11 3 0 5 1 0 0 0 0 0 0
0 0 0 0 0 0 0 0 0 0 0 0 0 0 401 1151 1124 1221 1333 996 773 739 713 519 461 478 288 189 357 514 524 944 1137 917 502 279 252 115 55 1 0 0 0 0 0 0 0 0 0
0 0 0 0 0 0 0 0 0 0 0 0 0 30 725 1272 1360 1370 1563 1370 1154 1054 922 607 622 636 466 355 326 279 263 548 819 988 830 391 289 271 154 37 0 0 0 0 0 0 0 0 0
0 0 0 0 0 0 0 0 0 0 0 0 0 200 799 1120 1241 1563 1642 1653 1309 1287 1389 1140 672 664 820 806 658 434 362 306 577 684 584 595 456 241 46 0 0 1 2 1 0 2 0 0 0
0 0 0 0 0 0 0 0 0 0 0 0 0 138 934 1050 928 1263 1548 1535 1325 1269 1329 1366 1108 1056 1227 720 632 610 504 388 545 638 574 338 286 229 13 0 0 0 2 1 2 0 0 0 0
0 0 0 0 0 0 0 0 0 0 0 0 0 2 759 1167 1108 965 1028 966 965 966 1033 1119 622 477 439 196 179 189 152 359 359 498 573 360 204 181 55 39 23 30 0 1 0 0 0 0 0
0 0 0 0 0 0 0 0 0 0 0 0 0 0 151 857 1127 1002 991 889 189 550 761 810 123 76 131 16 0 0 0 0 6 43 74 71 62 67 77 119 149 129 91 17 0 0 0 0 0
0 0 0 0 0 0 0 0 0 0 0 0 0 0 0 408 880 935 472 73 78 238 380 248 0 12 48 7 6 2 0 0 0 0 0 0 0 14 68 95 129 144 135 57 0 0 0 0 0
0 0 0 0 0 0 0 0 0 0 0 0 0 0 0 0 81 305 315 92 0 96 283 0 0 23 31 9 7 3 0 0 0 0 0 0 0 10 40 45 40 61 41 13 0 0 0 0 0
0 0 0 0 0 0 0 0 0 0 0 0 0 0 0 0 1 30 0 0 1 136 79 0 0 2 7 0 0 0 0 0 0 0 0 0 0 0 7 0 0 0 0 0 0 0 0 0 0
0 0 0 0 0 0 0 0 0 0 0 0 0 0 0 0 0 0 0 0 0 0 0 0 0 0 0 0 0 0 0 0 0 0 0 0 0 0 0 0 0 0 0 0 0 0 0 0 0
0 0 0 0 0 0 0 0 0 0 0 0 0 0 0 0 0 0 0 0 0 0 0 0 0 0 0 0 0 0 0 0 0 0 0 0 0 0 0 0 0 0 0 0 4 0 0 0 0
0 0 0 0 0 0 0 0 0 0 0 0 0 0 0 0 0 0 0 0 0 0 0 0 0 0 0 0 0 0 0 0 1 0 0 0 0 0 0 0 0 0 0 0 4 3 7 8 1
0 0 0 0 0 0 0 0 0 0 0 0 0 0 0 0 0 0 0 0 0 0 0 0 0 0 0 0 0 0 0 0 0 0 0 0 0 0 0 0 0 0 0 0 0 0 0 10 29
0 0 0 0 0 0 0 0 0 0 0 0 0 0 0 0 0 0 0 0 0 0 0 0 0 0 0 0 0 0 0 0 0 0 0 0 0 0 0 0 0 0 0 0 0 0 0 0 0
0 0 0 0 0 0 0 0 0 0 0 0 0 0 0 0 0 0 0 0 0 0 0 0 0 0 0 0 0 0 1 0 0 0 0 0 0 0 0 0 0 0 0 0 0 0 0 0 0
0 0 0 0 0 0 0 0 0 0 0 0 0 0 0 0 0 0 0 0 0 0 0 0 0 3 0 0 5 0 0 0 0 0 0 0 0 0 0 0 0 0 0 0 0 0 0 0 0
0 0 0 0 0 0 0 0 0 0 0 0 0 0 0 1 3 2 0 0 1 5 4 0 0 1 0 0 0 0 0 0 0 0 0 0 0 0 0 0 0 0 0 0 0 0 0 0 2
0 0 0 0 0 0 0 0 0 0 0 0 0 0 1 4 1 0 0 0 0 0 0 0 0 0 0 0 0 0 0 0 0 0 0 0 0 0 0 0 0 0 0 3 8 0 0 5 1
0 0 0 0 0 0 0 0 0 0 0 0 0 0 0 0 0 0 3 2 1 1 1 0 0 0 0 0 0 0 0 0 0 0 0 0 0 0 0 0 0 0 0 0 2 14 0 0 0
0 0 0 0 0 0 0 0 0 0 0 0 0 0 0 0 0 0 0 7 11 13 0 0 0 0 0 0 0 0 0 0 0 0 0 0 0 0 0 0 0 0 4 0 0 0 0 0 0
0 0 0 0 0 0 0 0 0 0 0 0 0 0 0 0 0 0 0 0 0 0 0 0 0 0 0 0 0 0 0 0 0 0 0 0 0 0 0 0 2 0 1 0 0 0 0 0 0

GFSSGP_con_mucape_006.txt.gz
CAPE
0 0 0 0 0 0 0 0 0 143 140 186 135 124 271 436 325 496 504 392 185 607 1012 1167 1208 1508 1754 1790 1773 1783 1806 1876 1840 1764 1574 1437 1685 1714 1499 1131 915 912 805 932 1349 1393 1530 1639 1575
0 0 0 0 0 0 0 0 31 98 214 175 176 252 210 317 499 527 468 280 242 645 1124 1292 1215 1591 1851 1903 1922 2087 2037 2122 1982 1811 1767 1786 1782 1896 1535 907 746 878 994 1202 1316 1407 1692 1626 1488
0 0 0 0 0 0 0 0 150 189 165 236 262 364 385 283 347 312 327 129 246 570 850 1225 1266 1512 1839 2145 2311 2422 2415 2243 2219 2139 2113 2025 1941 1707 1458 1063 975 1039 1186 1288 1402 1253 980 1139 1549
0 0 0 0 0 0 0 31 96 188 299 296 126 229 512 683 471 500 325 189 153 321 586 861 1140 1428 1561 1616 1730 1895 2043 2041 1929 1839 1940 1906 1800 1299 755 916 1003 1020 1183 1185 1211 1038 833 638 693
0 0 0 0 0 0 13 98 198 156 221 336 263 266 431 872 971 529 453 250 149 187 388 441 1022 1221 1407 1491 1465 1458 1652 1803 1845 1840 1818 1658 1447 1300 1004 1019 1068 1104 1051 808 865 1100 1170 1108 1017
0 0 0 0 0 0 21 91 65 20 128 188 194 157 410 983 724 571 488 224 85 202 404 422 783 1101 1309 1403 1350 1367 1481 1489 1469 1555 1672 1443 1275 1157 1089 826 610 491 429 403 409 422 494 495 498
0 0 0 0 0 0 0 0 0 0 2 3 52 24 550 951 695 573 305 167 160 154 326 519 544 690 800 847 922 1087 1362 1269 1116 1007 906 1022 947 710 570 432 251 228 215 166 90 81 105 93 67
0 0 0 0 0 0 0 0 0 0 0 70 63 0 217 677 891 771 350 205 220 375 380 627 795 658 760 748 471 636 866 1043 759 552 317 359 425 193 43 0 21 44 16 12 0 0 0 0 0
0 0 0 0 0 0 0 0 0 0 0 0 0 20 233 894 1045 1005 643 395 424 591 819 918 832 754 670 474 457 232 533 838 682 465 195 380 540 505 153 0 0 0 0 0 0 0 0 0 0
0 0 0 0 0 0 0 0 0 0 0 0 0 24 649 1215 1243 1238 1042 662 814 906 1122 1173 1254 1046 745 220 704 652 535 688 1066 1150 1221 836 912 750 168 4 0 0 0 0 0 0 0 0 0
0 0 0 0 0 0 0 0 0 0 0 0 0 0 822 1154 1276 1122 959 492 923 1135 1279 1243 1486 1436 1079 290 480 348 307 445 712 1358 1550 1203 1143 868 599 422 99 51 0 0 0 0 0 0 0
0 0 0 0 0 0 0 0 0 0 0 0 0 0 496 873 606 468 356 471 613 1074 1330 1487 1443 1642 1622 656 312 363 388 369 505 719 1441 1216 863 730 632 246 11 0 0 1 0 0 0 0 0
0 0 0 0 0 0 0 0 0 0 0 0 0 13 193 323 257 295 222 148 413 1051 1593 1885 1888 1747 1138 1240 473 604 627 330 576 571 499 919 583 418 197 20 0 0 0 2 9 4 0 0 0
0 0 0 0 0 0 0 0 0 0 0 0 0 0 107 178 80 201 372 565 880 1207 1597 2147 2155 1633 690 525 574 300 171 122 127 69 55 375 554 142 8 0 0 0 0 0 1 0 0 0 0
0 0 0 0 0 0 0 0 0 0 0 0 0 0 12 123 56 63 100 497 687 895 1197 1962 1850 676 512 258 84 10 0 13 0 0 13 54 85 26 30 0 0 0 0 0 34 0 0 0 0
0 0 0 0 0 0 0 0 0 0 0 0 0 0 0 122 259 104 226 690 940 784 1038 1486 734 199 148 43 33 16 15 33 26 18 17 22 44 61 57 22 3 5 23 1 12 0 0 0 0
0 0 0 0 0 0 0 0 0 0 0 0 0 0 0 0 380 679 793 703 309 303 727 1190 545 14 10 49 45 53 61 29 0 0 0 1 12 29 66 30 26 63 57 32 23 6 0 0 0
0 0 0 0 0 0 0 0 0 0 0 0 0 0 0 0 212 36 16 92 54 183 703 705 103 40 67 35 6 0 0 0 0 0 0 0 0 0 3 5 23 47 52 34 13 18 12 2 0
0 0 0 0 0 0 0 0 0 0 0 0 0 0 0 0 0 0 0 0 0 185 225 61 31 0 0 0 0 0 0 0 0 0 0 0 0 0 0 0 4 16 22 35 63 55 53 32 15
0 0 0 0 0 0 0 0 0 0 0 0 0 0 0 0 0 0 0 0 0 2 29 0 0 0 0 0 0 0 0 0 0 0 0 0 0 0 0 0 0 0 0 0 12 41 50 57 38
0 0 0 0 0 0 0 0 0 0 0 0 0 0 0 0 0 0 0 0 0 0 0 0 0 0 0 0 0 0 0 0 0 0 0 0 0 0 0 0 0 0 0 0 0 0 2 8 55
0 0 0 0 0 0 0 0 0 0 0 0 0 0 0 0 0 0 0 0 0 0 0 0 0 0 0 0 0 0 0 0 0 1 0 0 0 0 0 0 0 0 0 0 0 0 0 9 14
0 0 0 0 0 0 0 0 0 0 0 0 0 0 0 0 0 0 0 0 0 0 0 0 0 0 0 0 0 0 0 1 1 0 0 0 0 0 0 0 0 0 0 0 0 0 0 2 22
0 0 0 0 0 0 0 0 0 0 0 0 0 0 0 0 0 0 0 0 0 0 0 0 0 0 0 0 0 2 2 1 0 0 0 0 0 0 0 0 0 0 0 0 0 2 5 7 12
0 0 0 1 0 0 0 0 0 0 0 0 0 0 0 0 0 0 0 0 0 0 0 0 0 0 0 0 0 0 0 0 0 0 0 0 0 0 0 0 0 0 0 0 5 13 14 0 0
0 0 0 0 0 0 0 0 0 0 0 0 0 0 0 0 0 1 0 0 0 0 3 0 5 3 3 0 0 0 0 0 0 0 0 0 0 0 0 1 5 13 20 44 55 33 3 8 0
0 0 0 0 0 0 0 0 0 0 0 0 0 0 0 0 0 0 0 0 0 0 1 2 0 0 0 0 0 0 0 0 0 0 0 0 0 0 2 16 12 0 0 0 0 0 0 3 0
0 0 0 0 0 0 0 0 0 0 3 0 0 0 0 0 0 0 0 0 3 2 0 0 0 0 0 0 0 0 0 0 0 0 0 0 5 21 11 3 0 0 0 0 0 0 0 0 0
0 0 0 0 0 0 0 0 0 0 0 0 0 0 0 0 2 9 1 0 0 0 0 0 2 2 0 0 1 0 0 0 0 0 0 8 17 9 7 0 0 0 0 0 0 0 0 0 0
0 0 0 0 0 0 0 0 0 0 0 0 5 2 0 1 13 15 11 2 5 2 0 0 0 1 4 6 0 0 0 0 0 18 18 15 33 39 39 24 0 0 0 0 0 0 0 0 0

GFSSGP_con_mucape_009.txt.gz
CAPE
0 0 0 0 0 0 3 16 36 30 39 60 1 45 45 179 354 356 249 115 423 766 808 982 1304 1497 1530 1406 1366 1434 1591 1567 1519 1449 1302 1455 1584 1581 1321 969 836 865 1016 1168 1323 1551 1782 1736 1552
0 0 0 0 0 0 10 0 48 69 17 0 0 23 57 128 314 293 138 128 550 883 1018 1188 1226 1698 1656 1667 1705 1803 1811 1679 1563 1537 1604 1635 1681 1592 1306 873 838 1041 1246 1401 1489 1483 1409 1423 1645
0 0 0 0 0 8 10 12 46 13 3 41 14 29 88 118 124 143 83 178 473 731 1092 1169 1186 1476 1921 2120 2109 1971 1961 1870 1885 1886 1886 1903 1732 1478 1120 900 935 1057 1255 1335 1240 1074 827 660 867
0 0 0 0 13 0 6 54 24 16 53 57 2 59 264 179 151 124 50 106 249 383 752 829 1135 1321 1441 1485 1594 1680 1771 1706 1558 1599 1704 1691 1435 954 746 890 1041 1182 1201 958 1013 1200 1201 1121 918
0 0 0 2 6 8 49 43 38 88 74 42 12 13 300 598 272 92 40 23 44 48 184 646 911 1144 1179 1155 1128 1250 1402 1516 1516 1627 1574 1383 1237 1086 969 959 873 619 546 499 519 577 673 771 928
0 0 9 11 13 9 41 42 19 17 28 2 31 89 441 492 237 140 23 0 0 51 135 95 503 885 938 949 987 1138 1237 1210 1205 1374 1350 1165 957 875 746 565 420 365 317 237 186 207 272 303 313
0 0 14 9 1 0 0 0 0 0 0 0 0 37 278 250 231 119 0 0 0 41 175 206 255 344 638 648 764 980 1087 950 835 658 740 795 619 487 372 227 127 107 73 54 16 0 4 23 23
0 0 0 0 0 0 0 0 0 0 0 0 0 0 116 370 232 68 0 0 0 44 300 476 405 283 443 705 502 657 837 797 539 345 224 369 409 262 53 26 21 2 0 0 0 0 0 0 0
0 0 0 0 0 0 0 0 0 0 0 0 0 27 23 469 380 140 31 3 158 228 475 601 518 284 169 58 189 227 565 787 562 433 404 525 676 466 310 8 0 0 0 0 0 0 0 0 0
0 0 0 0 0 0 0 0 0 0 0 0 0 0 209 394 456 284 44 37 304 581 503 1046 941 604 253 0 206 179 46 380 552 716 808 652 679 559 265 42 8 0 0 0 0 0 0 0 0
0 0 0 0 0 0 0 0 0 0 0 0 0 0 196 295 256 363 313 154 257 639 468 949 1488 974 344 79 108 178 120 157 293 591 832 612 585 548 363 258 128 78 2 7 1 2 6 0 0
0 0 0 0 0 0 0 0 0 0 0 0 0 0 122 353 330 362 415 161 323 510 326 900 1530 904 523 330 175 203 175 184 199 411 434 441 303 274 239 35 5 8 8 7 9 5 6 0 0
0 0 0 0 0 0 0 0 0 0 0 0 0 0 55 299 300 170 270 230 308 347 359 753 1500 616 176 208 257 295 314 271 297 157 99 124 140 136 11 0 0 0 2 7 4 3 1 0 0
0 0 0 0 0 0 0 0 0 0 0 0 0 0 1 28 40 49 119 173 242 226 504 798 1259 664 81 89 176 198 77 25 11 0 1 16 54 61 18 0 0 0 0 0 0 0 0 0 0
0 0 0 0 0 0 0 0 0 0 0 0 0 0 0 5 4 41 156 293 457 299 392 924 1141 454 51 107 72 6 0 0 0 0 0 3 19 36 50 27 26 0 38 97 34 7 9 7 1
0 0 0 0 0 0 0 1 0 0 0 0 0 0 0 0 0 7 16 113 189 325 381 664 907 197 36 23 21 6 13 6 14 3 0 5 4 0 35 14 28 91 108 39 54 7 9 12 11
0 1 0 0 0 0 0 17 0 0 0 0 0 0 0 0 10 52 33 122 212 217 288 626 1022 11 4 45 50 36 20 15 0 0 0 0 0 0 10 17 71 226 120 190 171 121 138 65 30
4 0 0 0 0 0 0 0 0 0 0 0 0 0 0 0 20 240 413 93 101 109 279 591 649 3 34 63 59 1 0 0 0 0 0 0 0 0 0 2 37 69 29 73 130 266 108 240 193
0 0 0 0 0 0 0 0 0 0 0 0 0 0 0 0 154 119 0 0 41 440 559 537 94 35 15 5 0 0 0 0 1 3 0 0 0 0 0 0 0 0 0 25 89 120 148 173 219
0 0 0 0 0 0 0 0 0 0 0 0 0 0 0 0 0 0 0 1 28 166 121 92 55 20 0 0 0 0 0 0 1 3 0 0 0 0 0 0 0 0 0 4 54 95 72 110 193
0 0 0 0 0 0 0 0 0 0 0 0 0 0 0 0 0 0 0 0 0 0 0 14 30 7 0 0 0 0 0 0 0 0 0 0 0 0 0 0 0 0 0 0 25 26 39 34 50
0 0 0 0 0 13 0 135 0 0 0 0 0 0 0 0 0 0 0 0 0 0 0 0 0 0 0 0 0 0 0 0 0 0 0 0 0 0 0 0 0 0 0 0 0 2 6 30 11
0 0 0 0 0 0 0 2 18 0 0 0 0 0 0 0 0 0 0 0 0 0 0 0 0 0 0 0 0 0 0 0 0 0 0 0 0 0 0 0 0 0 0 0 6 16 17 19 33
0 0 0 1 16 21 33 3 184 23 0 0 0 0 0 0 0 0 0 0 0 0 0 0 0 0 0 0 4 15 3 0 0 0 0 0 0 0 0 0 0 0 8 11 12 28 38 19 34
0 0 141 188 129 176 0 0 58 0 0 0 0 0 0 0 0 0 0 0 0 0 0 0 1 10 5 0 0 0 0 0 0 0 0 0 0 0 0 0 0 0 18 37 56 54 21 22 5
0 0 99 0 24 47 0 0 30 0 0 0 0 0 0 0 0 0 0 0 4 2 0 0 6 2 0 3 0 0 0 0 0 0 0 0 0 0 2 13 28 34 33 42 34 32 26 1 21
0 0 0 0 0 0 0 4 1 0 0 0 0 0 9 2 4 3 8 18 3 4 4 0 0 0 0 2 5 6 0 0 0 0 0 0 0 0 12 25 29 45 39 34 15 26 1 15 34
0 0 4 0 0 0 4 0 82 6 6 15 15 17 14 20 32 32 27 17 23 16 6 10 5 3 19 26 3 0 0 0 0 0 0 5 13 20 32 51 43 43 3 10 8 32 18 0 0
1 4 0 0 0 0 0 0 6 0 0 0 0 12 16 20 36 41 39 21 29 34 46 35 22 11 3 3 1 0 0 0 2 7 21 17 17 24 32 29 32 39 30 47 65 42 4 40 59
0 0 0 0 0 0 0 0 0 0 0 3 24 23 18 8 28 27 37 26 22 28 17 21 0 0 0 0 0 1 6 9 16 27 7 28 41 49 46 51 44 47 59 50 36 41 50 0 3

GFSSGP_con_mucape_012.txt.gz
CAPE
0 0 0 0 0 0 1 17 42 19 10 0 0 0 7 42 255 140 85 295 636 592 678 869 1261 1474 1447 1428 1561 1583 1549 1516 1495 1468 1552 1412 1412 1239 1007 900 980 1095 1273 1357 1459 1481 1440 1402 1521
0 0 0 0 0 1 0 9 5 0 0 0 0 21 23 19 81 28 97 443 560 824 893 1025 1267 1505 1610 1668 1703 1704 1562 1427 1615 1492 1444 1473 1470 1373 992 798 918 1091 1145 1131 1038 965 804 689 683
0 0 0 0 0 0 0 30 24 0 0 13 1 47 29 21 15 20 153 476 995 980 853 962 1193 1504 1774 1843 1888 1856 1842 1733 1725 1754 1633 1607 1386 857 675 763 1051 1103 1038 881 927 1031 1009 955 856
0 0 0 0 0 2 0 21 0 0 0 29 45 48 41 2 0 11 111 281 391 580 633 669 884 1122 1339 1464 1583 1666 1563 1462 1465 1610 1489 1306 973 679 759 932 872 584 492 465 512 518 590 641 803
0 0 0 0 10 12 18 2 0 7 11 0 28 124 135 59 29 0 21 42 59 298 430 505 708 991 1116 1133 1179 1280 1326 1351 1438 1299 1159 1063 877 794 631 475 383 270 187 145 132 174 255 299 391
0 0 0 0 9 3 5 0 6 62 28 1 52 139 176 29 0 0 0 0 0 141 141 118 700 790 835 914 1030 1073 1062 1118 1173 1142 968 792 667 556 450 287 199 118 83 44 18 1 9 52 79
0 1 0 0 3 2 0 0 0 1 3 2 3 99 156 82 0 0 0 0 0 0 0 19 120 368 562 599 756 873 874 821 689 643 637 582 471 430 221 116 65 19 0 0 0 0 0 0 0
0 0 0 0 0 0 0 0 0 1 0 0 0 19 67 125 0 0 0 0 0 76 158 297 275 407 305 225 451 672 723 599 491 343 349 423 340 330 119 116 1 0 0 0 0 0 0 0 0
0 0 0 0 0 0 0 0 0 0 0 0 0 0 166 133 15 0 0 0 0 121 431 370 249 299 636 229 271 517 726 606 442 404 260 397 437 344 146 0 0 0 0 0 0 0 0 0 0
0 0 0 0 0 0 0 0 0 0 0 0 0 80 379 241 118 0 0 0 39 348 356 814 613 414 96 5 153 681 475 628 649 652 679 721 641 528 193 121 33 2 0 2 0 0 0 1 0
0 0 0 0 0 0 0 0 0 0 0 0 0 16 319 307 219 46 0 0 187 386 418 1091 1205 753 443 294 97 356 402 361 782 1294 555 871 465 919 468 363 216 46 10 20 0 10 0 4 0
0 0 0 0 0 0 0 0 0 0 0 0 0 0 210 99 66 110 45 21 132 343 315 1235 1108 876 651 551 534 642 433 198 435 381 616 561 324 392 139 33 0 0 0 1 10 0 2 3 0
0 0 0 0 0 0 0 0 0 0 0 0 0 1 162 210 179 199 229 183 158 334 392 898 1083 846 1053 331 921 758 640 380 349 238 252 193 200 232 122 34 6 0 0 0 0 0 0 0 0
0 0 0 0 0 0 0 0 0 0 0 0 0 0 29 206 287 220 252 267 285 304 657 1256 1247 738 408 552 378 633 242 336 243 71 4 73 75 109 96 35 35 10 2 5 0 0 0 0 0
0 0 0 0 0 0 0 0 0 0 0 0 0 0 0 16 33 76 138 408 411 209 395 1061 1102 741 467 370 325 257 13 8 35 32 25 25 59 62 113 56 52 55 80 54 23 10 0 0 0
0 0 0 0 0 0 0 0 0 0 0 0 0 0 0 24 36 90 224 282 437 244 236 263 673 633 345 409 66 79 90 61 52 82 48 11 18 17 66 56 77 115 115 86 60 39 24 1 0
0 0 1 0 0 0 0 0 0 0 0 0 0 0 0 0 41 75 106 146 221 140 409 632 998 420 114 207 87 77 52 43 14 0 14 0 1 2 6 2 43 73 35 36 30 2 29 14 0
0 0 0 0 0 0 0 0 0 0 0 0 0 0 1 0 19 137 118 302 287 476 341 755 766 210 88 164 108 13 2 5 20 6 0 0 0 0 0 0 1 27 0 0 0 0 0 0 0
0 0 0 1 0 0 0 0 0 0 0 0 0 0 0 145 207 223 213 150 364 570 223 276 224 32 33 56 5 0 0 1 1 1 0 0 0 0 0 0 0 0 0 0 0 0 0 0 0
0 0 0 0 0 0 0 0 0 0 0 0 0 0 24 2 16 86 154 151 97 199 210 63 64 74 53 17 0 0 0 0 0 4 0 0 0 0 0 0 0 0 0 0 0 0 0 0 0
0 0 0 0 0 0 0 0 0 0 0 0 0 0 0 0 0 0 28 43 25 27 75 69 41 55 64 31 5 0 0 0 0 0 0 0 0 0 0 0 0 0 0 0 0 0 0 0 0
0 0 0 0 0 1 10 26 1 0 6 0 0 0 0 0 0 0 0 0 0 0 0 0 0 0 0 0 0 0 0 0 0 0 0 0 0 0 0 0 0 0 0 0 0 0 0 0 0
0 0 0 0 0 0 10 67 87 3 0 0 0 0 0 0 0 0 0 0 0 0 0 0 0 0 0 0 0 0 0 0 0 0 0 0 0 0 0 0 0 0 0 0 6 0 0 0 0
0 0 0 0 10 292 17 87 14 4 0 0 0 0 0 0 0 0 0 0 0 0 0 0 0 0 0 0 0 0 0 0 0 0 0 0 0 0 0 0 0 1 14 21 8 13 12 12 10
0 7 376 510 592 466 70 19 74 15 9 2 0 0 0 0 0 2 2 1 1 0 0 0 0 0 1 3 1 1 0 0 0 0 0 0 0 0 0 0 5 13 13 14 10 13 10 8 7
0 0 429 51 153 143 0 4 1 0 2 1 0 0 0 9 2 0 0 0 7 19 9 23 6 0 0 6 3 2 0 0 0 0 0 0 0 0 0 2 7 2 1 2 6 7 4 4 13
1 0 0 0 2 5 1 77 15 1 0 0 0 0 8 17 33 23 31 37 18 16 16 13 18 16 3 0 0 1 2 2 0 0 0 0 1 0 0 0 0 1 0 10 13 9 11 11 11
0 0 0 164 13 0 0 1 32 14 5 0 0 1 2 1 16 33 11 6 2 5 19 24 4 15 12 14 12 3 2 0 0 0 1 0 0 0 0 9 13 16 9 16 13 7 4 14 19
0 3 0 0 8 0 0 0 0 1 0 0 0 0 6 0 0 0 2 4 5 1 0 0 6 25 15 2 0 0 2 1 6 6 0 0 0 2 17 19 12 10 11 25 26 20 21 10 0
0 0 0 13 0 50 16 0 0 0 0 0 0 1 0 0 0 0 1 0 3 13 16 0 1 5 1 0 0 0 11 5 0 0 0 0 5 11 18 22 20 27 30 22 38 31 41 41 42

GFSSGP_con_mucape_015.txt.gz
CAPE
0 0 0 0 0 11 34 29 35 52 53 25 4 48 52 76 49 24 439 451 418 518 705 854 945 1094 1251 1351 1345 1369 1351 1272 1146 1222 1303 1132 970 827 692 703 906 900 890 912 953 910 850 761 671
0 0 0 0 0 7 15 0 5 0 52 84 20 0 0 2 58 311 387 456 612 630 799 920 980 1167 1379 1393 1331 1302 1326 1226 1403 1360 1292 1251 1029 702 600 691 1116 935 751 687 767 820 821 843 885
0 0 0 0 1 0 7 7 0 7 13 27 0 0 0 1 68 313 608 747 654 701 904 1026 1106 1288 1429 1487 1477 1463 1476 1484 1518 1521 1232 861 584 537 676 857 1000 520 414 384 387 385 413 481 594
0 0 0 0 14 2 23 10 6 11 5 0 0 0 0 0 169 511 783 765 503 640 820 954 1006 1043 1244 1399 1375 1265 1187 1256 1384 1341 964 726 619 685 678 423 305 163 108 80 67 70 106 162 281
0 0 17 40 28 16 24 10 2 15 13 18 0 11 14 32 110 204 313 269 327 366 450 556 664 813 1035 1146 1070 1099 1129 1180 1189 1135 962 715 676 473 312 230 120 55 19 5 0 0 0 3 96
0 0 12 20 0 3 2 5 30 13 24 79 46 47 52 2 8 17 97 73 136 177 190 361 589 640 739 862 839 793 840 979 1069 1023 885 619 556 494 217 111 32 1 0 0 0 0 0 0 2
5 0 0 0 2 4 9 27 6 5 2 154 60 66 4 0 0 0 3 26 0 0 0 108 187 312 364 426 447 462 584 592 592 619 649 554 476 391 276 116 10 0 0 0 0 0 0 0 0
0 1 0 0 0 0 4 0 0 0 0 14 53 81 34 15 0 0 0 0 0 0 0 1 6 64 29 114 265 282 307 264 184 303 410 283 296 237 235 94 33 0 0 0 0 0 0 0 0
0 2 8 0 0 0 0 0 0 0 0 20 6 104 86 64 0 0 0 0 9 34 29 70 161 185 0 0 138 276 352 230 177 225 314 200 276 159 77 65 28 1 0 0 0 0 0 0 0
0 0 0 0 0 0 0 0 0 0 0 86 103 141 149 92 0 0 0 0 62 85 96 50 79 336 5 0 17 45 236 216 276 371 310 338 276 319 160 102 42 5 3 3 0 0 0 0 0
0 0 0 0 0 0 0 0 0 0 0 29 235 246 210 168 0 0 0 0 89 151 290 180 43 0 4 34 43 70 137 304 409 366 182 32 202 63 12 83 41 2 4 0 1 0 0 0 0
0 0 0 0 0 0 0 0 0 0 0 0 304 337 255 127 13 0 0 0 102 222 525 298 32 3 44 13 8 0 1 112 161 161 97 24 21 0 0 0 0 0 0 0 0 0 0 0 0
0 0 0 0 0 0 0 0 0 0 0 0 127 266 215 145 121 37 37 79 152 302 729 542 80 123 17 104 62 34 48 41 68 3 0 0 4 0 0 0 0 0 0 0 0 0 0 0 0
0 0 0 0 0 0 0 0 0 0 0 0 16 205 102 99 142 104 96 147 67 278 873 688 304 268 40 136 91 33 5 0 8 0 0 0 0 0 0 0 0 0 1 7 0 0 0 0 0
0 0 0 0 0 0 0 0 0 0 0 0 0 141 96 164 187 199 154 159 242 277 764 407 153 193 118 213 68 74 1 0 0 0 0 0 0 0 0 0 0 0 14 1 0 0 0 0 0
0 0 0 0 0 0 0 0 0 0 0 0 0 0 7 173 203 241 84 119 139 468 832 439 467 148 21 69 42 3 0 0 0 0 0 0 0 0 0 0 0 0 0 0 0 0 0 0 0
0 0 0 0 0 0 0 0 0 0 0 0 0 0 0 6 32 39 94 104 136 378 727 410 273 242 163 35 33 4 7 0 0 0 0 0 0 0 0 0 0 0 0 0 0 0 0 0 0
0 0 0 1 0 0 0 0 0 0 0 0 0 0 0 1 37 65 43 57 112 305 298 535 330 160 17 42 29 26 6 0 0 0 0 0 0 0 0 0 0 0 0 0 0 0 0 0 0
0 0 0 0 0 0 0 0 0 0 0 0 0 0 0 3 2 3 6 32 84 166 300 207 92 48 50 38 47 46 29 1 0 0 0 9 7 0 0 0 0 0 0 0 0 0 0 0 0
0 0 0 0 0 0 0 0 0 0 0 0 3 6 24 98 95 93 87 132 75 127 160 97 122 106 64 68 55 52 24 3 0 0 0 0 0 0 0 0 0 0 0 0 0 0 0 0 0
0 0 0 0 0 0 0 0 0 0 0 0 0 0 0 3 48 158 145 59 109 99 105 77 51 32 25 38 29 15 1 0 0 0 0 0 0 0 0 0 0 0 0 0 0 0 0 0 0
0 0 0 0 0 0 0 0 0 0 0 0 0 0 0 0 0 3 39 9 0 0 0 0 0 0 0 0 0 0 0 0 0 0 0 0 0 0 0 0 0 0 0 0 0 0 0 0 0
0 0 0 0 0 0 0 0 15 0 0 0 0 0 0 0 0 0 0 0 0 0 0 0 0 0 0 0 0 0 0 0 0 0 0 0 0 0 0 0 0 0 0 0 0 0 0 4 14
0 0 0 0 0 1 25 20 0 0 3 0 0 0 0 0 0 0 0 0 0 0 0 0 0 0 0 0 0 0 0 0 0 0 0 0 0 0 0 0 0 0 0 0 0 1 0 6 8
0 0 11 14 50 43 49 22 13 9 3 0 9 5 0 0 0 0 0 0 0 0 0 0 0 0 0 0 0 0 2 6 12 4 2 0 0 0 0 0 0 0 0 0 3 8 9 15 11
0 0 0 0 1 18 6 2 1 19 19 3 2 0 0 0 0 0 0 0 1 9 3 0 0 0 0 0 0 0 2 4 14 6 2 0 0 0 0 0 0 0 0 0 0 5 15 19 4
0 0 0 0 0 0 0 3 15 19 14 2 0 0 6 1 7 0 0 0 0 0 0 0 0 0 0 10 21 34 41 31 23 2 0 0 0 0 0 0 0 0 0 6 14 15 7 0 0
0 0 0 0 0 0 0 15 2 3 0 1 2 0 0 0 0 0 0 1 1 1 0 0 0 5 14 4 10 24 46 35 0 0 0 0 0 0 0 0 0 2 3 15 28 29 14 21 11
0 0 0 0 0 0 0 0 7 16 9 0 0 0 0 0 0 0 0 0 0 2 0 0 0 0 0 0 0 1 0 0 0 0 0 0 0 0 0 0 0 0 0 3 11 17 31 30 5
0 0 0 0 0 0 0 0 0 0 0 1 0 0 0 0 0 0 0 0 0 0 0 0 0 0 0 0 0 0 9 2 0 0 0 0 0 0 0 0 0 0 0 0 0 0 0 0 0

GFSSGP_con_mucape_018.txt.gz
CAPE
0 0 0 0 0 0 0 38 5 22 12 47 44 43 69 97 89 114 366 290 480 577 595 665 893 1147 1216 1227 1245 1313 1213 1000 983 953 915 835 687 545 530 666 755 717 728 638 552 516 540 590 637
0 0 0 0 0 0 1 32 17 11 10 21 48 21 62 283 403 408 368 382 481 595 611 692 993 1128 1198 1165 1189 1159 1056 1005 1021 1035 940 687 503 435 596 711 638 482 331 277 262 213 189 226 316
0 0 0 0 0 0 9 30 9 0 0 2 17 28 41 342 348 392 384 503 558 633 695 840 987 1122 1190 1207 1270 1303 1293 1314 1318 1056 660 488 472 572 588 390 253 126 71 44 27 27 36 47 75
0 0 0 2 0 0 1 10 0 0 0 0 0 30 131 280 526 537 584 519 547 697 788 937 1002 1156 1261 1217 1118 1116 1116 1111 1111 985 588 507 533 379 226 149 64 22 2 0 0 0 0 0 14
0 0 11 6 31 20 34 63 0 5 4 0 0 7 57 582 695 606 563 496 598 732 832 835 850 976 1124 1084 940 1028 1018 1019 1004 931 810 539 344 206 104 49 14 0 0 0 0 0 0 0 0
0 1 15 64 9 18 0 1 4 44 26 7 34 84 160 666 731 389 359 500 616 671 597 523 648 734 804 859 795 758 809 837 901 891 795 443 354 256 99 33 1 0 0 0 0 0 0 0 0
0 0 0 11 4 3 0 7 0 37 8 6 75 33 7 318 123 89 124 159 174 195 202 276 353 444 454 425 400 435 587 660 721 734 625 527 378 299 201 44 0 0 0 0 0 0 0 0 0
0 0 0 0 0 0 0 1 1 63 74 93 68 7 0 9 0 0 0 0 0 0 14 17 59 74 88 157 230 276 292 286 375 372 271 217 205 190 162 64 13 0 0 0 0 0 0 0 0
0 0 0 1 8 0 0 0 0 69 104 51 55 8 0 0 0 0 0 0 1 2 0 0 0 0 2 35 161 273 301 210 172 245 226 115 125 54 19 17 0 0 0 0 0 2 0 0 0
0 0 0 0 0 0 0 0 0 11 67 78 52 31 9 0 0 0 0 7 35 36 2 20 12 0 0 7 83 45 85 193 226 247 239 167 201 224 74 51 82 60 8 14 25 34 20 5 0
0 0 0 0 0 0 0 0 0 22 63 99 82 76 75 54 8 0 6 73 114 75 35 61 107 0 0 19 44 36 186 293 310 347 274 169 193 254 105 23 0 0 0 0 0 0 0 0 0
0 0 0 0 0 0 0 0 0 0 39 118 83 129 107 73 0 0 0 73 125 144 105 55 205 63 30 7 90 40 188 409 459 195 39 0 0 0 0 0 0 0 0 0 0 0 0 0 0
0 0 0 0 0 0 0 0 0 0 66 173 193 201 168 9 0 0 4 4 190 209 226 233 63 49 56 99 101 143 125 493 138 43 0 0 0 0 0 0 0 0 0 0 0 0 0 0 0
0 0 0 0 0 0 0 0 0 0 174 282 307 277 177 31 37 26 47 42 174 363 357 447 169 43 78 60 74 103 48 56 40 1 0 0 0 0 0 0 0 0 0 0 0 0 0 0 0
0 0 0 0 0 0 0 0 0 0 39 362 375 319 183 143 137 109 91 137 176 541 522 602 275 100 52 93 69 4 0 37 0 0 0 0 0 0 0 0 0 0 0 0 0 0 0 0 0
0 0 0 0 0 0 0 0 0 0 0 175 313 272 172 155 190 223 194 186 170 680 736 471 282 68 79 122 27 72 1 0 0 0 0 0 0 0 0 0 0 0 0 0 0 0 0 0 0
0 0 1 2 0 0 0 0 0 0 0 0 37 123 109 96 212 289 292 192 395 724 780 457 272 206 91 54 26 10 6 0 0 0 0 0 0 0 0 0 0 0 0 0 0 0 0 0 0
0 0 0 0 0 0 0 0 0 0 0 0 0 0 0 0 75 278 271 152 658 697 664 395 265 74 35 87 44 12 0 15 11 0 0 0 0 7 16 13 6 0 0 0 0 0 0 0 0
0 0 0 0 0 0 0 0 0 0 0 0 0 0 0 0 20 192 320 120 560 622 426 117 76 50 27 29 26 9 13 18 10 0 0 4 4 4 0 0 0 0 0 0 0 0 0 0 0
0 0 0 0 0 0 0 0 0 0 0 0 0 0 0 9 63 102 86 168 308 191 60 30 8 11 14 18 28 52 36 44 29 3 13 10 1 0 0 0 0 0 0 0 0 0 0 0 0
0 0 0 0 0 0 0 0 0 0 0 0 0 4 24 42 80 118 96 52 84 72 19 2 0 0 6 19 24 20 11 5 1 0 0 0 0 0 0 0 0 0 0 0 0 0 0 0 0
0 0 0 0 0 0 0 0 0 0 0 0 0 1 44 112 96 44 35 26 32 0 0 0 0 0 0 0 0 0 0 0 0 0 0 0 0 0 0 0 0 0 0 0 0 0 0 5 2
0 0 0 0 0 0 0 0 0 0 0 0 0 0 0 0 0 0 0 0 0 0 0 0 0 0 0 0 0 0 0 0 0 0 0 0 2 2 0 0 0 0 0 0 0 0 0 0 3
0 0 0 0 0 0 0 0 0 0 0 0 0 0 0 0 0 0 0 0 0 0 0 0 0 0 0 0 0 0 0 0 0 5 14 14 2 11 4 0 0 0 0 0 0 0 0 2 6
0 0 0 0 18 2 1 2 0 0 1 0 0 0 0 0 0 0 0 0 0 0 0 0 0 0 0 0 0 0 0 3 15 21 18 16 2 7 0 0 0 0 0 0 0 0 0 0 1
0 0 0 0 17 16 0 0 0 1 2 11 4 0 0 0 0 0 0 0 0 0 0 0 2 6 0 0 0 2 12 8 19 29 29 16 3 0 0 0 0 0 0 0 0 0 1 12 0
0 0 0 0 0 0 0 0 0 0 0 0 1 0 0 0 0 0 0 0 0 0 3 14 11 0 0 0 0 0 0 0 0 0 0 0 0 0 0 0 0 0 0 0 2 1 0 2 10
0 0 0 0 0 0 0 0 2 0 5 0 0 0 0 0 0 0 0 0 0 0 0 0 2 1 0 0 0 0 0 0 0 0 0 0 0 0 0 0 0 0 0 0 0 0 0 0 0
0 0 0 0 0 0 0 0 0 0 0 0 0 0 0 0 0 0 0 0 0 0 0 0 0 0 0 0 0 0 0 0 3 0 1 12 14 10 0 18 6 0 0 0 0 0 0 0 0
0 0 0 0 0 0 0 0 0 0 6 2 5 0 0 0 0 2 0 0 0 0 0 0 0 0 0 0 0 2 4 2 15 14 28 30 22 7 7 0 0 0 0 0 0 0 0 0 0

GFSSGP_con_mucape_021.txt.gz
CAPE
0 0 0 0 0 0 0 15 42 11 40 91 60 60 116 117 84 59 253 279 466 451 518 694 863 1068 1154 1122 1062 1091 881 735 775 742 702 606 478 435 554 541 386 197 120 86 47 22 22 28 89
0 0 0 0 0 0 14 32 54 76 33 50 40 65 193 429 327 328 257 491 465 450 534 720 927 1058 1183 1214 1194 1113 871 849 845 748 626 436 426 547 450 273 125 47 17 0 0 0 0 0 0
0 0 0 0 0 0 0 44 47 72 54 32 2 1 225 513 373 358 347 516 539 501 606 848 899 989 1125 1137 1105 1064 1115 1138 913 683 474 488 548 383 189 100 36 3 0 0 0 0 0 0 0
0 0 0 0 0 0 14 18 53 46 6 5 0 87 307 343 436 357 447 598 541 588 754 826 874 973 1159 1197 1092 1067 1090 999 873 707 514 536 381 185 100 45 5 0 0 0 0 0 0 0 0
0 0 0 19 40 5 10 39 47 35 34 10 1 73 302 673 542 534 559 560 567 661 756 891 906 937 1031 955 905 928 939 869 873 759 624 467 289 155 48 14 1 0 0 0 0 0 0 0 0
0 0 0 64 60 43 70 26 14 35 8 7 130 299 493 714 525 592 497 592 705 697 777 851 877 871 919 904 870 790 731 767 816 840 726 415 365 236 42 9 0 0 0 0 0 0 0 0 0
0 0 2 10 55 59 21 25 45 22 51 102 132 332 648 740 593 465 479 563 683 733 639 611 607 619 590 512 488 486 562 608 640 698 706 557 413 249 164 31 0 0 0 0 0 0 0 0 0
0 0 0 20 24 34 21 0 84 79 106 78 42 235 592 780 454 460 536 568 476 294 197 142 179 222 174 179 233 289 349 354 445 475 344 205 180 152 128 35 13 0 0 0 9 11 5 0 0
0 1 0 0 10 0 0 28 134 153 109 63 37 152 487 188 234 112 43 28 0 0 0 0 10 12 5 0 60 194 256 226 264 244 147 58 43 36 35 66 27 40 26 30 45 88 42 0 0
0 7 4 4 0 0 0 53 126 145 89 34 24 62 110 7 0 0 0 0 0 0 0 0 0 0 0 2 30 12 73 33 122 202 114 89 121 174 79 73 93 164 111 138 86 33 30 0 0
0 0 0 0 0 0 0 14 32 99 58 38 0 18 0 0 0 0 0 0 0 0 0 0 0 0 10 6 11 56 112 118 172 230 243 208 185 163 176 26 0 0 0 0 0 0 0 0 0
0 0 0 0 4 0 0 0 37 0 57 17 24 34 31 35 4 0 0 22 12 39 49 48 0 0 3 49 31 86 202 212 316 311 133 70 0 0 0 0 0 0 0 0 0 0 0 0 0
0 0 0 0 0 0 0 0 0 0 94 34 7 57 44 53 5 1 20 91 119 114 147 218 119 2 6 56 103 70 205 377 441 223 26 0 0 0 0 0 0 0 0 0 0 0 0 0 0
0 0 0 0 0 0 0 0 0 0 90 31 73 77 66 49 0 0 17 128 211 227 241 267 214 99 19 98 131 150 191 462 282 53 0 0 0 0 0 0 0 0 0 0 0 0 0 0 0
0 0 0 0 0 0 0 0 0 5 124 95 131 113 92 57 61 45 37 123 246 258 285 307 269 77 86 125 117 53 79 200 123 0 0 0 0 0 0 0 0 0 0 0 0 0 0 0 0
0 0 0 0 0 0 0 0 0 17 168 186 169 169 153 130 129 202 135 127 204 287 344 283 250 100 56 56 53 12 0 13 7 0 0 0 0 0 0 0 0 0 0 0 0 0 0 0 0
0 0 7 0 0 0 0 0 0 3 243 194 218 266 270 228 157 255 211 205 210 421 390 232 94 113 14 64 15 15 10 0 2 0 0 1 2 1 5 0 0 8 5 0 0 0 0 0 0
0 0 3 0 0 0 0 0 0 0 38 52 194 287 279 311 272 272 279 212 272 466 428 249 158 104 51 62 43 26 17 14 18 29 40 33 20 21 10 11 15 0 0 0 0 0 0 0 0
0 0 0 0 0 0 0 0 0 0 0 0 0 2 55 19 38 193 458 452 485 576 435 219 192 64 60 70 65 34 35 30 35 44 26 41 15 11 1 0 0 0 0 0 0 0 0 0 0
0 0 0 0 0 0 0 0 0 0 0 0 0 3 73 209 248 316 590 748 586 325 113 50 48 83 119 81 59 51 55 52 41 11 16 2 0 0 1 0 0 0 0 0 0 0 0 0 0
0 0 0 0 0 0 0 0 0 0 0 0 3 13 35 65 97 131 121 51 40 29 3 0 0 0 14 62 32 20 7 0 0 0 0 0 0 0 0 0 0 0 0 0 0 0 0 0 0
0 0 0 0 0 0 0 0 0 0 0 1 0 6 24 43 44 7 14 19 4 0 0 0 0 0 0 0 0 0 0 0 0 0 0 0 2 2 5 1 0 0 0 0 0 0 0 0 0
0 0 0 0 0 0 0 0 0 0 0 0 10 18 12 5 0 1 0 0 0 0 0 0 0 0 0 0 0 0 0 0 0 0 2 6 14 16 0 14 3 0 0 0 0 0 0 0 0
0 0 0 0 0 0 0 0 0 0 0 0 3 0 0 0 0 0 0 0 0 0 0 0 0 0 0 0 0 0 0 0 2 6 6 8 10 9 0 0 0 0 0 0 0 0 0 0 0
0 0 0 0 0 2 1 0 0 0 0 0 2 0 0 3 1 5 0 0 0 0 0 0 0 0 0 0 0 0 0 0 0 4 3 0 0 0 0 0 0 0 0 0 0 0 0 0 0
0 0 0 0 0 0 0 0 0 0 0 0 0 0 0 12 0 0 0 0 0 0 0 0 0 0 0 0 0 0 0 0 0 0 0 0 0 0 0 0 0 0 0 0 0 0 0 0 0
0 0 0 0 0 0 0 0 0 0 0 0 0 0 4 17 0 0 0 0 0 0 0 0 0 0 0 0 0 0 0 0 0 0 0 0 0 0 2 3 5 14 4 1 0 0 0 0 0
0 0 0 0 0 0 0 0 0 0 0 0 0 7 6 0 0 0 0 0 0 0 0 0 0 0 0 0 0 0 0 0 0 0 1 4 4 7 20 30 10 0 0 0 0 0 0 0 0
0 0 0 0 0 0 0 0 0 0 0 0 0 0 0 0 0 0 3 0 0 0 0 0 0 0 0 0 0 0 0 0 1 0 2 13 31 34 11 10 0 3 1 0 0 0 0 0 0
0 0 0 0 0 0 0 0 0 0 0 0 0 1 0 0 0 3 14 18 11 1 0 0 0 0 0 0 0 0 0 0 0 1 7 21 16 10 9 3 5 1 2 0 0 0 0 0 0

GFSSGP_con_mucape_024.txt.gz
CAPE
0 0 0 0 0 0 0 0 29 71 93 86 58 97 113 199 80 62 270 303 404 447 643 738 888 1045 1028 957 961 981 641 677 634 601 507 371 396 440 285 96 74 22 0 0 0 0 0 0 0
0 0 0 0 0 0 0 20 55 85 119 124 64 29 127 304 324 273 308 538 400 471 626 760 938 1043 1112 1097 1035 817 684 702 660 538 375 421 408 207 78 36 84 4 0 0 0 0 0 0 0
0 0 0 0 0 0 0 102 80 76 89 51 32 12 220 368 407 278 505 446 418 474 667 843 935 1011 1089 1022 990 963 968 865 645 459 412 454 225 59 19 9 54 1 0 0 0 0 0 0 0
0 0 0 0 0 0 14 93 46 48 22 1 0 27 103 311 332 324 606 483 421 543 755 829 842 922 1055 1045 1046 1102 1009 826 685 596 471 338 113 17 4 0 4 0 0 0 0 0 0 0 0
0 0 0 0 0 8 44 82 63 37 12 6 0 1 162 720 545 602 610 499 444 572 686 721 784 894 1030 1028 960 999 859 772 719 722 595 274 114 30 5 0 0 0 0 0 0 0 0 13 37
0 0 0 0 0 27 53 95 80 7 9 24 98 168 297 1146 682 715 657 554 538 688 868 742 771 832 891 917 897 777 711 711 759 761 649 362 265 144 10 0 0 0 0 0 0 0 9 60 53
0 0 0 48 35 75 124 69 51 22 29 88 187 339 593 554 625 899 1017 701 1054 692 773 743 768 744 701 637 552 487 530 588 654 679 590 531 298 136 69 21 11 2 20 86 98 112 117 75 30
0 0 0 55 30 51 84 28 18 41 71 197 258 358 536 451 695 557 733 699 619 708 766 763 685 606 421 306 292 321 390 411 446 540 422 254 125 66 56 0 8 101 126 152 146 195 165 104 49
0 0 0 4 36 50 71 7 85 99 91 62 41 422 547 631 541 506 477 530 609 518 398 338 262 105 10 8 141 314 343 339 342 345 214 56 0 0 0 6 76 156 129 154 180 86 57 0 0
0 0 0 1 6 28 0 0 69 163 108 58 38 412 751 560 489 486 445 296 180 50 11 3 0 0 0 0 23 7 62 117 151 123 121 81 108 75 13 13 8 2 0 0 0 0 0 0 0
0 0 0 4 45 10 1 13 142 176 110 42 166 675 641 457 351 100 9 0 0 0 0 0 0 0 0 0 0 0 20 116 144 186 193 162 155 156 101 0 0 0 0 0 0 0 0 0 0
0 0 0 6 8 34 19 82 157 152 41 72 283 559 210 174 2 0 0 0 0 0 0 0 0 0 0 0 0 44 101 158 254 265 279 170 87 4 0 0 0 0 0 0 0 0 0 0 0
0 0 0 5 29 26 2 78 70 4 39 34 222 176 0 0 0 0 0 0 24 19 65 25 0 0 0 0 9 92 172 250 418 369 122 62 2 0 0 0 0 0 0 0 0 0 0 0 0
0 0 0 1 35 1 0 0 0 0 52 11 99 61 18 20 3 0 0 0 98 79 133 194 115 4 0 11 57 80 200 379 539 351 77 11 2 0 0 0 0 0 0 0 0 0 0 0 0
0 0 0 0 0 0 0 0 0 0 88 28 27 46 56 81 48 103 20 9 50 131 161 275 261 49 5 6 63 107 245 344 531 232 21 0 0 0 0 0 0 0 0 0 0 0 0 0 0
0 0 0 0 0 0 0 0 0 40 63 9 25 61 69 146 151 181 159 102 162 211 257 273 288 58 14 51 29 105 111 169 201 103 1 0 4 7 5 8 9 12 5 3 4 0 0 0 0
0 0 0 0 0 0 0 0 0 22 56 29 97 76 83 110 160 206 262 216 207 240 287 284 247 53 24 22 63 39 49 21 54 34 21 35 34 12 24 22 3 3 0 1 0 0 0 0 0
0 0 0 0 0 0 0 0 0 0 144 120 108 114 157 211 220 193 231 201 193 183 271 263 171 61 54 86 68 39 51 42 21 40 39 40 12 0 1 4 0 0 0 0 0 0 0 0 0
0 0 0 0 0 0 0 0 0 0 102 178 200 234 287 311 346 313 253 238 225 209 302 186 183 99 95 72 66 75 57 40 33 14 1 1 0 0 0 0 0 0 0 0 0 0 0 0 0
0 0 0 0 0 0 0 0 0 0 0 0 0 0 0 83 371 500 407 311 303 289 233 53 35 23 28 27 36 23 22 7 6 1 0 0 0 0 0 0 0 0 0 0 0 0 0 0 0
0 0 0 0 0 0 0 0 0 0 0 0 104 189 199 230 365 356 222 35 24 6 0 0 9 10 0 0 0 0 0 0 0 0 0 0 0 0 0 0 1 1 0 0 0 0 0 0 0
0 0 0 0 0 0 0 0 0 0 0 0 2 2 11 33 39 3 0 0 1 0 0 0 0 0 0 0 0 0 0 0 0 0 0 1 3 0 2 3 2 0 0 0 0 0 0 0 0
0 0 0 0 0 0 0 0 0 0 0 0 0 3 13 4 0 0 0 0 0 0 0 0 0 0 0 0 0 0 0 0 0 0 2 7 4 0 2 0 0 0 0 0 0 0 0 0 0
0 0 0 0 0 0 0 0 0 0 0 0 0 0 0 0 0 7 0 0 0 0 0 0 0 0 0 0 0 0 0 0 0 0 3 1 0 0 0 0 0 0 0 0 0 0 0 0 0
0 0 0 0 0 0 0 0 0 0 0 0 0 0 0 0 0 0 0 0 0 0 0 0 0 0 0 0 0 0 0 0 0 0 0 0 0 0 0 0 0 0 1 0 0 0 0 0 0
0 0 0 0 0 0 0 0 0 0 0 0 0 0 0 0 0 1 0 3 0 0 0 0 0 0 0 0 0 0 0 0 0 0 0 0 0 0 0 0 3 9 2 0 0 0 0 0 0
0 0 0 0 0 0 0 0 0 0 0 0 0 0 0 0 0 0 1 0 0 0 0 0 0 0 0 0 0 0 0 0 0 0 0 0 0 0 0 8 7 7 15 0 0 1 0 0 0
0 0 0 0 0 0 0 0 0 0 0 0 0 0 0 3 4 7 0 0 0 0 0 0 0 0 0 0 0 0 0 0 0 0 0 0 0 0 2 8 18 36 22 1 3 0 0 0 0
0 0 0 0 0 0 0 0 0 0 0 0 0 0 0 6 3 1 0 1 4 9 10 1 0 0 0 0 0 0 0 0 0 0 0 0 0 0 2 20 30 24 5 10 8 0 0 0 0
0 0 0 0 0 0 0 0 0 0 0 0 0 0 0 0 4 0 3 8 17 17 10 0 0 0 0 0 0 0 0 0 0 0 0 0 0 0 0 5 5 8 1 0 0 0 0 0 0

GFSSGP_con_mucape_027.txt.gz
CAPE
0 0 0 0 0 0 0 0 2 60 62 66 99 87 77 149 140 140 295 370 599 821 838 564 656 1035 997 998 957 884 617 527 487 422 329 374 296 111 23 62 105 12 0 0 0 0 0 0 0
0 0 0 0 0 0 0 0 65 118 80 72 80 77 103 73 314 372 399 608 701 931 860 575 734 1065 1157 1095 858 803 639 575 508 380 397 295 82 13 7 3 53 11 0 0 0 0 0 0 0
0 0 0 0 0 0 0 124 140 88 63 30 46 59 54 213 357 370 597 667 790 911 853 877 846 1104 1181 1075 842 858 806 721 584 479 390 109 0 0 0 7 27 43 0 0 0 0 0 0 0
0 0 0 0 0 0 18 150 103 47 10 30 0 3 156 257 261 422 774 733 731 896 938 864 1010 1014 1112 1142 1069 999 865 694 622 608 393 38 0 0 0 23 44 4 0 0 0 0 0 10 20
0 0 0 0 0 0 1 113 76 24 5 6 0 12 301 592 404 906 685 607 768 929 1058 1110 893 986 1139 1104 1026 996 785 698 703 714 512 241 0 0 0 28 39 13 0 0 0 0 3 34 48
0 0 0 2 0 18 53 111 55 24 2 25 66 74 346 723 912 864 716 634 696 817 994 1031 850 939 1017 1072 991 755 710 710 747 737 578 291 147 129 8 22 52 15 9 23 28 13 8 35 14
0 0 3 23 17 44 92 58 72 58 39 43 107 371 676 741 837 835 736 753 663 741 823 910 933 885 834 774 654 552 598 656 706 666 583 406 233 150 150 129 87 71 131 94 73 42 54 0 0
0 0 13 53 36 69 117 115 37 24 18 60 159 437 754 1251 954 915 717 623 838 1087 1049 871 974 875 844 635 485 395 440 466 527 512 358 148 92 126 180 1 112 163 142 154 68 16 0 0 0
0 1 0 72 57 69 113 74 37 50 57 158 140 498 513 864 1018 968 692 1173 1181 941 987 686 780 658 490 434 381 327 407 367 373 362 169 56 169 158 102 36 148 7 0 11 0 0 0 0 0
0 0 0 4 58 40 25 18 64 67 116 72 141 494 491 733 891 1049 998 919 973 764 619 522 395 271 165 97 335 344 302 306 380 351 363 237 252 221 194 14 0 0 0 0 0 0 0 0 0
0 0 0 49 42 15 5 20 41 86 172 104 347 654 706 785 695 519 663 664 593 470 256 81 97 55 36 64 193 117 230 279 289 328 318 311 220 275 116 0 0 0 0 0 0 0 0 0 0
0 0 4 36 32 3 19 43 85 237 116 96 455 862 757 532 495 586 564 340 6 2 0 0 0 0 0 2 38 80 229 290 376 412 395 355 169 16 0 0 0 0 0 0 0 0 0 0 0
0 0 0 29 0 61 52 78 199 239 4 107 581 885 591 485 424 223 64 0 0 12 6 0 0 0 0 1 34 84 241 333 372 371 191 64 0 0 0 0 0 0 0 0 0 0 0 0 0
0 0 0 0 24 61 86 108 142 138 82 211 566 549 365 296 78 0 0 0 16 57 108 100 5 2 7 41 59 105 194 260 375 413 229 7 0 0 0 0 0 0 0 0 0 0 0 0 0
0 0 0 8 14 57 22 17 1 1 98 200 435 385 99 33 11 0 0 3 107 112 152 196 166 6 18 51 67 60 66 156 198 299 153 29 0 0 3 0 6 2 1 5 1 0 0 0 0
0 0 0 0 11 0 3 0 0 25 56 75 214 204 88 88 107 62 14 15 64 118 159 200 225 86 77 50 35 8 5 9 84 129 71 13 1 13 9 18 13 2 12 8 0 0 0 0 0
0 0 0 0 0 0 0 0 0 47 60 13 85 115 104 147 152 164 144 91 110 150 122 169 187 176 92 83 28 8 32 43 29 31 27 12 37 7 10 4 0 2 0 0 0 0 0 0 0
0 0 0 0 0 0 0 0 0 10 85 13 11 47 98 103 149 180 161 168 127 127 110 154 184 192 17 13 55 65 68 68 42 68 50 37 0 0 0 0 0 0 0 0 0 0 0 0 0
0 0 0 0 0 0 0 0 0 0 120 73 27 73 70 59 97 168 193 193 242 172 104 163 123 76 18 72 81 14 15 40 39 15 0 0 0 0 0 0 0 0 0 0 0 0 0 0 0
0 0 0 0 0 0 0 0 0 0 44 139 148 177 190 210 254 305 232 168 176 146 186 243 134 49 20 12 0 0 0 0 0 0 0 0 0 0 0 0 0 0 0 0 0 0 0 0 0
0 0 0 0 0 0 0 0 0 0 0 0 0 0 16 188 345 308 295 267 207 197 102 62 49 39 0 0 0 2 0 0 0 0 0 0 0 0 0 0 0 0 0 0 0 0 0 0 0
1 0 0 0 0 0 0 0 0 0 0 119 151 225 294 280 176 118 214 62 5 0 0 10 36 0 0 0 0 0 0 0 0 0 0 0 1 0 0 0 0 0 0 0 0 0 0 0 0
0 0 0 0 0 0 0 0 0 0 0 66 48 2 0 0 0 3 0 0 0 0 0 0 0 0 0 0 0 0 0 0 0 0 0 0 0 0 0 0 0 0 0 0 0 0 0 0 0
0 0 0 0 0 0 0 0 0 0 0 0 0 0 0 7 10 6 1 0 0 0 0 0 0 0 0 0 0 0 0 0 0 0 0 0 0 0 0 0 0 0 0 0 0 1 0 3 0
0 0 0 3 0 0 0 0 0 0 0 0 0 0 0 0 1 1 0 0 0 1 0 0 0 0 0 0 0 0 0 0 0 0 0 0 0 0 0 0 0 0 5 5 4 4 20 27 2
0 0 0 0 0 0 0 0 0 0 0 0 0 0 0 0 0 0 4 4 0 0 0 0 0 0 0 0 0 0 0 0 0 0 0 0 0 0 0 0 0 8 9 3 11 20 37 50 0
0 0 0 0 0 0 0 0 0 0 0 0 0 0 0 0 0 1 0 0 0 0 0 0 0 2 2 0 0 0 0 0 0 0 0 0 0 0 0 0 0 0 2 14 20 12 19 0 0
0 0 0 0 0 0 0 0 0 0 0 0 0 0 0 0 0 0 0 0 0 0 1 5 18 16 11 0 0 0 0 0 0 0 0 0 0 0 0 0 0 0 10 10 0 1 0 0 0
0 0 0 0 0 0 0 0 0 0 0 0 0 0 0 0 0 0 0 0 1 5 10 17 16 25 1 0 0 0 0 0 0 0 0 0 0 0 0 0 0 2 12 5 18 0 0 0 0
0 0 0 0 0 0 0 0 0 0 0 0 0 0 0 0 0 0 1 3 3 9 13 17 20 11 4 0 0 0 0 0 0 0 0 0 0 0 0 0 0 6 28 14 3 0 0 0 0

GFSSGP_con_mucape_030.txt.gz
CAPE
0 0 0 0 0 0 0 0 4 331 439 279 257 186 281 484 357 389 439 538 794 747 490 468 753 965 994 922 756 728 578 495 449 366 378 239 78 0 0 99 42 2 0 0 0 0 0 0 0
0 0 0 0 0 0 0 0 88 461 247 52 39 133 85 101 595 492 496 657 839 777 598 564 719 1025 1167 1087 1047 886 565 490 367 376 237 71 0 0 0 1 25 17 0 0 0 0 0 0 0
0 0 0 0 0 0 8 138 323 106 126 100 48 67 71 79 370 480 886 869 880 779 771 812 802 1072 1004 1063 995 898 812 647 568 518 96 0 0 0 0 18 137 106 0 0 0 0 0 0 0
0 0 0 0 0 0 75 376 176 97 26 42 13 58 154 94 284 396 875 841 909 930 911 685 919 926 1100 1096 1100 898 802 680 674 514 222 0 0 0 0 137 183 22 0 0 0 0 0 0 0
0 0 0 0 0 0 132 466 333 181 56 1 11 2 214 510 454 698 799 734 862 879 1125 1111 763 818 1253 1206 1037 882 764 731 759 560 352 118 0 0 0 82 122 22 0 0 0 3 13 8 0
0 0 0 6 39 8 127 430 364 87 36 31 3 18 625 796 733 574 281 572 954 1175 1087 1015 700 891 1149 1221 1028 740 717 789 798 639 448 166 92 125 5 15 13 0 0 15 5 5 10 0 0
0 0 1 73 139 244 238 436 226 84 27 84 98 184 891 934 975 528 551 816 914 1040 1062 1051 1001 979 970 864 635 577 647 703 718 661 492 319 233 247 116 78 114 104 101 88 4 0 0 0 0
0 0 34 180 171 156 444 389 74 47 41 204 304 252 1003 917 1073 891 826 948 951 1006 1098 1032 846 788 822 626 475 462 482 529 567 498 263 155 177 179 39 167 118 10 88 11 0 0 0 0 0
0 0 49 214 269 238 156 100 73 46 130 191 150 589 890 1055 970 916 790 857 882 989 925 1006 727 692 560 319 384 287 420 430 410 357 171 112 246 191 104 41 4 0 0 0 0 0 0 0 0
0 0 0 18 159 120 54 66 50 139 207 177 580 1183 1217 1024 986 918 890 875 968 1048 1256 885 738 627 344 43 173 185 129 389 509 493 545 526 653 543 241 14 0 0 0 0 0 0 0 0 0
0 0 0 50 170 129 85 5 1 147 268 274 582 1154 1194 1200 1031 809 961 1042 1092 1195 655 617 579 347 63 74 134 162 528 684 817 833 847 919 851 873 324 16 6 0 0 0 0 0 0 0 0
0 0 0 107 118 38 58 38 65 212 229 292 545 1335 1261 1118 1370 1396 1388 969 626 396 211 141 155 208 153 85 185 466 635 739 778 925 1053 1049 986 610 94 10 0 0 0 0 0 0 0 0 0
0 0 0 27 31 31 69 79 147 241 173 455 1112 1313 1293 912 972 731 474 283 154 54 63 25 70 97 217 346 537 688 844 938 1058 978 820 632 492 248 32 0 0 0 0 0 0 0 0 0 0
0 0 1 1 6 51 95 93 260 156 361 1055 1250 1058 708 353 186 193 106 28 6 50 146 118 85 134 270 510 677 763 648 619 660 227 193 160 253 128 0 0 0 0 5 3 0 0 0 0 0
0 0 0 0 14 63 98 47 70 27 279 787 795 654 553 346 145 14 0 56 8 158 314 332 349 290 367 609 476 140 85 87 105 77 77 58 21 0 2 13 6 5 2 1 0 1 0 0 0
0 0 0 0 8 56 58 21 1 46 254 577 791 643 535 296 60 0 0 115 115 319 489 483 444 456 308 49 20 10 2 0 1 38 51 49 28 19 25 27 2 0 0 0 0 0 0 0 0
0 1 0 0 12 14 3 0 0 21 193 392 519 445 330 156 134 217 122 18 130 444 650 562 635 311 43 58 15 17 24 27 39 24 66 89 49 20 0 0 0 0 0 0 0 0 0 0 0
0 0 0 0 0 0 0 7 0 45 230 239 322 338 293 263 281 269 271 241 494 690 691 701 607 200 78 0 2 1 44 64 31 26 9 4 0 0 0 0 0 0 0 0 0 0 0 0 0
0 1 1 0 0 0 0 24 1 129 301 297 278 323 283 268 294 322 366 566 684 739 758 832 569 132 45 5 30 35 0 0 0 0 0 0 0 0 0 0 0 0 0 0 0 0 0 0 1
2 0 1 0 0 74 104 143 51 89 299 350 313 303 335 379 444 413 501 638 686 751 768 900 563 591 381 135 18 0 0 0 0 0 0 0 0 0 0 0 0 0 0 0 0 0 0 0 1
20 37 15 36 4 38 95 137 98 3 34 67 170 330 388 551 582 622 636 660 751 790 813 772 841 489 102 22 1 0 0 0 0 0 0 0 0 0 0 0 0 0 0 0 0 0 0 0 1
49 0 10 25 51 75 15 152 180 111 72 135 141 246 489 597 735 727 849 915 910 881 854 762 218 1 0 0 0 15 6 11 0 0 0 0 0 0 0 0 0 0 0 0 0 0 11 16 0
62 0 16 6 51 50 19 46 181 157 156 244 415 585 685 661 568 464 298 148 21 4 153 362 36 0 0 0 0 0 0 0 0 0 0 0 0 0 0 0 0 0 6 19 9 13 41 32 27
10 44 43 35 39 47 21 15 30 188 213 315 380 275 456 191 119 7 3 0 0 0 0 0 0 0 0 0 0 0 0 0 0 0 0 0 0 1 5 7 15 28 38 44 40 55 68 70 66
63 113 48 73 52 18 0 0 0 4 12 274 286 16 84 0 3 1 0 0 0 0 0 0 0 0 0 0 0 1 0 1 0 0 0 0 0 4 7 24 53 72 77 72 61 84 70 72 59
23 39 3 0 0 0 0 4 30 0 0 76 125 0 0 0 0 0 0 0 0 0 0 0 0 0 0 0 0 0 0 0 0 0 0 0 0 0 1 19 29 33 65 74 80 85 67 76 61
0 0 0 9 0 2 0 2 2 0 0 4 104 0 0 0 0 0 0 0 0 0 0 0 0 0 0 6 4 16 0 1 0 0 0 0 0 0 0 4 12 22 38 58 81 70 78 59 41
0 0 0 1 0 0 0 0 0 0 0 0 52 0 0 0 0 0 0 0 0 0 0 0 0 0 5 3 2 3 0 0 0 0 0 0 0 0 0 0 0 6 30 60 60 68 59 47 58
0 0 0 0 0 0 0 0 0 0 0 0 5 0 0 0 0 0 0 0 0 0 0 5 5 5 4 0 5 3 0 0 0 0 0 0 0 0 0 0 1 10 35 66 69 76 54 31 22
0 0 0 0 0 0 0 0 0 0 0 0 0 0 0 0 0 0 0 0 0 3 7 5 2 6 7 9 3 0 0 0 0 0 0 0 0 0 1 9 19 26 35 53 51 40 13 13 18

GFSSGP_con_mucape_036.txt.gz
CAPE
0 0 0 0 0 0 0 0 477 604 698 711 553 663 698 676 773 549 539 407 137 51 163 329 632 750 795 887 817 676 571 348 301 191 219 176 143 67 154 114 76 119 0 0 0 0 0 0 0
0 0 0 0 0 0 0 299 628 729 615 678 381 313 435 708 710 748 629 460 213 99 96 278 703 865 991 898 762 596 445 332 285 204 164 126 8 0 34 173 165 144 0 0 0 0 0 0 0
0 0 0 0 0 0 0 734 670 512 551 586 153 109 203 602 662 634 673 544 323 120 213 510 655 839 1004 898 757 586 613 374 227 176 58 0 0 47 57 272 235 135 0 0 0 0 0 0 0
0 0 0 0 0 0 368 633 293 270 269 210 184 72 80 406 391 658 624 575 438 233 441 482 597 875 1016 972 764 710 568 308 211 140 126 5 65 108 110 272 214 28 0 0 0 0 0 0 0
0 0 0 0 0 0 0 533 313 392 159 141 124 101 18 33 459 647 675 578 430 481 385 415 569 736 996 843 715 725 503 336 245 188 202 171 52 62 100 266 226 88 0 0 0 0 0 8 12
0 0 0 0 0 94 139 511 291 52 169 17 107 15 2 0 23 283 500 433 350 221 269 363 638 897 789 776 686 663 526 377 306 250 242 230 171 242 274 299 261 180 42 0 0 0 0 0 0
0 0 0 0 0 13 182 404 276 279 119 50 0 325 375 0 91 176 263 137 194 163 200 282 670 742 444 400 452 538 515 436 365 343 309 333 349 356 415 326 234 102 6 0 0 0 0 0 0
0 0 0 0 0 343 178 228 46 123 48 279 233 8 269 553 271 18 0 95 62 139 292 335 627 558 271 269 354 413 411 354 245 195 146 111 84 235 327 79 173 98 0 0 0 0 0 0 0
0 0 0 0 77 268 132 192 193 39 41 166 14 488 899 1031 282 24 42 78 42 179 222 382 499 349 230 295 371 416 469 300 174 102 101 47 57 73 51 16 60 11 0 0 0 0 0 0 0
0 0 0 59 119 21 10 17 23 76 1 28 624 715 915 274 50 70 66 165 137 117 301 296 502 296 144 28 148 144 168 29 30 30 161 217 465 118 7 0 0 0 0 0 0 0 0 0 0
0 0 0 11 256 37 0 41 18 47 2 93 474 1275 1105 980 836 702 239 192 182 143 294 380 363 246 14 5 38 77 172 310 466 509 652 857 805 329 173 0 0 4 0 0 0 0 0 0 0
0 0 0 45 209 164 88 64 4 4 10 53 1230 1345 1179 1048 934 664 689 531 431 309 345 299 244 311 83 71 70 380 560 467 850 823 834 851 862 755 261 160 164 40 34 0 2 0 0 0 0
0 4 2 73 35 96 49 86 141 49 45 659 1516 1363 1216 961 972 894 809 606 227 238 258 202 220 313 373 449 714 632 631 910 917 905 830 760 539 698 287 96 36 4 0 3 0 0 1 0 0
1 2 101 29 0 16 102 19 44 42 124 1148 1375 1205 827 489 734 843 315 252 218 127 151 139 175 450 502 751 646 585 805 911 614 535 556 265 147 232 186 9 0 0 0 1 0 0 0 0 0
0 0 3 0 0 33 15 69 26 51 666 735 631 560 343 331 323 261 231 225 96 53 70 123 254 487 738 725 417 258 239 26 142 307 248 188 79 40 22 2 2 9 0 0 0 0 0 0 0
0 0 0 0 2 15 1 16 59 102 213 285 268 232 151 185 160 150 112 87 101 111 83 261 423 660 369 251 185 8 57 18 9 20 9 6 2 2 4 15 0 0 0 0 0 0 0 0 0
0 0 0 0 1 15 22 0 19 75 191 207 216 130 51 16 20 49 86 102 196 200 267 394 671 414 218 24 25 6 0 0 0 0 0 2 1 5 0 0 0 0 0 0 0 0 0 0 0
0 0 1 0 0 0 5 0 0 20 176 311 249 222 193 59 0 0 6 104 313 434 499 569 567 413 136 20 13 2 0 0 0 0 6 8 1 0 0 0 0 0 0 0 0 0 0 0 0
0 0 0 1 0 0 22 11 0 3 61 317 365 389 367 248 204 243 244 219 319 872 747 709 527 293 60 99 96 30 3 0 0 0 0 0 0 0 0 0 0 0 0 0 0 0 0 0 0
0 1 2 0 0 0 3 4 0 2 32 155 352 403 427 333 340 544 464 385 649 1013 904 691 530 283 218 312 216 82 2 0 0 0 0 0 0 0 0 0 0 0 0 0 0 0 0 0 0
0 0 3 20 0 0 19 0 4 1 1 23 210 336 421 469 615 656 607 796 1006 1139 845 702 762 670 346 354 84 6 0 0 0 0 0 0 0 0 0 0 0 0 0 0 0 0 0 0 0
1 9 15 37 7 0 8 43 0 8 30 57 118 190 322 418 657 739 769 788 996 1076 837 796 559 625 663 315 11 0 0 0 0 0 0 0 0 0 0 0 0 0 0 0 0 0 0 0 0
12 12 28 4 19 47 0 1 6 0 79 196 328 354 325 381 553 775 900 1030 838 700 691 669 719 693 317 56 2 28 84 25 3 0 3 7 0 0 0 0 0 0 0 0 0 11 24 15 7
66 41 27 50 63 25 15 31 3 0 9 81 301 418 488 597 851 901 1004 901 875 840 886 943 597 164 48 0 12 39 27 0 0 0 0 0 0 0 0 0 0 0 0 0 0 0 7 2 7
0 37 220 28 75 216 82 73 92 55 34 26 215 354 501 786 798 823 830 876 897 854 885 419 163 1 0 0 0 0 0 0 0 0 0 0 0 0 0 0 0 0 0 0 0 0 22 30 21
39 0 270 71 0 208 52 74 120 60 15 209 453 574 707 803 888 774 547 341 284 353 435 209 0 0 0 0 0 0 0 0 0 0 5 0 0 0 0 0 0 0 0 0 0 0 13 37 30
18 27 29 130 268 490 7 0 161 40 0 41 494 488 679 587 510 182 22 0 0 8 37 0 0 0 0 0 0 0 0 0 0 0 2 0 0 0 0 0 0 0 0 0 0 0 8 36 10
3 2 146 40 41 18 2 22 166 45 1 22 448 455 531 443 279 13 0 0 0 0 0 0 0 0 0 0 0 0 1 4 1 1 0 0 0 0 0 0 0 0 0 0 1 6 2 6 9
75 0 0 0 228 255 175 22 0 0 0 1 153 490 382 418 139 4 0 0 0 0 0 0 0 0 0 0 0 3 13 6 10 9 2 0 0 0 0 0 0 0 0 1 0 0 0 1 0
2 80 19 544 3 74 373 19 0 0 0 0 0 249 327 344 141 2 0 0 0 2 1 0 0 0 0 5 1 9 11 12 5 12 0 0 0 0 0 0 0 0 0 0 0 0 6 1 0

GFSSGP_con_mucape_039.txt.gz
CAPE
0 0 0 0 0 0 0 0 777 796 720 486 840 788 805 878 808 477 494 386 268 529 503 528 578 806 885 915 787 605 453 266 190 155 113 68 83 64 138 138 66 39 0 0 0 0 0 0 0
0 0 0 0 0 0 0 22 616 740 706 514 440 563 785 1016 942 804 487 510 297 416 351 398 594 787 869 791 627 488 287 225 184 130 60 140 85 58 141 170 89 61 0 0 0 0 0 0 0
0 0 0 0 0 0 0 527 440 709 621 424 178 166 509 924 865 768 535 531 148 199 315 587 668 683 750 657 581 371 263 210 139 104 111 67 41 45 47 205 95 61 0 0 0 0 0 0 0
0 0 0 0 0 0 0 676 562 453 364 420 207 214 490 562 676 742 511 344 233 199 356 504 512 594 775 756 551 318 229 125 116 165 219 91 100 84 79 211 155 6 0 0 0 0 0 0 0
0 0 0 0 0 9 374 613 540 366 266 301 159 91 140 710 828 852 539 331 180 313 340 328 326 538 750 796 474 311 215 163 179 244 246 219 72 55 76 243 201 28 0 0 0 0 0 0 0
0 0 0 0 0 0 486 520 386 176 124 232 166 68 2 138 673 615 468 343 223 214 189 141 244 443 526 598 391 265 219 213 232 248 275 232 220 246 234 287 243 56 0 0 0 0 0 0 0
0 0 0 0 0 314 517 430 284 99 96 163 144 442 112 0 489 342 409 284 65 67 92 154 343 371 385 351 249 222 212 218 256 267 251 253 257 287 326 326 241 27 2 0 0 0 0 0 0
0 0 0 0 0 321 187 166 206 115 91 245 200 372 135 73 70 199 168 32 49 112 99 366 223 195 203 239 212 170 158 166 162 138 110 124 141 164 87 188 201 39 0 0 0 0 0 0 0
0 0 0 0 119 313 368 282 140 80 83 161 560 488 293 126 53 47 7 31 43 124 132 149 173 161 150 154 160 136 145 84 85 88 57 26 5 6 0 0 11 0 0 0 0 0 0 0 0
0 0 0 0 146 91 144 186 83 16 49 636 289 746 310 343 187 22 21 19 7 87 201 206 186 100 81 88 48 37 33 4 22 61 70 71 58 15 0 0 0 0 0 0 0 0 0 0 0
0 0 2 40 213 137 38 3 7 31 0 93 490 540 158 84 83 59 51 24 18 30 169 236 207 38 1 1 1 3 3 0 12 116 144 173 73 4 0 0 0 0 0 0 0 0 0 0 0
0 0 0 224 203 121 19 41 21 6 92 898 654 558 330 384 266 210 123 26 36 110 123 198 160 4 0 0 13 147 169 157 221 309 427 252 285 200 135 4 1 0 0 0 0 0 0 0 0
0 0 140 351 260 105 31 12 2 3 1245 1231 1042 1020 926 810 472 377 152 165 98 149 194 214 72 0 0 12 158 196 348 352 475 468 420 398 314 156 16 0 0 0 0 0 0 0 0 0 0
1 17 113 186 84 66 2 26 0 7 231 1197 944 1077 1056 728 430 288 179 192 207 242 243 191 17 3 172 347 322 366 431 475 549 574 495 335 197 155 32 4 0 0 1 0 0 0 0 0 0
15 18 122 48 33 9 1 20 18 10 297 1134 992 1077 1029 835 715 421 244 167 142 90 9 15 25 246 373 326 263 313 321 334 361 122 36 55 12 1 0 6 0 0 0 0 0 0 0 0 0
0 2 4 3 28 3 1 4 34 34 540 963 967 675 466 645 750 307 180 142 75 12 0 29 205 432 343 250 159 163 87 0 5 0 8 4 0 7 0 0 0 0 0 0 0 0 0 0 0
0 0 0 1 16 10 1 18 1 414 721 605 577 261 250 217 162 162 147 92 30 14 3 114 431 468 288 222 128 41 0 0 0 0 4 4 2 0 0 0 0 0 0 0 0 0 0 0 0
0 0 0 0 30 45 14 0 0 69 202 218 270 100 138 67 78 67 41 51 93 118 125 430 505 471 315 166 35 10 0 0 0 0 0 0 6 8 1 0 0 0 0 0 0 0 0 0 0
0 0 0 0 0 28 0 0 0 0 118 150 132 41 1 14 9 0 14 84 145 181 259 475 451 332 117 59 32 60 9 1 0 0 0 0 0 0 0 0 0 0 0 0 0 0 0 0 0
0 0 0 0 2 2 5 0 2 0 74 224 175 164 113 29 7 10 1 143 261 335 412 477 516 275 143 44 52 76 7 0 0 0 0 0 0 0 0 0 0 0 0 0 0 0 0 0 0
0 2 2 0 0 0 0 0 0 0 0 149 294 295 305 190 171 187 149 360 418 456 517 520 558 401 130 48 70 27 0 0 0 0 0 0 0 0 0 0 0 0 0 0 0 0 0 0 0
0 0 8 9 0 3 6 9 6 0 0 4 299 344 358 338 385 371 321 468 713 656 715 675 558 461 162 195 203 3 0 0 0 0 0 0 0 0 0 0 0 0 0 0 0 0 0 0 0
0 0 0 1 2 2 0 0 0 0 0 4 3 266 352 321 455 554 494 587 862 812 814 638 569 410 207 329 35 0 0 0 0 0 0 0 0 0 0 0 0 0 0 0 0 0 0 0 0
20 11 12 20 1 0 15 0 4 0 0 11 19 171 183 322 510 606 622 661 859 841 821 745 572 336 456 485 4 0 0 0 0 0 0 2 2 0 0 0 0 0 0 0 0 0 0 0 0
5 2 2 5 3 17 19 0 0 0 1 0 0 91 297 423 488 658 710 826 789 671 651 492 460 464 427 75 70 1 0 0 1 5 5 0 3 4 2 1 0 0 0 0 0 0 0 0 0
15 0 3 0 0 0 16 17 0 10 27 61 51 18 303 687 674 812 884 867 671 529 419 598 637 469 144 137 87 4 7 8 8 8 2 4 6 16 2 0 0 0 0 0 0 0 0 0 0
24 10 5 2 0 4 12 10 27 12 98 132 96 90 576 672 688 737 752 763 839 792 701 630 185 73 60 59 4 0 7 14 21 8 4 8 10 13 16 0 0 0 0 0 0 0 0 0 0
19 4 49 2 0 15 0 10 24 7 65 380 381 515 631 669 679 686 703 639 696 539 482 371 256 104 2 0 0 0 4 7 6 12 15 5 16 0 0 0 0 0 0 0 0 0 0 0 0
6 3 4 1 0 31 28 0 12 0 4 59 485 549 628 578 515 488 371 219 98 35 55 89 72 0 1 0 0 1 7 17 22 6 22 31 0 2 0 0 0 0 0 0 0 0 0 0 0
6 105 57 0 0 0 0 0 0 0 0 0 10 422 513 502 406 278 168 2 0 0 0 0 0 0 0 0 0 0 19 24 13 30 32 6 6 0 0 0 0 0 0 0 0 0 0 0 0

GFSSGP_con_mucape_042.txt.gz
CAPE
1 0 0 0 0 0 0 0 103 677 642 899 911 896 922 935 717 455 658 447 549 1025 742 607 622 784 837 788 644 385 234 69 59 85 138 112 136 20 104 59 24 7 0 0 0 0 0 0 0
0 0 0 0 0 0 0 1 415 738 632 716 596 814 906 1129 898 719 694 561 647 762 598 525 633 724 802 662 476 254 117 65 126 114 128 202 151 20 64 116 71 45 0 0 0 0 0 0 0
0 0 0 0 0 0 0 198 671 717 711 526 425 555 824 1149 1029 852 772 594 628 581 470 623 579 615 687 565 325 200 154 137 207 214 184 139 53 31 27 153 96 72 0 0 0 0 0 0 0
0 0 0 0 0 3 0 50 751 742 607 374 249 561 762 950 1067 1076 721 585 652 462 529 585 574 531 629 501 321 208 140 155 230 264 260 124 52 36 65 169 125 40 0 0 0 0 0 0 0
0 0 0 0 0 0 502 254 527 387 446 393 247 123 652 1035 843 811 708 547 513 533 458 364 451 540 493 421 314 214 185 238 268 275 271 205 49 36 71 155 106 48 0 0 0 0 0 0 0
0 0 0 0 1 611 486 510 295 230 366 370 298 187 369 1035 755 587 489 422 305 186 131 194 259 355 312 285 258 200 228 282 273 262 237 237 222 184 191 139 108 51 9 0 0 0 0 0 0
0 0 0 0 1 278 605 429 247 111 54 182 138 177 268 891 586 525 363 242 84 95 88 51 176 349 278 228 207 161 190 220 228 199 199 219 225 258 281 194 72 27 0 0 0 0 0 0 0
0 0 0 0 0 56 369 263 273 120 45 263 350 292 21 519 411 434 219 126 33 21 39 118 79 170 281 180 156 163 164 167 133 131 145 148 182 207 232 156 57 5 0 0 0 0 0 0 0
0 0 0 0 0 215 329 234 197 194 144 722 830 426 154 422 169 153 103 59 29 60 125 120 66 206 242 120 96 129 173 123 121 123 81 8 0 0 2 4 6 0 0 0 0 0 0 0 0
0 0 1 0 90 151 329 257 77 51 639 514 503 230 206 88 131 19 93 8 3 4 4 104 138 190 155 86 42 22 32 18 8 5 0 9 0 0 0 0 0 0 0 0 0 0 0 0 0
0 0 1 12 46 52 184 136 64 17 43 245 225 169 48 36 42 7 18 2 0 66 45 131 166 131 70 34 4 0 0 23 47 39 14 21 13 0 0 0 0 0 0 0 0 0 0 0 0
0 0 0 87 79 90 111 114 27 35 105 132 432 101 84 122 81 27 22 18 28 48 118 169 106 40 7 0 0 0 0 27 120 122 115 117 25 58 3 0 0 0 0 0 0 0 0 0 0
0 2 37 186 171 189 142 52 20 900 855 629 292 130 99 105 93 29 62 32 11 25 103 151 33 11 3 0 0 5 8 42 181 319 318 286 204 121 0 0 0 0 0 0 0 0 0 0 0
20 43 215 268 240 142 17 0 0 755 1077 695 346 199 213 177 306 120 85 96 45 41 90 240 70 4 3 34 151 148 188 340 404 390 322 209 181 42 7 3 0 0 0 0 0 0 0 0 0
23 78 187 206 95 18 0 0 6 357 954 985 982 918 893 521 444 197 180 104 94 167 240 250 40 5 124 163 202 320 444 433 488 427 308 255 177 64 42 0 0 0 0 0 0 0 0 0 0
0 23 168 150 31 1 0 0 13 54 892 689 752 953 834 609 454 304 238 172 298 259 257 199 106 147 231 231 333 455 335 370 296 0 0 27 43 0 0 0 0 0 0 0 0 0 0 0 0
2 0 5 65 42 20 1 0 30 51 391 867 756 841 786 653 484 309 327 330 351 340 278 137 255 264 315 362 311 311 191 84 0 0 0 0 0 0 0 0 0 0 0 0 0 0 0 0 0
0 0 1 0 32 35 22 3 25 254 375 776 756 643 575 639 628 495 394 386 342 207 54 220 357 341 383 381 280 110 31 0 0 0 0 0 0 0 0 0 0 0 0 0 0 0 0 0 0
6 0 0 5 0 48 25 3 0 280 677 729 727 585 461 656 717 475 381 344 227 131 102 237 392 392 357 299 204 84 40 3 0 0 0 0 0 0 0 0 0 0 0 0 0 0 0 0 0
0 0 0 0 2 49 25 8 17 43 310 664 619 240 306 424 368 440 372 240 157 195 229 219 347 425 446 309 168 35 50 7 1 0 2 8 0 0 0 0 0 0 0 0 0 0 0 0 0
2 0 0 0 2 5 25 6 1 1 0 210 453 179 186 166 246 189 162 120 180 244 295 291 423 482 485 217 78 56 73 28 16 2 0 0 0 0 0 0 0 0 0 0 0 0 0 0 0
0 0 0 0 2 1 0 0 0 0 0 1 184 168 179 169 109 57 67 105 151 265 297 359 457 465 270 175 70 46 81 32 11 0 0 0 0 0 0 0 0 0 1 0 0 0 0 0 0
0 0 0 0 0 0 0 0 0 0 0 0 86 228 268 281 263 113 90 145 181 295 349 423 486 467 387 290 130 58 63 2 0 0 0 0 0 0 0 0 0 0 2 1 0 0 0 0 0
0 3 0 1 0 0 0 0 0 0 0 0 0 138 294 344 348 233 217 325 281 330 411 607 602 649 586 250 203 196 81 1 0 0 0 0 3 6 0 0 0 0 5 3 0 0 0 0 0
0 2 0 0 0 0 2 0 3 0 0 0 1 20 99 362 414 389 331 566 628 640 548 550 627 540 406 173 340 231 31 17 1 18 14 9 8 1 20 0 1 0 1 0 0 0 0 0 0
4 0 0 0 0 0 0 0 10 1 22 6 0 0 0 78 378 460 504 724 860 904 794 731 673 549 423 350 576 150 20 16 56 35 28 29 34 23 8 0 0 0 3 0 0 0 0 0 0
4 0 6 6 0 0 0 0 1 42 8 18 30 3 173 363 422 561 669 732 804 860 786 655 558 562 341 531 139 32 42 95 73 52 63 54 18 34 0 10 16 0 0 0 0 0 0 0 0
0 0 12 18 0 0 0 0 4 2 46 197 102 72 481 644 710 773 811 868 867 833 529 403 473 446 511 228 122 131 87 60 54 62 58 46 34 8 3 12 0 2 0 0 0 0 0 0 0
0 0 0 11 0 0 16 0 47 0 72 268 122 116 577 638 686 820 915 925 787 703 628 654 570 462 230 104 120 71 52 35 36 43 43 43 4 9 21 1 1 0 0 0 0 0 0 0 0
0 5 32 31 0 0 0 0 0 0 0 223 381 361 584 670 701 737 775 800 852 831 658 568 424 266 100 72 80 54 34 27 62 51 41 25 12 6 11 0 0 0 0 0 0 0 0 0 0

GFSSGP_con_mucape_045.txt.gz
CAPE
0 0 0 0 0 0 0 0 0 466 692 988 1009 950 909 896 706 428 695 533 902 1063 880 776 735 827 732 600 411 201 103 8 5 29 128 142 130 97 56 39 23 25 7 0 0 0 68 245 264
0 0 0 0 0 0 0 0 131 229 862 945 715 938 950 1016 1178 817 759 759 1059 993 789 658 734 745 704 502 298 141 37 23 78 170 118 127 17 87 113 97 62 36 46 3 0 0 0 24 259
0 0 0 0 0 0 0 4 368 834 631 499 477 898 847 991 760 636 690 748 1063 860 610 602 660 632 599 418 184 110 134 160 172 230 130 142 52 46 57 134 72 42 38 1 0 0 0 0 41
0 0 0 0 0 0 0 308 509 708 425 324 469 507 819 942 969 755 753 978 910 801 569 384 483 541 514 378 289 219 251 219 234 262 228 179 71 45 106 142 80 57 28 0 0 0 0 0 0
0 0 0 0 0 0 399 457 873 422 305 260 308 574 642 1034 979 1011 794 778 862 756 526 405 372 492 534 357 277 302 318 307 346 342 250 204 151 83 153 162 111 53 21 0 0 0 0 0 0
0 0 0 0 0 305 545 656 448 233 210 159 421 415 639 854 792 979 725 624 575 482 395 160 186 283 428 365 264 311 401 393 370 326 244 236 179 156 131 123 87 64 24 11 0 0 0 0 0
0 0 0 0 1 0 607 490 349 177 165 165 117 141 435 823 831 642 588 449 375 274 163 14 48 215 374 330 244 293 399 414 359 301 287 252 197 149 136 92 49 39 10 0 0 0 0 0 0
0 0 3 0 1 0 257 533 351 204 67 279 301 119 283 578 671 617 533 171 124 13 22 17 8 188 251 230 243 275 349 356 338 309 242 216 247 190 137 86 33 0 0 0 0 0 0 0 0
0 2 2 0 0 15 432 445 382 566 639 517 660 274 266 818 469 219 204 126 32 4 60 18 17 135 190 166 209 329 372 303 219 212 171 47 29 18 0 3 0 0 0 0 2 0 0 0 0
0 3 0 0 0 136 403 333 179 390 489 690 558 360 709 640 194 78 49 32 8 1 4 7 19 49 165 83 102 138 127 70 36 20 16 2 0 0 0 0 11 0 0 0 0 0 0 0 0
0 0 0 0 0 43 282 330 133 375 418 295 413 888 772 577 786 470 90 78 27 16 0 110 45 200 182 85 81 61 39 8 3 6 5 1 0 0 0 0 0 0 0 0 0 0 0 0 0
0 0 0 0 132 93 193 91 76 68 132 342 305 394 707 333 385 229 67 35 36 2 8 76 82 216 161 75 27 15 0 7 18 21 47 34 0 0 0 0 0 0 0 0 0 0 0 0 0
0 5 52 86 119 190 194 151 539 852 526 132 56 242 277 175 171 48 29 5 0 3 41 146 162 181 102 36 6 0 27 87 157 134 163 119 39 43 3 1 0 0 0 0 0 0 0 0 0
38 119 309 265 261 154 66 219 80 711 501 287 89 116 207 134 131 54 76 12 13 51 106 134 116 78 30 6 1 0 29 102 268 385 314 327 195 93 27 0 0 0 0 0 1 4 0 0 0
50 221 297 289 211 86 14 0 132 779 594 265 275 258 227 153 101 81 117 24 12 29 164 114 189 60 1 0 1 16 146 260 359 406 317 182 194 97 66 20 0 0 0 0 2 0 0 0 0
76 133 182 284 89 8 0 0 130 858 725 545 202 200 283 341 227 184 207 46 28 41 122 208 307 45 6 19 29 136 329 473 480 421 285 254 215 219 90 38 11 0 0 0 0 0 0 0 0
20 13 74 181 97 3 6 17 66 990 654 596 917 834 763 491 550 281 210 72 43 70 176 266 331 33 17 54 206 283 476 529 449 292 37 54 153 68 16 0 3 2 0 0 0 0 0 0 0
20 0 4 119 94 42 15 33 42 292 667 429 965 982 911 721 591 518 261 210 131 203 315 332 316 15 30 145 263 427 456 429 262 2 0 0 5 2 0 0 1 0 0 0 0 0 0 0 0
18 0 1 1 1 29 33 26 52 155 639 644 514 868 893 742 609 567 435 302 236 369 396 409 370 61 121 293 338 406 385 272 54 0 0 0 6 0 0 0 0 0 0 0 0 0 0 0 0
3 0 0 0 8 8 31 22 9 263 298 552 633 733 667 736 671 561 473 396 408 490 436 315 165 200 355 390 374 381 275 102 29 9 0 0 0 0 0 0 0 0 0 0 0 0 0 0 0
0 0 0 0 0 4 3 14 1 1 326 545 543 702 647 658 651 682 512 516 500 501 428 259 176 295 364 422 416 363 230 71 53 30 9 3 0 0 0 0 0 0 0 0 0 0 0 0 0
0 2 0 0 0 0 1 0 0 0 0 357 668 507 634 582 690 745 678 497 463 435 321 153 118 270 318 399 383 319 199 41 48 65 50 33 18 0 0 0 0 0 0 0 0 0 0 0 0
0 0 0 0 0 0 2 0 0 0 0 0 94 540 518 352 529 743 647 528 443 442 165 164 192 186 327 396 441 321 113 57 58 69 55 19 0 0 0 0 0 0 3 18 14 8 0 0 0
0 0 0 0 0 0 0 0 0 0 0 0 0 154 445 282 315 360 407 416 347 319 107 106 179 257 250 487 439 221 147 61 65 17 4 0 0 0 0 1 10 14 1 1 5 2 0 0 0
0 0 0 0 0 0 0 0 0 0 0 0 0 0 80 115 156 189 248 210 130 74 114 113 190 291 401 466 452 268 140 136 89 36 0 0 0 1 4 20 28 24 21 5 3 2 0 1 0
0 0 0 0 0 0 0 0 0 0 0 0 0 0 0 112 148 185 177 198 158 202 146 183 255 272 461 601 665 338 139 324 152 62 35 32 47 19 14 34 26 1 2 6 14 0 0 0 0
0 0 0 0 0 0 0 0 0 8 19 1 0 0 1 19 138 145 230 302 323 311 201 244 404 402 528 652 584 265 188 291 183 51 49 56 35 25 4 7 1 0 7 0 0 0 0 0 0
0 0 0 0 0 0 0 0 0 10 4 26 30 43 40 34 82 237 315 379 486 462 488 604 601 547 593 585 438 254 328 160 145 64 79 45 41 4 5 9 1 12 8 3 0 0 0 0 0
4 0 0 0 0 0 0 0 0 6 0 0 21 14 196 420 491 520 516 536 630 735 779 834 793 706 631 494 349 343 153 98 64 39 56 66 55 11 21 5 10 15 20 1 0 0 0 0 0
0 1 0 0 0 0 0 0 0 11 1 0 3 132 420 641 690 669 696 730 763 811 881 904 748 575 574 415 353 157 86 92 70 56 76 72 80 59 4 10 5 4 1 0 0 0 0 0 0

GFSSGP_con_mucape_048.txt.gz
CAPE
0 0 0 0 0 0 0 0 0 0 633 1138 1104 1069 847 646 565 354 666 711 962 884 865 829 825 808 553 369 226 130 96 53 52 97 151 152 108 73 79 56 67 72 71 253 341 263 181 249 354
0 0 0 0 0 0 0 0 0 163 748 856 714 852 944 924 628 819 679 940 1064 971 780 704 813 674 491 302 185 87 68 87 196 164 123 146 142 149 142 87 80 65 76 52 200 404 491 452 393
0 0 0 0 0 0 0 0 21 824 836 628 675 804 720 778 764 640 691 1039 1085 903 706 627 680 522 419 284 153 145 185 289 251 218 147 109 180 175 165 91 95 88 44 4 3 79 116 72 63
0 0 0 0 0 0 0 0 150 675 440 424 495 564 684 778 1105 952 1035 1174 1027 903 684 543 458 418 340 301 256 288 296 341 265 217 236 228 198 142 191 108 92 109 28 0 0 0 1 0 0
0 0 0 0 0 0 110 514 784 588 412 240 242 544 582 861 1157 1045 1103 967 946 826 666 513 325 351 405 411 414 392 375 427 374 317 273 289 267 188 202 130 67 77 53 14 0 0 0 0 0
0 0 0 0 0 0 566 612 678 379 265 109 304 345 753 835 1141 1025 943 923 756 660 463 356 350 249 282 321 429 400 417 468 429 374 318 318 251 199 190 141 82 35 22 19 9 0 0 0 0
0 0 0 0 0 0 263 674 656 403 409 294 297 412 863 956 882 885 774 743 426 363 217 87 91 77 196 238 309 346 421 480 421 402 365 279 224 171 139 115 101 73 43 1 0 0 0 0 0
0 0 0 0 0 16 202 651 539 427 376 568 394 202 492 883 919 901 886 705 159 285 171 53 31 59 139 212 257 299 297 377 374 384 322 236 213 162 112 74 70 108 64 26 0 0 0 0 0
0 0 4 0 0 11 470 683 572 781 686 572 512 338 411 805 779 616 441 392 144 114 15 20 13 130 181 212 298 298 356 343 351 297 256 72 24 3 0 19 29 61 25 3 0 0 0 0 0
0 0 3 0 0 0 420 559 506 646 566 492 789 742 562 730 832 807 341 234 190 94 45 22 2 16 111 134 179 211 224 155 104 69 22 5 1 0 0 0 0 48 0 0 0 0 0 0 0
0 1 0 0 0 10 281 423 328 540 536 487 589 624 608 731 449 131 19 18 17 28 31 7 2 1 90 110 110 106 76 34 35 36 6 1 0 0 0 0 0 0 0 0 0 0 0 0 0
0 0 0 0 14 118 340 342 197 450 145 451 408 521 712 453 383 197 34 22 12 14 0 6 2 0 51 119 81 61 28 9 1 0 2 0 0 0 0 0 0 0 0 0 0 0 0 0 0
0 8 27 28 115 175 301 244 558 662 420 472 418 479 636 269 459 290 169 82 15 10 4 0 0 45 143 116 45 26 2 1 2 80 82 38 0 0 0 2 0 0 0 0 0 0 0 0 0
52 201 196 177 250 301 289 516 312 613 356 333 468 405 597 497 271 132 78 31 4 0 2 21 80 73 188 57 18 14 3 31 51 75 164 104 12 36 3 9 2 0 0 0 0 0 1 0 0
87 335 369 362 297 135 141 49 262 657 348 285 297 296 433 363 178 71 63 24 0 0 0 56 209 117 138 43 0 0 0 83 208 210 230 325 158 118 84 30 25 0 0 7 2 3 0 0 0
127 157 193 303 134 24 0 1 537 648 511 335 215 434 286 209 169 97 103 22 10 17 92 123 190 125 90 14 0 0 33 104 199 397 345 294 254 154 116 80 50 25 10 7 0 0 0 0 0
57 33 94 242 162 17 2 0 284 798 609 497 334 306 332 255 163 177 177 15 6 10 88 214 235 236 94 2 0 0 26 212 311 283 281 167 193 158 149 26 30 9 23 0 0 0 0 0 0
26 14 3 37 108 129 36 7 106 894 704 560 253 252 315 384 271 270 192 113 5 3 52 155 212 312 77 0 0 5 108 322 297 299 308 173 121 69 45 32 17 16 21 0 0 0 0 0 0
19 21 0 15 30 3 46 42 8 719 812 592 675 587 633 634 417 488 303 206 61 11 91 137 218 307 45 0 10 100 288 386 343 237 91 0 0 1 3 6 9 25 0 0 0 0 0 0 0
8 7 0 1 0 0 0 3 6 139 833 470 769 840 841 836 760 589 598 401 228 64 88 184 300 318 109 29 46 152 276 350 314 232 82 12 1 1 7 15 18 0 0 0 0 0 0 0 0
14 7 1 0 0 0 0 0 6 0 59 556 404 536 614 703 757 705 685 640 442 240 167 256 416 410 242 45 56 130 236 282 165 78 53 39 38 16 6 4 0 0 0 0 0 0 0 0 0
3 1 0 0 0 0 0 0 0 0 0 116 278 354 415 603 684 719 636 609 538 424 319 411 501 493 389 73 67 234 296 276 126 59 35 15 47 14 0 0 0 0 0 0 0 1 7 3 0
0 0 0 0 0 0 0 0 1 0 0 0 157 441 444 490 526 625 673 629 554 507 439 546 571 477 199 95 195 292 320 365 264 57 27 44 43 26 10 0 0 0 0 0 3 4 0 0 0
0 0 0 0 0 0 0 0 0 0 0 0 0 160 536 459 620 650 711 719 679 586 550 570 564 467 231 119 279 325 386 199 137 43 35 51 24 21 3 0 0 0 1 19 7 30 0 0 1
0 0 0 0 0 0 0 0 0 0 0 0 0 0 58 599 525 562 592 592 760 698 576 537 572 474 143 135 179 293 358 268 165 75 52 27 1 0 0 0 6 7 9 13 6 0 7 0 1
0 0 0 0 0 0 0 0 0 0 0 0 0 0 0 5 283 564 455 452 645 680 561 515 532 393 103 123 248 211 374 381 196 82 149 27 12 5 10 15 25 10 0 1 5 13 11 19 4
0 0 0 0 0 0 0 0 0 0 0 0 0 0 0 0 3 190 503 399 423 440 479 439 351 278 101 249 308 287 378 384 295 129 322 50 28 36 18 8 7 11 20 1 19 8 9 3 0
0 0 0 0 0 0 0 0 0 0 0 0 0 0 4 8 0 6 105 155 257 256 345 396 488 405 341 398 375 383 457 490 285 173 185 73 62 56 48 27 13 16 1 8 3 6 2 0 0
0 0 0 0 0 0 0 0 0 0 0 0 0 0 6 15 60 215 319 303 272 294 358 415 412 603 588 548 424 454 578 509 174 180 162 59 55 60 58 48 42 14 2 1 8 0 0 0 0
0 0 0 0 0 0 0 0 0 0 1 0 0 28 73 247 310 271 220 187 289 364 349 304 465 738 696 666 587 506 467 349 301 107 75 78 71 45 20 0 0 2 10 0 0 0 0 0 0

GFSSGP_con_mucape_051.txt.gz
CAPE
0 0 0 0 0 0 0 0 0 3 115 1057 1069 1247 1115 779 762 689 583 710 1128 924 805 754 783 716 555 367 265 222 252 196 168 233 226 147 129 139 152 149 348 774 589 460 215 450 382 173 53
0 0 0 0 0 0 0 0 0 168 480 617 682 865 1023 1025 768 687 750 771 1121 1005 815 778 699 537 433 288 257 286 219 200 258 253 208 181 170 189 190 150 316 798 866 615 428 515 397 124 72
0 0 0 0 0 0 0 0 0 806 763 677 700 774 891 808 860 753 787 1276 1323 1050 839 751 520 413 335 223 239 276 299 258 224 231 235 246 226 232 203 141 132 341 723 624 607 425 113 13 42
0 0 0 0 0 0 0 0 470 780 619 584 570 824 838 909 924 1099 1280 1366 1267 977 817 511 362 453 386 261 355 352 271 181 145 193 291 292 279 265 200 115 83 192 372 346 278 4 0 9 0
0 0 0 0 0 0 0 319 830 828 596 557 425 676 768 925 1243 1227 1323 1284 989 845 723 557 359 385 345 421 509 419 263 201 221 250 278 243 260 202 195 141 98 82 114 88 4 2 1 0 0
0 0 0 0 0 0 82 678 841 672 529 440 599 759 775 1044 1082 1246 1151 866 680 563 504 413 356 310 393 436 436 322 282 272 279 305 311 280 210 142 164 167 135 90 24 0 0 9 7 0 0
0 0 0 0 0 0 106 725 836 602 645 499 500 700 798 1020 1060 1125 1068 904 654 497 354 258 214 124 265 307 332 322 299 310 335 370 293 251 177 110 105 126 115 81 36 14 0 0 0 0 0
0 0 0 0 1 10 219 799 619 604 877 901 688 612 749 1007 937 1044 967 776 543 369 374 183 97 20 1 269 315 405 292 273 286 275 215 195 167 129 135 159 135 48 20 0 0 0 0 0 0
0 0 2 4 1 55 613 796 696 883 875 731 715 548 653 961 1030 885 669 343 452 147 224 175 70 69 0 249 328 420 405 246 209 189 172 74 22 1 0 24 108 92 4 0 0 0 0 0 0
0 0 6 0 0 2 461 562 770 966 765 638 816 917 848 902 901 738 283 273 255 69 150 70 3 3 37 140 276 321 314 223 152 115 87 74 56 6 0 11 59 23 0 0 0 0 0 0 0
0 0 0 0 0 10 206 511 572 897 841 729 869 827 803 949 523 574 119 136 100 89 58 35 73 11 1 69 142 198 243 170 101 85 66 53 49 41 0 2 0 0 0 0 0 0 0 0 0
0 0 0 3 8 114 371 554 508 606 404 503 910 724 712 827 272 4 14 40 30 43 42 78 5 10 6 113 196 181 115 83 76 64 81 32 17 10 0 0 0 0 0 0 0 0 0 0 0
0 19 31 29 78 174 374 374 414 667 706 687 671 527 379 120 21 13 4 7 10 4 14 5 4 2 36 118 120 91 96 79 96 78 117 1 0 0 0 0 0 0 0 0 0 0 0 0 0
26 233 198 111 186 350 335 660 518 650 703 610 437 381 280 346 256 20 17 10 6 5 4 2 0 2 60 175 101 121 105 60 74 99 151 28 0 0 0 1 2 1 0 0 0 0 0 0 0
45 234 337 274 356 214 343 250 205 589 653 535 429 244 450 513 362 98 34 10 0 0 0 0 0 21 160 190 69 77 39 17 27 64 105 101 2 25 19 32 41 14 10 0 4 9 0 0 0
69 108 207 290 303 104 149 19 432 614 552 463 390 456 186 445 266 120 51 32 7 2 0 3 23 107 149 189 46 10 34 105 110 75 100 135 127 78 48 60 58 23 14 29 20 9 0 0 0
20 19 62 186 215 112 48 9 322 809 508 451 353 308 300 365 261 130 67 18 0 2 7 21 193 306 157 133 28 30 55 123 172 131 189 210 207 125 96 65 44 16 17 31 34 2 0 0 0
5 10 18 51 92 172 101 34 240 903 717 673 491 376 511 392 267 179 138 70 16 13 43 126 295 282 141 67 6 12 29 69 43 96 122 214 110 86 82 64 14 10 31 29 15 0 0 0 0
1 0 7 1 11 1 2 18 20 878 820 749 504 403 521 460 351 243 163 136 35 27 69 112 280 267 286 129 27 30 33 47 80 147 125 146 124 81 51 50 41 17 19 9 0 0 0 0 0
0 0 11 3 2 0 0 6 26 334 948 799 776 482 461 524 547 369 302 188 116 72 97 138 227 273 283 231 44 34 35 15 73 169 187 100 28 10 1 2 2 4 11 4 0 0 0 0 0
0 0 0 0 0 1 0 1 10 27 444 699 668 794 620 633 778 717 552 390 265 142 118 122 209 273 268 249 49 44 23 60 157 235 132 41 45 9 12 14 2 4 2 0 0 0 0 0 0
0 0 0 0 0 0 0 0 0 8 14 142 751 608 782 733 778 877 831 703 539 389 162 130 185 203 233 329 50 49 48 80 176 162 110 26 49 23 39 55 1 0 0 0 0 0 0 3 0
0 0 0 0 0 0 0 0 2 2 0 0 38 566 638 618 771 831 840 870 800 719 565 266 199 162 300 432 328 80 51 83 113 193 107 36 38 37 95 53 0 0 0 0 0 0 4 0 2
0 0 0 0 0 0 0 0 2 0 0 0 0 10 340 489 405 731 901 770 675 683 673 541 355 308 389 504 519 444 149 150 153 128 155 94 49 39 60 27 3 3 0 0 0 0 0 18 6
0 0 0 0 0 0 0 0 12 0 0 0 4 3 17 376 400 408 634 723 679 691 685 631 557 483 520 567 497 378 124 87 281 226 131 116 51 60 34 12 11 4 6 0 11 3 0 1 1
0 0 7 0 0 0 0 0 0 0 0 13 0 0 0 88 229 505 454 621 594 725 798 795 725 614 645 652 586 400 102 192 295 281 215 127 42 57 24 20 8 1 17 4 19 20 2 0 0
0 0 0 0 0 0 0 0 0 0 3 1 3 5 0 0 0 98 495 598 562 635 682 743 842 720 648 616 607 458 213 204 194 155 180 106 65 45 27 18 32 24 39 40 23 10 0 0 0
0 0 0 0 0 0 0 0 0 0 0 0 0 0 14 22 9 5 0 77 310 533 561 543 711 665 622 502 458 453 299 206 176 157 205 151 90 77 21 4 63 43 28 31 31 16 2 2 0
0 0 1 2 0 0 0 0 0 0 0 0 0 0 0 10 22 22 66 136 234 266 263 305 371 401 409 344 425 291 231 196 190 207 234 217 70 63 52 44 55 33 22 0 3 3 1 0 0
0 0 2 20 0 0 0 0 0 0 0 0 0 0 28 117 160 126 123 171 241 254 294 313 317 319 305 220 198 310 255 254 229 275 140 69 96 57 71 67 22 19 22 20 0 0 0 0 0

GFSSGP_con_mucape_054.txt.gz
CAPE
0 0 0 0 0 0 0 0 0 1 149 928 1513 1118 711 1342 1381 820 961 1346 1301 1346 809 869 844 776 673 559 412 358 339 320 206 281 201 217 215 299 378 615 590 638 783 536 341 23 9 0 0
0 0 0 0 0 0 3 0 0 200 667 1075 1255 1576 1439 1113 1090 1079 1107 993 1484 1313 981 630 756 654 558 429 385 387 314 273 331 257 280 285 318 346 887 888 892 812 907 687 337 23 11 0 5
0 0 0 0 0 0 31 0 0 873 1229 1081 1415 1462 1446 1165 1318 999 956 1304 1416 1127 1036 833 626 560 470 423 412 337 359 309 249 284 359 403 331 392 580 813 784 835 1089 597 255 5 0 1 47
0 0 0 0 0 0 0 0 336 1096 1050 1130 1266 1448 1355 1399 1269 1463 1385 1488 1387 1134 879 478 368 323 471 484 453 430 335 216 225 300 383 454 343 318 365 503 945 1095 961 365 1 0 0 7 0
0 0 0 0 0 0 0 2 658 1110 1073 1006 1132 1346 1368 1512 1239 1510 1503 1431 1363 1050 797 431 303 325 383 581 534 413 237 228 270 316 352 371 343 257 201 323 547 712 483 94 0 0 0 0 0
0 0 0 1 0 0 0 82 908 1203 983 952 1067 1068 1377 1444 1227 1349 1201 819 781 769 714 437 251 315 315 455 395 265 195 231 281 282 314 342 301 243 229 188 216 185 186 135 13 0 0 0 0
0 0 0 0 0 0 28 789 942 1110 962 932 989 914 1481 1148 1044 1265 1120 893 644 471 190 144 180 241 201 222 262 235 318 303 279 265 262 241 228 214 204 185 130 73 67 108 14 0 0 0 0
0 0 0 0 0 4 120 591 1035 1030 1155 1270 1142 1026 1327 1196 1361 1171 1136 886 698 478 173 71 41 206 233 242 235 191 322 315 284 264 231 207 198 203 188 142 139 114 8 0 0 0 0 0 0
0 0 11 2 0 15 290 115 1064 1251 1316 1343 1237 1255 901 1051 945 907 766 733 524 408 262 244 131 141 125 10 219 308 312 309 247 191 133 76 40 31 16 78 133 100 32 0 0 0 0 0 0
0 1 5 0 0 13 5 141 644 1323 1293 1297 1339 919 800 1301 797 534 461 276 285 234 195 201 183 122 9 1 43 290 304 229 154 109 65 25 45 23 45 76 80 14 0 0 0 0 0 0 0
0 2 0 0 0 1 10 145 881 1171 1087 1153 1297 896 765 595 619 708 512 120 76 74 89 141 22 20 6 4 0 123 350 232 163 185 68 50 39 32 19 7 0 0 0 0 0 0 0 0 0
0 0 0 0 0 26 73 794 909 1011 1060 926 1218 750 664 668 750 400 0 14 25 16 11 10 7 4 0 11 4 25 132 244 173 126 128 96 59 19 27 0 0 0 0 0 0 0 0 0 0
0 10 108 42 63 182 720 840 757 1068 1188 1415 937 718 594 514 316 18 10 4 8 25 33 6 7 6 5 95 39 147 240 172 101 133 110 84 76 23 0 5 0 0 0 0 0 0 0 0 0
6 160 491 230 358 565 685 952 942 1257 1289 1260 935 839 535 317 128 80 12 0 5 11 7 2 3 6 8 73 64 146 224 144 193 132 140 98 64 77 15 0 0 0 0 0 0 0 0 0 0
11 225 550 550 543 503 638 681 519 1268 1242 1145 935 805 580 366 69 76 87 14 0 0 0 12 3 88 128 180 164 201 112 74 64 163 346 164 73 68 23 0 8 15 7 21 1 0 0 0 0
44 259 136 591 551 186 311 91 608 1197 1211 1069 986 819 602 417 216 114 50 33 6 18 20 15 3 80 137 249 237 129 67 65 67 296 431 381 225 52 43 21 24 22 29 20 30 1 0 0 0
44 71 105 226 197 174 213 163 468 1185 1105 919 838 731 571 435 330 185 126 73 23 14 12 5 6 36 137 355 362 55 167 103 68 281 397 384 521 317 82 29 20 48 44 3 4 4 4 0 0
44 51 87 104 139 228 217 179 137 1160 860 741 931 766 824 692 466 319 265 156 123 84 11 0 57 157 338 428 474 199 66 124 246 490 442 367 478 479 226 73 25 33 0 1 4 16 4 0 0
4 37 59 78 71 54 56 88 90 901 1009 849 1036 794 678 934 755 355 321 208 139 118 121 149 194 298 569 507 385 197 77 153 312 492 496 226 272 253 231 74 31 12 0 4 41 11 0 0 0
13 43 26 45 10 10 49 61 64 499 1057 921 948 987 841 1003 737 316 373 266 160 123 201 221 254 454 641 496 349 128 46 117 260 397 142 114 95 58 54 12 3 0 0 10 19 11 0 0 0
33 35 28 27 8 1 24 51 69 112 693 941 1058 988 694 775 927 762 349 364 320 208 287 392 514 675 842 627 481 209 159 211 270 269 210 84 72 48 20 4 2 2 1 6 22 3 0 0 0
11 20 2 8 25 61 7 52 25 66 179 528 880 1166 1135 575 777 1080 857 511 378 342 298 301 347 471 780 821 516 219 112 135 245 296 94 69 58 42 32 15 9 22 38 9 3 0 0 0 0
16 0 10 18 48 48 32 43 81 2 37 68 243 758 1150 1184 763 998 1265 1130 872 608 473 475 468 501 651 823 836 523 211 127 416 438 189 63 80 44 38 19 33 73 51 13 0 0 0 4 4
0 0 1 36 73 81 32 40 70 63 43 36 20 109 577 1019 1125 869 1115 1410 1464 1416 1249 1063 722 580 690 770 884 943 688 552 703 460 274 115 50 49 55 56 67 74 38 20 6 2 0 0 1
0 38 91 108 118 109 0 16 60 26 19 43 82 140 81 480 1093 1116 1028 1273 1491 1594 1669 1457 1181 942 844 944 1008 1063 1017 881 731 519 296 78 56 42 58 88 48 40 21 8 3 0 0 6 4
0 55 114 54 95 91 0 29 70 6 3 4 133 73 12 63 433 1034 1086 1257 1405 1530 1679 1562 1368 1271 1047 1133 1137 1073 862 885 667 412 201 106 127 31 41 32 39 14 5 3 6 14 4 3 6
2 15 30 56 12 137 38 4 2 0 0 15 57 89 16 14 255 503 834 1165 1399 1531 1525 1586 1504 1378 1314 1049 1152 941 786 578 555 259 126 114 133 155 75 31 5 23 6 6 14 8 2 0 0
1 15 32 79 59 51 35 0 20 0 0 0 0 31 252 162 109 176 397 821 1148 1353 1375 1473 1436 1350 1373 1200 1058 859 673 570 420 256 177 80 80 112 98 53 5 3 0 24 7 4 11 0 0
4 9 7 66 61 61 24 34 0 0 0 0 8 92 170 359 288 276 213 280 502 799 961 1121 1207 1247 1259 1218 1139 951 934 746 223 148 109 88 99 141 98 37 13 27 14 23 1 0 0 0 0
70 59 41 80 56 66 106 42 0 0 0 0 0 6 233 494 655 469 493 522 549 638 749 878 991 1080 1110 1165 1170 1023 590 225 236 141 74 80 74 39 33 66 91 49 58 25 13 0 0 0 0

GFSSGP_con_mucape_060.txt.gz
CAPE
0 0 0 0 0 0 0 0 0 0 146 247 357 238 185 102 211 393 232 68 9 247 1434 1678 1465 1483 1422 1216 979 857 810 766 748 647 662 709 789 1050 1039 836 450 334 122 2 0 0 0 0 0
0 0 0 0 0 0 0 0 2 46 312 289 120 210 7 0 838 1101 604 90 0 956 1324 1714 1533 1460 1350 1083 945 831 735 694 634 597 602 668 795 1033 1074 830 409 332 191 1 0 0 0 0 0
0 0 0 0 0 0 0 0 0 3 193 351 362 139 327 703 853 1164 1257 1274 1584 1244 1237 1610 1408 1218 1118 929 837 740 709 567 531 567 738 821 945 1145 1122 833 376 362 173 13 0 0 0 0 0
0 0 0 0 0 0 1 4 0 0 100 349 225 443 179 612 1117 1517 1409 1276 1677 1246 1343 1101 1027 1091 911 905 835 737 499 470 506 602 1031 1246 1202 1182 1067 775 408 378 141 0 0 0 0 0 0
0 0 0 0 0 0 5 0 0 0 252 229 142 37 24 75 1395 1222 1594 1286 1355 789 768 678 848 886 813 884 864 612 510 517 587 919 1194 1272 1352 1113 946 730 319 237 121 0 0 0 0 0 0
0 0 0 0 0 4 1 0 0 18 124 54 30 0 38 734 772 911 1564 1430 1206 699 419 450 463 411 516 619 572 462 480 573 619 740 969 1259 1170 1021 907 384 230 171 84 6 0 0 0 0 0
0 0 0 0 3 2 4 0 37 285 129 77 8 1 618 636 599 947 595 706 702 306 187 0 53 166 185 97 209 340 428 468 450 398 506 661 692 572 378 271 204 135 74 19 1 0 0 0 0
0 0 0 0 5 0 8 1 14 145 18 4 96 547 183 194 913 972 832 728 532 295 125 25 0 15 7 4 98 184 233 254 275 210 324 493 452 333 270 209 173 106 55 2 0 0 0 0 0
0 0 0 15 9 5 0 0 0 0 248 277 884 1042 864 650 868 983 501 462 493 352 230 76 37 0 0 2 61 129 242 250 243 196 130 206 211 100 77 177 154 113 58 5 0 0 0 0 0
0 0 0 0 0 0 0 0 0 51 193 22 309 577 933 1007 982 713 406 531 518 236 194 189 109 15 1 0 2 3 99 110 201 97 28 3 32 30 83 118 103 85 35 0 0 0 0 0 0
0 0 0 0 0 0 0 0 0 5 31 21 249 578 593 576 532 388 290 245 290 239 148 197 110 58 6 0 0 2 58 81 124 238 163 115 67 59 92 23 10 1 0 0 0 0 0 0 0
0 0 0 0 0 0 0 4 175 126 61 72 563 715 679 681 277 276 166 110 259 59 75 47 111 31 14 10 27 1 0 102 142 223 251 248 191 103 46 33 4 0 0 0 0 0 0 0 0
0 0 0 0 6 0 0 19 158 153 263 783 772 725 612 489 105 6 0 4 64 12 67 60 19 13 26 8 11 3 12 112 163 202 263 278 226 165 76 41 4 0 0 0 0 0 0 0 0
0 0 0 18 30 41 5 86 15 79 505 921 828 725 549 173 30 0 0 1 13 2 16 18 51 35 14 10 0 3 1 36 89 253 250 249 217 355 121 172 59 19 0 0 0 0 0 0 0
0 0 0 0 0 1 129 71 15 0 25 568 703 591 324 161 5 0 0 0 0 0 25 13 49 43 6 6 27 23 6 66 169 273 293 253 283 341 220 189 195 52 0 0 0 0 0 0 0
0 0 1 5 0 4 88 62 15 0 124 345 413 403 352 74 34 2 0 0 1 0 2 0 0 0 0 0 7 18 10 135 147 231 243 227 328 309 280 136 150 44 6 0 1 7 3 0 0
0 0 9 24 3 41 82 34 0 14 156 339 110 78 560 217 91 17 1 0 0 0 0 0 0 1 0 2 0 1 77 99 84 53 229 304 306 295 220 208 95 122 2 0 8 3 5 0 0
1 0 19 13 39 40 30 21 21 143 145 498 193 10 594 318 103 66 9 0 0 0 0 4 4 0 0 0 0 38 74 79 100 91 304 413 368 179 243 170 165 132 14 12 9 12 12 4 3
2 0 0 14 13 9 52 21 34 72 52 302 531 172 380 809 280 96 44 5 0 0 1 1 0 2 0 0 0 18 62 111 102 62 167 427 393 417 333 197 204 140 50 25 5 10 0 3 6
0 0 0 21 15 10 6 1 14 111 158 307 444 619 528 638 504 145 59 44 0 0 0 0 0 0 3 10 4 43 1 19 88 43 141 445 552 419 359 344 301 181 63 38 0 14 14 8 7
0 0 0 6 0 2 5 0 2 1 94 165 565 898 400 817 581 272 111 60 0 0 0 0 0 0 0 72 35 17 0 0 0 37 68 386 405 419 391 477 403 139 121 40 1 6 26 32 10
15 9 0 0 20 20 5 7 23 7 23 163 343 867 624 536 746 394 201 142 137 34 11 0 0 7 5 17 34 7 21 11 2 34 77 347 404 294 198 189 100 84 15 11 0 15 6 43 15
0 10 3 4 0 21 19 2 26 18 27 98 341 391 812 529 750 640 369 234 245 205 94 0 0 11 80 74 235 148 151 39 44 69 154 396 330 170 39 14 1 17 7 20 39 7 2 21 21
0 9 0 0 0 17 11 16 53 29 27 59 160 226 648 620 905 788 605 492 339 261 303 197 238 241 236 188 252 579 546 351 113 139 178 369 271 131 13 2 1 41 36 32 37 19 30 9 0
0 5 22 60 79 94 16 42 166 3 0 101 57 142 441 668 601 865 776 629 622 438 353 414 383 422 435 578 754 687 637 865 317 399 528 346 264 263 193 52 37 21 14 22 16 8 18 0 0
0 0 56 14 33 126 79 62 35 22 4 9 0 3 212 451 700 597 810 751 660 729 620 505 502 472 526 567 710 984 775 704 708 531 528 452 346 244 186 89 52 30 25 63 10 4 8 0 0
0 36 16 59 23 74 138 60 86 11 0 0 0 32 169 194 461 825 540 1049 983 906 963 923 816 649 633 628 698 751 643 656 831 640 829 647 451 442 513 141 90 34 86 23 21 1 0 0 0
0 1 65 67 47 46 67 31 20 0 5 0 0 52 236 160 242 326 828 817 1226 1258 1314 1272 1133 1086 1076 1161 948 833 721 851 710 1132 1001 683 787 626 455 170 97 31 83 47 1 4 12 7 2
0 0 48 68 82 139 145 66 18 1 0 0 0 8 57 218 384 321 515 958 1070 1423 1587 1789 1817 1696 1710 1532 1191 960 1044 1166 930 690 621 567 577 361 408 47 9 76 49 31 0 1 5 15 8
0 16 22 124 40 154 213 103 11 28 6 1 7 0 91 170 306 467 468 596 1078 1294 1464 1989 2054 1996 1806 1741 1427 1242 1099 1030 702 569 444 395 275 608 234 70 134 69 18 8 14 10 25 13 10

GFSSGP_con_mucape_063.txt.gz
CAPE
0 0 0 0 0 0 0 0 0 67 161 245 345 171 199 241 724 571 439 456 934 495 586 691 662 1578 1555 1391 1151 1018 1004 1021 940 870 807 1066 1138 934 597 369 193 115 2 0 0 0 0 0 0
0 0 0 0 0 0 0 0 0 149 294 310 281 250 162 908 1035 915 1063 1029 117 92 0 0 742 1053 1416 1287 1147 1048 1082 994 973 889 1010 1230 1050 732 471 271 158 165 5 0 0 0 0 0 0
0 0 0 0 0 0 0 0 0 33 367 337 287 307 779 554 529 725 1433 919 769 27 403 716 728 1108 1305 1191 1080 980 939 843 852 872 1210 1282 1121 745 500 270 214 225 0 0 0 0 0 0 0
0 0 0 0 0 0 0 0 0 0 234 216 478 359 317 890 1148 1222 1571 1508 1144 314 1212 938 824 969 1146 1120 996 924 749 697 755 844 1221 1431 1310 795 509 306 284 193 0 0 0 0 0 0 0
0 0 0 0 0 0 0 2 41 198 341 181 320 321 75 673 757 877 1026 1290 1145 1186 1087 818 841 840 972 1076 1021 780 741 765 796 940 1171 1367 1235 734 492 327 203 92 0 0 0 0 0 0 0
0 0 0 0 0 0 3 2 130 192 196 224 106 112 76 347 533 626 851 1264 1026 756 512 437 566 706 682 819 704 615 710 883 1110 1147 1211 1297 1065 636 431 261 112 60 0 0 0 0 0 0 0
0 0 0 0 0 0 9 18 166 189 201 90 4 7 3 5 285 537 801 939 932 439 352 97 30 37 196 108 207 191 515 636 908 1073 976 938 714 340 278 170 118 65 10 0 0 0 0 0 0
0 0 0 0 0 0 3 14 121 88 16 47 40 148 0 31 264 615 914 786 806 472 142 52 0 2 0 29 2 97 185 366 527 646 576 522 292 220 141 115 88 52 28 0 0 0 0 0 0
0 0 0 0 0 0 3 7 0 91 335 322 371 766 351 187 466 576 722 485 470 320 202 75 17 8 0 0 2 8 222 237 341 330 314 278 248 52 22 80 83 71 39 18 0 0 0 0 0
0 0 0 0 0 0 0 0 60 136 126 27 38 232 649 735 749 340 673 651 373 182 99 56 30 66 13 0 0 1 29 71 194 167 211 157 201 57 52 102 125 68 43 24 0 0 0 0 0
0 0 0 0 0 0 0 16 75 40 32 5 58 469 544 586 546 287 400 428 532 110 53 69 45 29 1 0 0 0 0 0 43 86 77 112 74 38 26 24 8 3 12 0 0 0 0 0 0
0 0 0 0 0 9 0 1 16 82 26 18 478 493 464 744 206 257 159 195 293 123 67 19 56 4 4 0 0 1 0 29 54 50 31 26 27 5 1 0 0 1 2 6 0 0 0 0 0
0 0 0 1 0 15 11 19 18 0 5 3 641 425 432 310 18 2 80 4 33 52 70 25 22 10 11 16 16 13 1 42 58 84 92 63 47 0 4 0 0 0 1 0 0 0 0 0 0
0 0 0 0 0 0 0 5 7 12 17 141 536 679 570 219 21 0 1 3 15 12 51 19 33 28 15 14 2 7 4 9 33 53 100 131 101 31 13 0 0 0 0 0 0 0 0 0 0
0 0 0 0 0 0 0 0 19 15 4 444 371 359 381 221 26 0 1 2 5 0 13 2 12 9 12 12 7 4 4 15 10 61 99 167 169 70 35 19 31 3 0 0 0 0 0 0 0
0 0 0 0 0 0 0 0 17 1 1 67 256 304 236 156 97 0 0 0 2 6 25 17 6 5 4 14 8 1 3 0 1 70 134 134 149 164 80 99 61 17 4 0 0 0 0 0 0
0 0 0 0 0 2 0 0 0 10 6 10 62 67 180 152 126 5 0 0 0 0 0 8 7 7 0 0 4 10 2 0 1 65 98 82 117 161 80 47 23 14 4 0 0 0 0 0 0
0 0 1 5 12 4 17 10 20 1 1 24 50 65 204 174 138 11 0 0 0 0 0 0 3 4 0 1 4 8 5 28 34 24 31 55 51 144 81 61 90 19 5 1 7 0 6 2 3
0 0 0 0 35 10 7 7 57 22 14 21 85 26 269 209 175 44 0 0 0 0 0 0 0 0 2 0 0 0 0 8 2 17 0 75 126 96 88 119 88 43 11 7 12 0 16 25 25
0 0 0 0 13 0 16 9 56 60 66 67 143 144 402 368 305 94 20 0 0 0 0 0 0 0 0 0 0 0 0 0 1 9 5 117 184 208 114 84 109 115 52 47 42 31 5 20 36
1 0 0 0 10 1 2 1 52 82 63 141 245 199 378 589 463 145 18 0 0 0 0 0 0 0 0 0 0 0 0 9 8 0 0 34 143 161 274 253 161 83 98 53 42 29 1 0 22
0 0 0 0 11 0 0 1 18 48 106 232 263 450 375 526 475 327 0 0 0 0 0 0 0 0 0 0 0 0 0 0 0 0 0 64 269 315 326 299 268 170 152 126 78 19 26 14 6
0 0 0 0 0 0 0 0 12 15 16 110 619 676 462 521 474 423 64 0 0 0 0 0 0 0 0 0 0 0 0 0 0 0 0 17 155 258 291 283 261 239 189 102 31 40 31 35 22
0 0 0 0 0 0 0 0 0 0 9 9 280 734 301 523 566 472 264 0 0 0 0 0 0 0 0 0 2 9 0 1 4 3 0 15 143 215 248 269 210 181 92 19 23 41 50 41 29
0 0 0 0 0 0 6 25 2 0 0 0 16 544 337 163 569 535 381 188 0 0 0 0 0 0 0 0 0 0 21 14 8 7 15 76 178 263 296 190 92 44 23 17 50 69 51 42 42
0 0 0 0 0 0 20 5 10 16 0 0 38 23 204 363 427 530 446 307 162 33 2 5 0 0 0 0 2 0 39 160 175 68 47 48 134 178 204 171 119 57 20 26 27 36 30 53 35
0 0 1 2 9 1 2 0 1 0 1 0 0 0 93 467 464 542 507 424 332 143 58 12 1 0 0 7 40 89 78 77 264 231 170 115 166 179 263 233 124 151 91 26 23 22 27 12 0
0 0 3 10 0 0 2 25 17 0 1 0 0 7 84 333 454 571 552 543 475 359 258 160 130 94 26 51 113 150 395 372 324 410 355 241 133 242 306 293 348 466 62 159 7 29 21 0 0
0 0 0 1 4 9 0 3 0 0 0 1 0 0 90 143 75 191 521 599 519 408 406 363 354 320 255 189 138 206 246 422 344 338 189 144 41 198 344 422 486 367 90 36 18 19 6 6 18
0 0 0 0 0 29 13 1 0 6 6 0 0 0 1 102 186 173 161 409 577 552 555 507 522 554 390 404 285 343 321 257 289 22 259 202 268 193 247 210 265 73 8 41 16 18 25 17 26

GFSSGP_con_mucape_066.txt.gz
CAPE
0 0 0 0 0 0 0 0 0 0 8 160 248 151 388 601 619 611 903 1298 1327 1735 1717 1656 1632 1634 1525 1307 1167 1151 1187 1062 1044 1266 1205 1027 806 609 482 319 123 29 0 0 3 5 4 18 27
0 0 0 0 0 0 0 0 0 0 17 222 221 283 755 736 695 771 703 1114 1437 1501 1149 1495 1503 1281 1153 693 1198 1257 1197 1124 1175 1398 1331 1003 781 559 414 269 130 46 0 0 0 0 0 0 0
0 0 0 0 0 0 0 0 0 40 179 271 257 433 641 617 706 575 976 1396 976 680 330 770 1167 1067 974 909 1058 1214 1142 986 1222 1442 1272 992 760 610 465 270 125 40 0 0 0 0 0 0 0
0 0 0 0 0 0 0 0 0 19 137 183 406 411 278 912 1197 1090 1010 1468 1053 327 300 495 885 912 1007 260 1016 1142 1006 868 1222 1324 1177 998 806 691 520 264 113 11 0 0 0 0 0 0 0
0 0 0 0 0 0 0 0 84 199 174 152 304 254 189 746 488 613 683 1285 1200 887 1001 735 548 211 671 919 996 868 806 790 1207 1282 1032 882 765 667 453 182 19 0 0 0 0 0 0 0 0
0 0 0 0 0 0 0 51 178 163 175 132 124 88 46 303 178 307 582 1392 1229 959 753 634 557 161 3 425 666 299 476 730 1120 1157 921 824 676 488 270 72 1 0 0 0 0 0 0 0 0
0 0 0 0 0 0 0 94 78 28 16 18 26 12 0 0 141 367 946 962 1080 927 550 299 109 10 30 17 129 374 469 627 833 826 712 555 298 171 67 23 0 0 0 0 0 0 0 0 0
0 0 0 0 0 0 0 43 62 5 20 26 26 172 37 58 265 395 863 888 675 540 319 141 82 75 29 0 10 5 211 610 538 426 323 190 83 73 32 0 0 0 0 0 0 0 0 0 0
0 0 0 0 0 0 0 0 85 151 186 205 231 460 384 227 338 418 635 620 579 274 175 137 79 64 0 0 17 0 97 316 253 277 170 57 0 0 0 4 0 0 0 0 0 0 0 0 0
0 0 0 0 0 0 29 14 84 49 44 14 2 306 248 301 297 240 208 506 551 322 203 178 80 11 31 0 0 0 121 130 158 173 149 70 0 0 0 2 4 9 6 0 0 0 0 0 0
0 0 0 0 0 3 5 22 44 15 10 1 0 242 403 323 215 173 301 252 442 199 173 73 45 15 79 0 0 0 7 10 70 158 174 103 2 0 3 1 0 0 0 1 0 0 0 0 0
0 0 0 0 0 3 0 0 0 0 0 4 68 259 267 301 166 192 35 151 274 188 46 60 88 35 4 0 0 0 13 43 43 50 113 28 1 0 0 0 0 0 0 0 0 0 0 0 0
0 0 0 0 0 0 1 27 5 0 0 140 149 176 171 149 26 5 84 14 43 27 33 12 12 99 10 6 0 0 28 2 20 31 48 5 2 0 0 0 0 0 1 0 0 0 0 0 0
0 0 0 0 0 0 0 0 0 0 0 81 265 171 112 13 0 0 0 0 17 28 11 32 53 73 23 8 8 0 7 0 6 22 4 0 0 0 0 0 0 0 0 0 0 0 0 0 0
0 0 0 0 0 0 0 0 0 0 30 232 390 342 213 82 0 0 1 0 2 18 20 27 18 33 13 14 1 12 2 0 10 21 12 10 2 0 0 0 0 0 0 0 0 0 0 0 0
0 0 0 0 0 0 0 0 0 0 130 199 158 338 148 31 0 0 1 1 4 5 23 26 6 30 30 28 18 4 5 6 36 66 58 23 25 14 0 0 2 1 6 0 0 0 0 0 0
0 0 0 0 0 0 0 0 0 2 15 42 100 99 3 14 15 1 0 0 5 2 6 5 20 18 19 53 15 14 4 15 48 43 83 74 80 48 21 66 63 30 6 0 0 0 0 0 0
0 0 0 0 0 10 20 15 0 5 24 1 4 70 82 96 41 2 0 0 0 0 3 15 13 15 18 2 3 3 15 3 3 12 74 64 76 111 55 82 75 38 16 1 0 0 0 0 0
0 0 0 0 0 19 38 20 8 1 27 29 62 90 59 129 73 10 0 0 0 0 5 0 9 9 1 0 0 0 3 2 0 3 23 35 8 104 93 56 70 29 3 2 0 0 0 0 0
0 0 0 0 0 17 14 5 13 0 11 48 66 78 110 174 100 49 0 0 0 0 0 0 0 0 0 0 0 4 3 0 0 0 0 0 7 24 108 76 42 36 20 23 7 2 4 1 1
0 0 0 0 0 3 0 0 12 0 9 32 43 131 142 287 120 111 1 0 0 0 0 0 0 0 0 0 0 0 0 0 0 0 0 0 7 43 50 69 48 49 34 28 15 26 25 19 28
0 0 0 0 0 0 1 0 0 9 0 31 83 135 211 341 163 191 33 0 0 0 0 0 0 0 0 0 0 0 0 0 0 0 0 0 10 92 95 64 53 11 45 57 43 38 46 29 26
0 0 0 0 0 0 0 0 0 0 0 14 141 242 227 327 350 271 240 0 0 0 0 0 0 0 0 0 0 0 0 0 0 0 0 0 0 44 75 118 157 132 111 22 41 48 65 43 28
0 0 0 0 0 0 0 0 0 0 0 0 47 226 273 400 484 428 280 82 0 0 0 0 0 0 0 0 0 0 0 0 0 0 0 0 0 26 78 99 141 200 192 148 94 93 78 27 7
0 0 0 0 0 0 0 0 0 0 0 0 62 161 329 462 487 481 413 291 0 0 0 0 0 0 0 0 0 0 0 0 0 0 0 0 3 39 111 204 227 249 241 168 108 64 26 11 27
0 0 0 0 0 0 1 0 0 0 0 0 129 251 423 419 402 434 407 423 125 0 0 0 0 0 0 0 0 0 0 4 27 44 42 33 36 20 60 74 98 133 183 124 78 71 15 42 77
0 0 0 0 0 0 0 0 0 0 0 0 0 280 457 381 413 311 330 418 355 116 6 0 0 0 0 0 0 0 0 21 40 41 71 91 74 44 32 62 85 109 87 52 43 26 19 40 32
0 0 0 0 0 0 0 0 0 0 0 0 0 23 238 283 237 261 285 435 485 257 148 85 2 0 0 0 0 0 7 38 42 113 60 94 84 84 76 102 136 163 138 91 46 13 4 23 28
0 0 0 0 0 0 0 0 0 0 1 0 0 0 9 25 203 172 426 515 505 411 254 241 172 32 13 1 0 7 40 78 76 81 126 82 29 134 60 19 145 162 114 132 122 132 9 32 17
0 0 0 0 0 0 0 0 0 0 0 3 0 0 15 38 150 256 420 492 493 492 426 379 325 200 123 56 45 61 65 189 268 294 151 79 22 50 90 65 115 319 243 128 163 1 34 25 14

GFSSGP_con_mucape_069.txt.gz
CAPE
0 0 0 0 0 0 0 0 0 0 0 23 54 70 254 388 480 429 618 954 1223 1791 1513 1667 1628 1679 1554 1427 1441 1442 1529 1663 1495 1319 1092 914 776 592 437 285 200 335 300 60 26 17 31 15 4
0 0 0 0 0 0 0 0 0 0 0 14 107 249 489 479 571 688 852 1224 1188 1754 1644 1695 1679 1665 1486 1270 1264 1251 1465 1673 1536 1326 1118 939 775 564 333 172 172 341 315 35 15 11 11 15 79
0 0 0 0 0 0 0 0 0 0 0 57 88 380 428 512 766 691 1011 951 1358 1565 1702 1723 1637 1432 1248 895 831 636 851 1526 1471 1242 1112 866 730 579 343 114 114 312 244 12 1 0 0 1 72
0 0 0 0 0 0 0 0 0 0 8 15 131 203 221 820 1130 1058 954 868 1176 1330 1433 1465 1344 923 804 682 695 907 830 1060 1387 1138 1021 882 787 615 329 93 91 277 161 1 0 0 0 0 0
0 0 0 0 0 0 0 0 0 6 12 29 109 61 196 677 631 580 769 854 1342 1184 947 628 479 461 235 161 388 940 540 960 1296 1074 836 824 749 534 239 49 20 27 4 0 0 1 0 0 0
0 0 0 0 0 0 0 0 36 34 33 32 44 39 59 409 131 540 626 1130 1144 915 548 382 203 136 61 86 47 332 235 853 1046 868 767 756 577 314 111 4 0 0 0 0 0 0 0 0 0
0 0 0 0 0 0 0 19 47 22 0 2 33 12 0 1 195 669 725 656 1241 767 704 366 103 14 40 9 31 263 41 400 756 561 549 485 282 80 3 0 0 0 0 0 0 0 0 0 0
0 0 0 0 0 0 0 31 14 9 6 25 24 79 10 95 304 800 588 399 801 742 404 217 139 17 0 4 0 33 13 482 490 449 350 200 105 10 0 0 0 0 0 0 0 0 0 0 0
0 0 0 0 0 0 0 2 38 62 52 58 163 371 273 176 354 385 365 674 642 523 280 175 138 77 27 42 0 5 46 403 369 325 187 70 0 0 0 0 0 0 0 0 0 0 5 4 0
0 0 0 0 0 0 0 0 22 1 0 0 0 24 167 188 178 169 196 426 740 487 417 399 191 83 44 6 0 0 1 67 180 161 100 21 0 0 0 0 0 0 0 0 0 0 0 0 0
0 0 0 0 0 0 0 0 19 7 0 0 0 4 111 179 67 106 118 127 283 166 155 27 43 0 18 2 0 0 0 3 89 128 68 14 0 0 0 0 0 0 0 0 0 0 0 0 0
0 0 0 0 0 0 0 0 2 0 0 0 0 47 328 267 139 109 86 29 137 134 72 46 5 0 3 0 0 0 46 50 63 73 30 6 0 0 0 0 0 0 0 0 0 0 0 0 0
0 0 0 0 0 0 0 0 0 0 0 0 14 146 86 100 69 17 0 0 9 51 103 14 13 14 31 0 0 0 0 23 8 53 49 5 2 2 1 0 0 0 0 0 0 0 0 0 0
0 0 0 0 0 0 0 0 0 0 0 4 73 86 83 32 0 0 0 0 6 16 20 7 14 20 25 0 0 0 0 2 34 49 16 0 3 2 4 1 0 0 0 0 0 0 0 0 0
0 0 0 0 0 0 0 0 0 0 0 0 138 33 0 0 0 0 0 0 11 6 4 1 32 14 39 4 11 3 4 19 52 43 1 0 0 3 2 1 0 0 0 2 0 0 0 0 0
0 0 0 0 0 0 0 0 0 0 0 0 135 122 31 43 34 0 0 0 0 2 8 5 29 18 16 4 11 44 53 51 47 34 34 3 1 0 0 0 0 0 0 0 0 0 0 0 0
0 0 0 0 0 0 0 0 0 0 5 48 41 200 120 33 8 0 0 0 0 0 4 0 1 29 9 32 11 18 5 67 45 45 13 8 0 0 0 0 0 0 6 1 0 0 0 0 0
0 0 0 0 0 0 0 0 0 0 0 2 21 67 21 0 2 13 0 0 0 3 2 0 6 10 21 24 14 13 7 76 75 62 42 23 8 4 2 10 22 16 13 2 7 11 0 0 0
0 0 0 0 0 0 0 0 0 0 0 0 0 25 9 9 6 20 0 0 0 1 1 3 10 17 8 13 15 25 6 5 87 102 101 90 65 55 29 85 99 85 55 48 13 12 8 0 0
0 0 0 0 0 0 0 1 0 0 0 0 0 0 0 0 18 18 8 0 0 0 3 0 0 1 13 15 9 10 2 14 23 32 76 76 62 83 137 83 105 73 47 26 45 10 0 1 2
0 0 0 0 0 0 1 0 0 0 0 0 0 0 0 0 33 27 27 0 0 0 0 0 0 6 2 0 18 18 30 5 0 0 4 37 53 58 44 116 71 59 52 42 22 15 18 27 20
0 0 0 0 0 0 0 0 0 0 0 0 0 2 0 10 17 39 23 0 0 0 0 0 0 0 0 0 0 0 0 0 1 2 0 3 8 2 44 50 89 89 41 58 54 41 30 35 46
0 0 0 0 0 0 0 0 0 0 0 0 0 9 1 0 7 64 27 37 0 0 0 0 0 0 0 0 0 0 0 0 0 0 0 0 0 0 13 54 39 49 39 61 49 53 50 46 44
0 0 0 0 0 0 0 0 0 0 0 0 0 1 26 61 59 80 79 104 5 0 0 0 0 0 0 0 0 0 0 0 0 0 0 0 0 0 0 12 58 68 77 87 62 56 58 45 45
0 0 0 0 0 0 0 0 0 0 0 0 0 0 3 115 125 155 181 197 129 0 0 0 0 0 0 0 0 0 0 0 0 0 0 0 0 0 0 4 22 57 84 96 140 148 171 115 76
0 0 0 0 0 0 0 0 0 0 0 0 0 0 0 38 206 196 215 309 249 90 0 0 0 0 0 0 0 0 0 0 0 0 0 0 0 0 0 21 26 16 35 76 137 160 111 113 97
0 0 0 0 0 0 0 0 0 0 0 0 0 0 10 28 159 216 262 322 390 282 45 0 0 0 0 0 0 0 0 0 0 0 0 0 0 1 19 7 25 43 77 59 50 74 83 100 76
0 0 0 0 0 0 0 0 0 0 0 0 0 60 23 47 120 196 315 317 433 367 301 75 17 0 0 0 0 0 0 0 0 0 6 3 15 34 50 92 36 37 36 47 72 103 24 8 31
0 0 0 0 0 0 0 0 0 0 0 0 0 0 57 98 133 223 421 334 367 330 372 410 68 50 4 0 0 0 0 0 0 0 0 11 22 92 48 50 11 40 87 86 117 105 35 46 4
0 0 0 0 0 0 0 0 0 0 0 0 0 0 0 56 142 185 356 358 358 224 239 406 353 153 21 0 0 0 0 0 0 0 2 28 93 83 21 99 0 33 48 60 166 152 81 63 68

GFSSGP_con_mucape_072.txt.gz
CAPE
0 0 0 0 0 0 0 0 0 0 0 0 10 21 44 158 244 150 603 1079 1172 1752 1624 1644 1617 1681 1749 1646 1566 1524 1546 1604 1561 1512 1322 1209 1117 921 689 591 500 466 380 38 25 23 20 20 14
0 0 0 0 0 0 0 0 0 0 0 0 82 72 228 294 393 555 838 1158 1381 1730 1600 1448 1590 1676 1713 1657 1689 1726 1706 1599 1590 1428 1254 1116 995 781 619 562 445 431 396 79 22 39 15 5 3
0 0 0 0 0 0 0 0 0 0 0 6 1 101 242 303 605 723 904 1283 1484 1694 1481 1286 1552 1279 1399 1564 1659 1721 1608 1479 1393 1236 1247 1070 836 636 627 500 411 534 567 309 197 103 25 3 3
0 0 0 0 0 0 0 0 0 0 0 0 11 13 44 458 952 866 953 844 1415 1789 1647 1152 636 449 637 764 436 810 1354 1301 1187 1144 1102 884 667 554 600 480 473 454 276 21 29 28 133 2 1
0 0 0 0 0 0 0 0 0 0 0 0 39 24 35 504 884 749 779 866 976 1359 1632 1235 516 244 313 209 101 73 724 1006 1093 1077 883 751 679 489 398 471 365 141 3 1 29 17 3 0 0
0 0 0 0 0 0 0 0 0 3 0 4 3 9 4 193 229 386 721 1021 1186 1373 1354 1075 761 571 398 146 135 88 336 751 907 873 788 751 520 305 367 365 79 0 36 146 28 5 0 0 0
0 0 0 0 0 0 0 0 0 0 2 2 1 11 0 7 107 501 842 949 889 881 1011 889 497 302 249 213 77 52 326 502 589 504 661 452 270 214 152 32 0 0 60 99 2 0 0 0 0
0 0 0 0 0 0 0 0 0 0 0 10 12 11 9 0 431 512 743 600 625 549 633 815 439 215 133 88 10 13 161 393 281 337 418 255 142 120 0 0 0 0 0 25 0 0 0 0 0
0 0 0 0 0 0 0 0 0 0 2 12 38 226 137 167 210 290 281 472 594 575 654 496 271 138 23 0 0 0 157 212 199 285 257 166 45 1 0 0 0 0 0 12 12 0 0 0 0
0 0 0 0 0 0 0 0 0 0 0 0 0 11 137 172 261 304 254 614 373 556 382 287 192 124 69 54 1 28 94 30 35 102 146 100 4 0 0 0 0 0 0 15 11 0 0 0 0
0 0 0 0 0 0 0 0 0 0 0 0 0 0 125 204 122 345 264 164 353 433 411 406 284 124 69 62 6 27 58 71 77 79 136 21 2 3 0 0 0 0 0 0 4 0 0 0 0
0 0 0 0 0 0 0 0 0 0 0 0 0 3 116 132 187 101 124 191 85 133 87 82 0 20 42 37 0 0 11 54 29 40 65 0 0 0 0 0 0 0 0 0 0 0 0 0 0
0 0 0 0 0 0 0 0 0 0 0 0 0 60 67 127 63 37 0 3 68 25 26 46 15 2 18 2 0 0 2 15 42 40 12 0 0 1 3 0 0 0 0 0 0 0 0 0 0
0 0 0 0 0 0 0 0 0 0 0 0 45 35 86 74 228 26 11 28 53 19 35 11 24 17 10 14 0 0 1 21 41 50 1 0 9 15 14 0 0 0 0 0 0 0 0 0 0
0 0 0 0 0 0 0 0 0 0 0 0 86 53 97 87 21 20 21 2 8 21 23 12 24 61 13 23 1 0 49 44 34 37 17 3 14 18 4 0 3 3 3 0 2 1 0 0 0
0 0 0 0 0 0 0 0 0 0 0 0 4 185 106 50 48 43 11 4 3 2 15 3 17 40 12 6 2 0 3 31 3 65 17 5 10 7 1 11 19 16 13 0 14 6 0 0 0
0 0 0 0 0 0 0 0 0 0 0 0 0 141 224 122 69 48 16 1 2 0 1 4 16 29 23 4 2 2 2 3 38 21 25 9 3 3 13 11 11 1 1 6 14 6 0 0 0
0 0 0 0 0 0 0 0 0 0 0 0 0 46 79 188 51 18 30 0 0 0 1 0 4 11 12 6 7 15 2 71 42 2 2 2 1 6 13 13 8 3 1 16 34 19 10 1 0
0 0 0 0 0 0 0 0 0 0 0 0 0 0 11 108 19 20 27 0 1 0 0 0 11 2 6 14 9 2 4 51 42 15 5 1 1 0 0 0 2 8 29 46 33 29 29 9 0
0 0 0 0 0 0 0 0 0 0 0 0 0 0 0 9 5 17 28 1 4 2 0 0 0 1 0 11 17 25 23 23 5 26 19 29 26 10 6 15 59 69 102 81 56 22 10 12 12
0 0 0 0 0 0 0 0 0 0 0 0 0 0 0 0 0 7 21 12 2 0 0 0 0 5 3 16 25 12 8 34 0 51 52 46 66 66 72 52 92 136 139 94 54 24 15 26 19
0 0 0 0 0 0 0 0 0 0 0 0 0 0 0 0 0 0 12 0 0 0 0 0 0 0 1 1 2 4 11 0 2 3 15 33 59 57 90 123 126 125 85 59 35 23 28 32 18
0 0 0 0 0 0 0 0 0 0 0 0 0 0 0 0 0 0 1 4 4 0 0 0 0 0 0 0 1 5 0 0 0 3 7 4 41 31 36 25 51 52 81 87 74 48 34 29 33
0 0 0 0 0 0 0 0 0 0 0 0 0 0 0 0 0 0 0 9 28 0 0 0 0 0 0 0 0 1 0 0 0 0 0 0 0 1 4 0 15 47 81 101 102 103 84 83 49
0 0 0 0 0 0 0 0 0 0 0 0 0 0 0 0 0 4 39 41 38 27 0 0 0 0 0 0 0 0 0 0 0 0 0 0 0 0 0 0 0 31 65 96 120 125 130 135 117
0 0 0 0 0 0 0 0 0 0 0 0 0 0 0 0 0 0 50 110 123 128 5 0 0 0 0 0 0 0 0 0 0 0 0 0 0 0 0 0 1 19 34 48 64 88 89 104 95
0 0 0 0 0 0 0 0 0 0 0 0 0 0 0 0 0 1 53 119 147 180 189 0 0 0 0 0 0 0 0 0 0 0 0 0 0 0 0 0 0 4 8 13 41 39 54 3 26
0 0 0 0 0 0 0 0 0 0 0 0 0 0 0 0 3 6 28 125 197 190 288 262 32 0 0 0 0 0 0 0 0 0 0 0 0 0 0 0 0 10 21 16 24 42 44 26 32
0 0 0 0 0 0 0 0 0 0 0 0 0 0 0 0 11 9 11 70 177 247 251 389 324 100 0 0 0 0 0 0 0 0 0 0 0 0 0 0 12 19 11 49 31 21 40 87 83
0 0 0 0 0 0 0 0 0 0 0 0 0 0 0 0 32 26 44 63 109 178 310 276 395 333 228 14 0 0 0 0 0 0 0 0 0 0 2 30 49 44 21 16 9 10 96 99 85

GFSSGP_con_mucape_075.txt.gz
CAPE
0 0 0 0 0 0 0 0 0 0 0 0 5 5 14 64 139 140 520 912 1026 1833 1749 1556 1687 1762 1747 1848 1989 1921 1910 1852 1706 1653 1584 1491 1420 1262 1062 879 796 780 645 170 160 95 100 21 19
0 0 0 0 0 0 0 0 0 0 0 3 66 71 183 178 225 386 833 930 1094 1855 1866 1602 1672 1775 1753 1755 1888 2012 2027 1921 1773 1736 1670 1516 1257 1062 974 788 647 583 434 12 13 24 39 23 28
0 0 0 0 0 0 0 0 0 0 0 0 0 49 204 216 319 471 700 969 1352 1810 1680 1427 1628 1462 1301 1595 1835 1945 1927 1779 1673 1591 1644 1455 1146 1030 877 652 597 598 484 129 22 36 33 19 26
0 0 0 0 0 0 0 0 0 0 0 0 12 38 39 180 687 712 631 745 1237 1631 1533 1105 1021 930 717 788 1217 1320 1753 1577 1473 1432 1477 1337 1119 1012 794 590 508 470 384 272 43 18 7 6 3
0 0 0 0 0 0 0 0 0 0 0 0 17 9 43 353 572 559 580 640 896 1192 1401 951 992 777 722 703 675 650 1018 959 1153 1340 1214 1057 1038 861 663 579 512 588 712 513 323 9 1 0 0
0 0 0 0 0 0 0 0 0 0 0 0 0 0 23 107 224 319 662 706 887 1001 769 987 770 706 547 293 238 242 388 316 835 867 980 846 794 559 535 447 261 154 287 350 341 7 1 1 0
0 0 0 0 0 0 0 0 0 0 0 0 0 9 2 22 73 504 479 594 948 1116 690 611 588 399 262 205 129 100 450 566 589 683 707 493 429 309 366 125 33 120 326 263 126 3 0 0 0
0 0 0 0 0 0 0 0 0 0 0 0 0 16 17 0 165 328 317 335 779 918 478 328 377 280 202 125 86 61 277 432 442 507 386 176 217 252 89 0 135 330 239 125 3 0 0 0 0
0 0 0 0 0 0 0 0 0 0 0 0 4 35 31 81 266 240 151 367 419 351 472 442 321 195 150 172 225 110 307 320 285 271 180 62 91 76 20 0 82 247 149 40 0 0 0 0 0
0 0 0 0 0 0 0 0 0 0 0 4 7 27 36 79 325 268 139 157 300 290 310 474 402 277 198 166 134 53 18 266 191 121 77 16 14 32 10 14 24 156 110 26 4 0 0 0 0
0 0 0 0 0 0 0 0 0 0 0 0 0 0 4 79 250 246 177 91 119 270 281 521 308 312 174 109 79 41 34 88 57 62 78 15 11 15 4 5 0 100 102 0 2 3 0 0 0
0 0 0 0 0 0 0 0 0 0 0 0 0 0 1 128 54 29 72 42 62 98 223 175 169 167 89 93 56 17 1 3 4 3 8 13 0 0 0 0 0 0 54 78 18 1 0 0 0
0 0 0 0 0 0 0 0 0 0 0 0 0 0 1 59 0 77 8 72 18 13 20 20 1 0 6 38 12 37 20 5 12 51 0 4 0 0 0 0 0 0 0 0 0 0 0 0 0
0 0 0 0 0 0 0 0 0 0 0 0 9 59 4 11 23 2 13 1 7 22 10 19 7 3 1 14 17 38 26 23 3 5 4 0 0 1 0 0 0 0 0 0 0 0 0 0 0
0 0 0 0 0 0 0 0 0 0 0 0 29 69 77 69 7 11 0 9 4 4 19 40 20 18 17 16 23 54 19 20 11 18 32 2 0 0 12 2 0 0 0 0 0 0 0 0 0
0 0 0 0 0 0 0 0 0 0 0 0 93 103 118 93 28 30 20 6 0 4 20 64 6 27 25 26 23 11 24 3 11 44 10 3 2 23 0 0 1 0 1 0 0 0 0 0 0
0 0 0 0 0 0 0 0 0 0 0 0 12 141 168 93 70 46 38 6 2 7 9 2 7 5 19 26 10 4 13 5 22 20 2 6 24 16 16 2 10 5 0 6 15 12 13 1 0
0 0 0 0 0 0 0 0 0 0 0 0 0 24 175 129 122 33 36 0 2 3 3 7 17 10 24 10 11 1 21 46 48 20 7 15 17 24 13 10 28 8 137 6 6 26 49 23 1
0 0 0 0 0 0 0 0 0 0 0 0 0 18 71 95 73 66 29 8 0 2 3 0 13 3 0 5 3 1 0 19 26 42 4 17 29 18 32 11 8 8 17 20 9 23 31 35 29
0 0 0 0 0 0 0 0 0 0 0 0 0 0 7 4 59 21 8 5 1 3 5 0 0 4 0 0 1 5 3 12 33 43 8 14 7 4 12 8 34 12 54 20 15 42 33 35 25
0 0 0 0 0 0 0 0 0 0 0 0 0 0 0 0 4 4 0 0 0 1 2 0 0 0 0 0 2 4 6 5 3 5 0 0 1 3 1 34 77 74 59 59 53 58 50 34 27
0 0 0 0 0 0 0 0 0 0 0 0 0 0 0 0 0 0 0 0 0 0 1 0 0 0 0 2 4 4 6 0 0 0 0 0 0 17 39 52 59 125 103 112 92 103 81 38 21
0 0 0 0 0 0 0 0 0 0 0 0 0 0 0 0 0 0 0 0 0 0 3 0 0 0 0 0 0 8 26 9 1 0 0 0 0 1 36 68 148 172 144 187 116 99 70 52 22
0 0 0 0 0 0 0 0 0 0 0 0 0 0 0 0 0 0 0 0 0 0 2 0 0 0 0 0 0 7 15 7 0 0 3 9 5 5 49 68 126 191 254 253 236 138 87 74 60
0 0 0 0 0 0 0 0 0 0 0 0 0 0 0 0 0 0 0 0 0 0 0 0 0 0 0 0 0 0 0 3 1 0 0 5 0 6 27 23 41 77 113 157 173 199 78 69 46
0 0 0 0 0 0 0 0 0 0 0 0 0 0 0 0 0 0 0 5 34 6 0 0 0 0 0 0 0 0 0 0 0 0 0 0 0 1 16 19 22 30 50 85 133 151 138 106 43
0 0 0 0 0 0 0 0 0 0 0 0 0 0 0 0 0 0 0 8 58 92 44 0 0 0 0 0 0 0 0 0 0 0 0 0 0 0 0 0 3 5 18 47 83 99 102 76 18
0 0 0 0 0 0 0 0 0 0 0 0 0 0 0 0 0 0 0 2 54 91 106 102 0 0 0 0 0 0 0 0 0 0 0 0 0 0 0 0 0 0 3 40 71 70 67 59 39
0 0 0 0 0 0 0 0 0 0 0 0 0 0 0 0 0 0 0 0 31 81 139 146 210 95 4 0 0 0 0 0 0 0 0 0 0 0 0 0 0 0 0 2 16 53 57 46 61
0 0 0 0 0 0 0 0 0 0 0 0 0 0 0 0 0 0 5 2 7 35 89 167 218 271 255 86 0 0 0 0 0 0 0 0 0 0 0 0 0 0 0 7 31 33 48 39 25

GFSSGP_con_mucape_078.txt.gz
CAPE
0 0 0 0 0 0 0 0 0 0 0 0 0 0 18 83 46 99 972 1052 1175 1785 1653 1509 1791 1823 1991 2231 2080 2020 2064 1978 1790 1621 1669 1716 1733 1754 1618 1314 1095 887 669 561 367 174 75 36 13
0 0 0 0 0 0 0 0 0 0 0 0 0 62 103 66 350 748 1181 1084 1172 1819 1999 1632 1674 1775 1977 2189 2201 2161 2225 2025 1813 1860 1859 1918 1830 1717 1596 1268 1032 910 710 381 231 103 34 17 8
0 0 0 0 0 0 0 0 0 0 0 0 8 65 154 109 548 857 1185 987 1357 1582 2304 1827 1708 1784 1856 1775 2057 2095 2079 1888 1818 1839 1911 1895 1764 1577 1356 963 717 667 710 294 154 80 24 6 0
0 0 0 0 0 0 0 0 0 0 0 0 14 43 153 404 826 958 1046 1019 1062 1559 1858 1500 1610 1591 1624 1485 1628 910 1665 1798 1749 1817 1844 1798 1707 1494 1144 732 572 525 505 282 49 42 18 10 2
0 0 0 0 0 0 0 0 0 0 0 1 48 8 64 218 857 768 811 878 1119 1439 1551 1401 1286 1058 1000 1160 1190 883 970 1245 1457 1516 1656 1634 1590 1360 1041 711 474 400 352 223 30 22 11 2 0
0 0 0 0 0 0 0 0 0 0 0 23 15 15 43 199 515 652 782 892 1017 1352 1389 1571 1010 1067 911 784 597 544 1035 835 1261 846 1256 1493 1366 1127 929 634 528 597 296 164 47 13 5 0 0
0 0 0 0 0 0 0 0 0 0 0 3 14 8 18 85 192 555 339 503 724 946 1246 1248 1509 751 559 315 403 593 737 892 809 715 615 885 831 858 778 613 633 455 430 120 10 7 2 0 0
0 0 0 0 0 0 0 0 0 0 0 19 9 0 0 64 337 498 547 455 362 948 859 585 1028 699 594 358 118 172 494 347 427 472 502 422 462 546 404 285 480 463 325 100 3 2 1 0 0
0 0 0 0 0 0 0 0 0 0 0 10 29 24 152 199 468 533 469 169 130 524 738 427 258 373 335 171 111 70 168 313 286 313 252 242 444 231 201 181 325 240 142 64 3 3 1 0 0
0 0 0 0 0 0 0 0 0 0 0 4 24 68 245 365 469 447 475 234 207 118 229 439 255 206 123 71 80 193 240 422 325 338 200 190 136 138 223 341 214 123 20 0 1 0 0 0 0
0 0 0 0 0 0 0 0 0 0 0 0 0 0 226 318 351 459 457 493 410 315 211 179 238 172 120 133 66 77 285 256 216 146 47 133 102 214 287 390 285 106 0 0 0 0 0 0 0
0 0 0 0 0 0 0 0 0 0 0 0 0 0 81 179 301 401 412 446 382 511 365 169 314 177 73 153 83 44 204 218 238 52 6 25 60 155 246 296 163 67 1 0 0 0 0 0 0
0 0 0 0 0 0 0 0 0 0 0 0 0 1 53 123 268 293 305 252 287 319 456 270 125 61 52 50 50 64 66 84 54 24 2 28 98 73 65 181 217 130 89 37 6 7 0 0 0
0 0 0 0 0 0 0 0 0 0 0 0 0 13 68 122 315 284 264 75 62 209 55 102 25 10 17 6 6 5 28 13 18 4 5 55 72 50 33 23 70 114 190 89 42 24 0 0 0
0 0 0 0 0 0 0 0 0 0 0 0 0 31 118 201 345 321 221 143 26 14 23 26 51 25 2 2 10 30 43 4 13 10 15 0 36 45 4 4 5 13 66 41 32 7 0 0 0
0 0 0 0 0 0 0 0 0 0 0 0 37 58 228 295 337 243 82 25 7 10 31 28 48 5 10 16 22 31 24 13 16 8 3 1 25 26 16 3 0 0 2 7 6 4 0 0 0
0 0 0 0 0 0 0 0 0 0 0 0 8 94 229 429 361 257 109 38 15 6 25 42 21 4 14 6 12 17 12 23 6 6 6 5 18 18 27 14 9 0 0 0 0 0 0 0 0
0 0 0 0 0 0 0 0 0 0 0 0 0 65 218 396 428 228 116 32 0 4 17 44 17 13 0 30 9 2 12 3 5 3 0 0 7 78 43 2 2 0 0 0 0 0 0 0 0
0 0 0 0 0 0 0 0 0 0 0 0 0 34 86 302 465 177 121 22 0 7 19 26 1 1 3 5 0 0 4 2 4 0 1 1 0 17 39 56 24 3 2 2 9 9 7 0 3
0 0 0 0 0 0 0 0 0 0 0 0 0 9 68 200 468 112 39 4 0 7 14 17 0 0 0 0 3 2 0 2 3 1 10 5 3 7 12 36 54 47 52 10 9 7 9 29 26
0 0 0 0 0 0 0 0 0 0 0 0 0 0 14 155 392 169 11 2 5 6 7 1 0 0 0 0 0 3 4 0 0 0 0 8 1 7 6 17 44 22 61 45 55 15 11 62 21
0 0 0 0 0 0 0 0 0 0 0 0 0 0 11 35 224 220 43 0 3 3 5 0 0 0 0 0 0 4 3 0 0 2 1 0 7 11 34 15 95 91 86 115 152 93 145 166 129
0 0 0 0 0 0 0 0 0 0 0 0 0 0 0 12 135 185 95 12 0 2 4 1 0 0 0 1 0 7 10 9 2 0 0 2 0 29 11 35 45 82 195 177 234 203 165 194 225
0 0 0 0 0 0 0 0 0 0 0 0 0 0 0 15 43 168 121 40 0 1 12 11 1 0 0 0 0 3 13 14 3 1 0 1 2 3 8 13 106 126 256 233 329 382 336 296 230
0 0 0 0 0 0 0 0 0 0 0 0 0 0 0 0 43 172 158 82 10 0 2 9 8 0 0 4 0 0 1 0 3 1 3 0 0 0 0 1 31 136 219 323 315 407 425 303 280
0 0 0 0 0 0 0 0 0 0 0 0 0 0 0 0 29 122 154 117 44 0 0 4 2 7 10 0 21 26 17 2 21 61 47 14 5 5 6 2 22 99 167 258 228 401 361 355 339
0 0 0 0 0 0 0 0 0 0 0 0 0 0 0 0 15 127 139 154 102 5 0 1 0 0 7 13 18 21 49 37 39 33 50 27 10 24 30 115 116 196 187 138 147 191 240 257 298
0 0 0 0 0 0 0 0 0 0 0 0 0 0 0 0 0 76 152 170 144 49 3 0 0 0 0 6 13 10 15 22 28 41 45 48 53 53 91 87 153 138 73 102 106 136 149 175 401
0 0 0 0 0 0 0 0 0 0 0 0 0 0 0 0 50 59 103 146 171 123 41 28 0 0 1 1 5 4 6 14 20 39 31 20 41 24 23 32 43 35 38 60 136 122 131 156 223
0 0 0 0 0 0 0 0 0 0 0 3 4 0 0 0 49 189 175 136 157 178 104 39 39 48 35 5 2 36 6 3 18 89 71 76 52 38 6 10 3 16 16 60 115 99 75 76 69

GFSSGP_con_mucape_081.txt.gz
CAPE
0 0 0 0 0 0 0 0 0 0 0 0 0 0 0 0 0 108 1263 1456 1663 1832 1727 1477 1731 1920 2199 2267 1991 1870 1953 2020 1900 1667 1558 1668 1820 1848 1723 1492 1314 1144 981 842 746 538 276 150 93
0 0 0 0 0 0 2 0 0 0 0 0 0 0 0 5 38 286 1117 1485 1550 1923 1740 1805 1679 1892 2160 2225 2042 1984 2104 2038 1878 1732 1834 1883 2012 2016 1767 1389 1137 1055 892 732 564 395 190 67 83
0 0 0 0 0 0 0 0 0 0 0 0 0 0 10 34 260 767 1409 1352 1700 1881 2019 2016 1625 1754 1945 2154 2053 2033 1940 1843 1749 1776 2057 2102 2184 1788 1708 1268 1025 913 878 611 470 218 32 6 5
0 0 0 0 0 0 0 0 0 0 0 0 0 0 13 197 622 1007 1268 1202 1427 1682 2112 1718 1406 1616 1824 1998 1850 1691 1398 1101 1659 1831 2103 2238 2165 1996 1637 1263 1034 1033 1044 570 268 53 10 1 0
0 0 0 0 0 0 0 0 0 0 0 0 0 0 1 213 900 979 1020 1021 1308 1775 1901 2104 1423 1432 1359 1299 808 651 692 723 1039 1859 1952 1956 1962 1614 1208 1023 967 750 801 599 109 19 1 0 0
0 0 0 0 0 0 0 0 0 0 0 0 0 0 0 443 490 882 1017 1054 1194 1509 1864 1867 1254 948 743 528 296 386 449 0 474 1336 1209 1436 1489 1199 1006 821 746 504 442 278 110 17 0 0 0
0 0 0 0 0 0 0 0 0 0 0 0 6 0 14 79 386 807 538 695 883 1287 1711 1863 1541 928 363 114 76 284 198 28 347 647 827 710 781 873 799 686 680 461 180 114 40 8 0 0 0
0 0 0 0 0 0 0 0 0 0 0 0 0 0 2 248 415 611 664 652 772 832 1153 1661 1241 858 522 244 127 147 305 243 261 545 428 399 450 598 568 430 473 332 183 76 13 4 0 0 0
0 0 0 0 0 0 0 0 0 0 0 0 0 0 16 181 509 546 640 298 397 148 342 621 800 805 447 417 96 145 182 283 225 392 297 212 271 180 352 253 311 263 149 52 10 3 0 0 0
0 0 0 0 0 0 0 0 0 0 0 0 1 1 188 150 402 529 606 358 312 366 140 377 427 441 406 203 312 334 406 568 494 459 446 244 275 160 295 318 261 172 89 18 3 0 0 0 0
0 0 0 0 0 0 0 0 0 0 0 0 0 0 23 304 315 427 537 578 381 390 322 119 245 170 334 146 206 269 678 971 967 595 286 72 174 160 88 332 284 179 41 0 0 0 0 0 0
0 0 0 0 0 0 0 0 0 0 0 0 0 0 0 130 183 242 375 533 489 490 273 105 72 90 165 137 80 205 306 492 425 478 125 103 84 57 153 194 178 179 0 0 0 0 3 0 0
0 0 0 0 0 0 0 0 0 0 0 0 0 0 0 38 94 218 339 379 546 497 563 226 74 54 159 34 32 12 240 248 330 288 201 20 13 79 57 114 262 124 39 0 0 0 0 1 0
0 0 0 0 0 0 0 0 0 0 0 0 0 0 4 48 97 228 415 436 398 329 323 305 109 50 52 75 113 71 29 81 186 11 41 59 2 28 6 37 134 228 161 61 17 10 1 0 0
0 0 0 0 0 0 0 0 0 0 0 0 0 0 14 77 165 263 396 457 373 346 212 121 101 11 22 19 15 0 0 0 1 9 6 6 5 41 93 83 162 298 235 251 140 39 0 0 0
0 0 0 0 0 0 0 0 0 0 0 0 0 0 20 117 226 297 408 410 347 250 77 109 41 33 38 25 2 4 7 2 1 6 3 5 6 58 60 77 131 269 266 184 120 38 0 2 0
0 0 0 0 0 0 0 0 0 0 0 0 0 0 24 179 372 404 411 329 223 120 25 54 79 45 62 67 14 9 4 2 3 3 6 4 0 0 5 48 121 145 106 100 112 94 79 13 3
0 0 0 0 2 0 0 0 0 0 0 0 0 0 9 184 426 468 443 291 233 114 8 11 44 30 39 8 31 20 1 2 3 4 4 2 12 1 2 32 63 59 15 57 98 102 65 35 3
0 0 0 14 0 0 0 0 0 0 0 0 0 0 5 40 257 585 505 343 196 23 3 15 25 0 11 0 15 3 5 0 9 0 6 4 0 40 37 70 73 62 16 10 68 30 46 5 4
0 0 0 0 0 0 0 0 0 0 0 0 0 0 5 7 91 586 550 424 187 16 4 7 23 0 0 6 1 0 0 0 2 3 3 3 3 36 141 158 147 45 24 67 64 52 56 15 17
0 0 0 0 0 0 0 0 0 0 0 0 0 0 0 2 34 616 516 457 230 60 4 7 8 2 0 7 2 0 2 0 0 1 0 0 0 85 154 158 131 94 191 140 233 225 206 146 22
0 0 0 0 0 0 0 0 0 0 0 0 0 0 0 0 2 446 506 369 310 102 3 8 5 1 0 0 0 0 2 0 2 2 2 0 0 61 78 113 112 170 170 206 191 179 194 158 111
0 0 0 0 0 0 0 0 0 0 0 0 0 0 0 0 0 298 527 359 220 117 3 7 7 9 0 0 1 0 1 4 4 0 0 2 2 2 13 56 99 86 105 253 233 192 131 191 243
0 0 0 0 0 0 0 0 0 0 0 1 0 0 0 0 0 163 455 330 247 147 2 5 14 0 0 0 0 27 15 7 2 1 2 0 1 0 31 59 24 59 79 199 269 313 230 230 278
0 0 0 0 0 0 0 0 0 0 0 0 0 0 0 0 0 40 362 352 228 125 4 0 7 4 17 0 0 24 58 7 8 2 0 1 1 0 0 0 37 32 67 219 321 296 348 294 303
0 0 0 0 0 15 8 0 0 0 0 0 0 0 0 0 0 0 269 397 250 132 34 2 1 8 12 0 0 23 42 39 35 3 5 0 0 0 0 0 1 3 34 101 320 294 315 573 435
0 0 0 0 0 0 8 5 5 0 0 0 0 0 0 0 0 0 149 435 304 201 71 8 20 23 16 13 17 28 57 40 31 22 7 0 6 7 12 6 14 12 81 92 235 224 193 331 160
0 0 0 0 0 0 0 0 0 1 0 0 0 2 0 0 0 15 95 423 400 330 128 26 0 34 38 33 20 14 38 46 58 56 57 63 76 66 39 55 26 23 14 74 118 170 211 271 332
0 0 0 0 0 0 0 0 4 5 0 1 20 6 0 0 11 31 215 341 452 426 246 75 2 1 44 65 65 153 138 108 122 269 283 203 140 50 45 43 29 41 61 114 140 169 219 241 271
5 0 0 0 0 0 0 1 0 0 0 0 35 4 0 0 5 111 137 315 424 492 397 259 39 0 104 73 149 326 415 307 253 219 317 394 226 54 14 41 23 42 70 134 129 153 135 186 235

GFSSGP_con_mucape_084.txt.gz
CAPE
0 0 0 0 0 0 0 0 0 0 0 0 0 0 0 0 0 383 1101 1546 1603 2027 1570 1387 1623 1956 2126 2105 1906 1807 1889 1992 1831 1622 1653 1730 1815 1720 1591 1408 1291 1303 1365 966 840 619 608 423 663
0 0 0 0 0 0 0 0 0 0 0 0 0 0 0 0 16 639 1540 1349 1568 1962 1979 1814 1588 1929 2273 2204 1972 1903 2022 2107 1867 1769 1809 1901 1972 1885 1735 1498 1215 1104 1468 1016 762 547 344 373 650
0 0 0 0 0 0 0 0 0 0 0 0 0 0 0 18 223 629 1187 1367 1600 1895 1967 2000 1630 1758 2159 2174 2014 1873 1959 1946 1768 1630 1947 2103 2135 1897 1620 1382 1153 1171 1450 1072 718 441 229 242 198
0 0 0 0 0 0 0 0 0 0 0 0 0 0 0 38 60 884 1181 1062 1466 1644 2196 1795 1544 1534 1903 1968 2081 1790 1663 1640 1663 1575 1989 2225 2132 1938 1574 1229 984 1099 1208 1154 668 230 50 16 0
0 0 0 0 0 0 0 0 0 0 0 0 0 0 9 297 865 926 942 977 1258 1870 2010 1919 1434 1362 1566 1500 1686 970 552 284 290 470 1646 2163 1952 1615 1315 1088 929 793 1016 880 225 50 12 0 0
0 0 0 0 0 0 0 0 0 0 0 0 0 0 18 547 539 908 1100 1116 1470 1603 2134 2032 1551 1178 962 867 721 520 301 104 14 24 58 1488 1729 1469 1193 958 894 749 752 407 135 58 10 0 0
0 0 0 0 0 0 0 0 0 0 0 0 0 0 3 232 712 1069 826 868 916 1247 1727 1487 1782 1043 736 328 229 243 176 47 3 2 13 1114 1002 972 911 679 811 696 434 183 40 7 6 2 0
0 0 0 0 0 0 0 0 0 0 0 0 0 0 0 370 669 598 675 769 827 777 1191 1471 1442 1110 663 384 155 186 102 50 67 33 109 385 393 428 371 478 435 441 235 69 17 1 0 0 0
0 0 0 0 0 0 0 0 0 0 0 0 0 0 0 313 489 456 616 370 498 107 681 702 877 722 552 372 132 43 220 222 158 36 133 200 272 261 189 344 254 190 130 65 8 0 0 0 0
0 0 0 0 0 0 0 0 0 0 0 0 0 0 17 1 263 315 871 762 296 283 453 323 688 526 480 409 51 90 107 251 179 2 121 175 183 117 125 200 179 131 71 11 3 0 0 0 0
0 0 0 0 0 0 0 0 0 0 0 0 0 0 2 129 57 117 231 729 422 246 302 119 259 315 453 124 294 398 243 336 332 131 119 134 134 128 92 108 122 60 32 2 0 0 0 0 0
0 0 0 0 0 0 0 0 0 0 0 0 0 0 0 0 17 33 152 487 447 370 126 451 40 139 410 173 65 224 293 213 241 199 111 101 51 77 22 46 89 40 0 0 0 0 0 0 0
0 0 0 0 0 0 0 0 0 0 0 0 0 0 0 0 0 28 48 625 517 310 268 166 121 19 27 89 119 60 208 189 148 215 88 61 46 24 94 113 72 57 0 0 0 0 0 0 0
0 0 0 0 0 0 0 0 0 0 0 0 0 0 0 0 0 4 112 279 517 359 594 359 221 41 0 9 46 59 50 185 151 148 191 69 23 29 50 69 59 44 0 1 0 0 0 0 0
0 0 0 0 0 0 0 0 0 0 0 0 0 0 0 0 0 7 231 392 338 192 560 372 200 75 7 52 8 9 9 6 77 98 95 9 15 18 54 12 45 35 17 0 4 2 2 1 0
0 0 0 0 0 0 0 0 0 0 0 0 0 0 0 0 0 42 173 257 324 160 300 279 111 16 22 8 8 0 6 0 0 0 45 15 12 43 20 6 9 91 154 81 23 4 0 0 0
0 0 0 0 0 0 0 0 0 0 0 0 0 0 0 0 10 94 281 276 247 143 111 170 56 27 27 25 5 4 4 2 4 9 11 11 27 30 30 14 9 53 98 90 64 27 0 0 1
0 0 0 0 0 0 0 0 0 0 0 0 0 0 1 7 15 225 358 312 224 74 81 116 55 18 37 35 1 4 7 0 0 1 1 6 8 3 7 5 15 37 55 98 64 13 5 1 0
0 0 0 0 0 0 0 0 0 0 0 0 0 0 0 10 38 372 472 397 268 215 12 5 12 14 17 0 0 0 3 0 0 0 3 12 6 4 6 12 22 66 68 86 25 10 0 0 0
6 2 0 0 0 0 0 0 0 0 0 0 0 0 0 5 13 467 580 445 345 74 0 0 6 11 0 0 0 0 6 0 0 4 3 3 5 8 4 11 2 4 49 60 53 14 6 0 0
1 1 0 0 0 0 0 0 0 0 0 0 0 0 0 0 12 555 673 529 365 28 0 1 5 6 0 0 1 0 0 28 6 0 1 3 1 1 4 3 1 0 10 33 34 3 0 0 0
0 0 0 0 0 0 0 0 0 0 0 0 0 0 0 0 4 436 676 539 379 66 0 0 1 2 0 0 0 1 0 0 0 0 2 2 0 0 0 0 3 39 32 45 11 25 1 55 0
0 0 0 0 0 0 0 0 0 0 0 0 0 0 0 0 0 189 736 546 441 117 0 0 2 7 0 0 0 0 0 3 0 2 4 0 0 0 0 2 36 26 114 98 88 96 71 95 90
0 0 0 0 0 0 0 0 0 0 0 0 0 0 0 0 0 0 718 473 305 98 0 0 1 4 4 0 0 0 0 3 2 1 0 6 7 1 0 50 60 77 94 93 102 95 88 58 86
0 0 0 0 0 0 0 0 0 0 0 0 0 1 0 0 0 0 542 402 231 112 0 0 3 3 4 0 0 0 0 4 1 7 4 0 0 0 0 3 16 54 70 113 106 67 82 108 76
0 0 0 0 0 0 0 0 0 0 0 0 0 0 0 0 0 0 366 409 256 177 0 0 4 3 4 4 0 1 0 0 0 1 0 0 0 0 0 0 0 3 34 63 81 48 32 79 104
0 0 0 0 0 0 5 0 2 0 0 0 0 0 0 0 0 0 118 422 271 174 7 0 0 3 3 4 3 2 5 0 0 0 4 5 10 5 7 7 4 8 1 4 18 48 28 40 81
0 0 0 0 0 0 10 6 2 0 0 0 0 9 6 0 0 2 0 511 346 204 118 0 0 0 0 3 4 4 12 19 3 2 0 0 2 9 2 8 17 11 17 6 12 25 47 51 95
0 0 0 0 0 0 0 3 0 7 11 35 37 8 6 6 18 17 1 535 455 357 244 29 0 0 1 0 2 0 11 17 2 3 0 0 0 0 1 4 8 9 11 2 8 3 3 45 30
17 0 0 0 0 0 0 0 0 0 0 4 5 0 13 9 13 75 126 230 522 506 352 171 6 0 10 9 0 2 9 9 4 15 12 0 0 0 0 0 0 0 1 2 0 0 0 0 21

GFSSGP_con_mucape_087.txt.gz
CAPE
0 0 0 0 0 0 0 0 0 0 0 0 0 0 0 0 62 541 1269 1367 1725 1595 1448 1436 1578 2031 1964 1940 1862 1875 2015 1974 1741 1794 1828 1741 1575 1518 1415 1284 1198 1326 1428 1064 805 492 622 597 874
0 0 0 0 0 0 0 0 0 0 0 0 0 0 0 207 793 1221 1295 1519 1772 1715 1612 1412 1529 1868 2139 1975 1871 1930 2078 2076 1808 1889 1978 1941 1816 1706 1595 1407 1362 1368 1466 1215 1009 914 686 848 696
0 0 0 0 0 0 0 0 0 0 0 0 0 0 0 200 669 1135 1375 1444 1808 1857 1822 1749 1496 1781 2175 2032 1920 1915 2018 2016 1830 1881 2125 2071 2007 1871 1781 1425 1163 1252 1429 1152 1096 781 916 759 473
0 0 0 0 0 0 0 0 0 0 0 0 0 0 0 177 540 1049 1084 1499 1368 1838 1913 1725 1556 1656 2169 2144 2053 1984 1998 1774 1069 774 1392 2300 2160 2037 1679 1225 1168 1253 1373 1313 862 795 785 537 460
0 0 0 0 0 0 0 0 0 0 0 0 0 0 24 910 1064 1001 871 1123 1465 1811 1876 1619 1367 1414 1914 2195 2179 2017 1714 984 406 180 222 351 1710 1797 1501 1123 1105 1058 1190 1250 741 619 317 150 85
0 0 0 0 0 0 0 0 0 0 0 0 0 0 39 743 684 831 886 948 1340 1535 1781 1796 1452 1239 1391 1664 1867 1164 1171 764 404 143 96 46 514 1294 1232 1055 968 827 958 677 459 212 129 9 3
0 0 0 0 0 0 0 0 0 0 0 0 0 0 247 465 825 767 701 942 887 1063 1187 1171 1407 1188 919 905 988 793 643 501 157 20 0 2 13 713 1037 925 885 824 597 415 210 87 40 0 0
0 0 0 0 0 0 0 0 0 0 0 0 0 0 47 798 780 489 286 339 470 775 737 1051 1065 1101 910 687 390 319 202 105 39 56 5 9 16 344 468 606 667 475 393 224 100 27 0 0 0
0 0 0 0 0 0 0 0 0 0 0 0 0 0 3 629 415 357 266 332 128 11 191 731 964 904 637 535 347 248 121 73 89 68 39 1 120 214 239 374 396 374 205 122 66 9 0 0 0
0 0 0 0 0 0 0 0 0 0 0 0 0 0 246 454 345 452 333 364 283 135 5 236 664 866 363 280 203 65 48 95 47 0 31 25 142 109 182 186 213 202 120 58 3 0 0 0 0
0 0 0 0 0 0 0 0 0 0 0 0 0 0 143 303 196 253 479 582 432 178 55 39 438 543 530 179 68 0 19 54 39 5 58 126 91 106 93 95 89 66 12 0 0 0 0 0 0
0 0 0 0 0 0 0 0 0 0 0 0 0 0 0 0 101 58 66 525 274 196 53 0 139 228 283 215 128 160 95 144 62 38 65 71 98 61 57 31 42 12 1 0 0 0 0 0 0
0 0 0 0 0 0 0 0 0 0 0 0 0 0 0 0 0 0 11 358 306 165 24 0 0 98 150 99 81 43 65 117 113 48 40 63 42 15 32 14 2 13 0 0 0 0 0 0 0
0 0 0 0 0 0 0 0 0 0 0 0 0 0 0 0 0 0 272 302 252 161 54 13 7 40 74 25 0 4 13 9 95 81 54 39 37 26 24 24 12 1 0 0 0 0 0 0 0
0 0 0 0 0 0 0 0 0 0 0 0 0 0 0 0 0 0 93 285 217 217 141 25 8 0 21 14 4 4 6 5 2 45 64 32 35 25 56 24 16 5 0 0 0 0 0 0 0
0 0 0 0 0 0 0 0 0 0 0 0 0 0 0 0 0 0 0 114 73 256 248 102 56 3 12 64 24 6 0 0 12 63 46 34 44 64 35 38 28 12 1 0 0 0 0 0 0
0 0 0 0 0 0 0 0 0 0 0 0 0 0 0 0 0 0 11 103 90 137 273 81 33 2 1 22 4 0 0 3 3 5 55 73 62 80 64 40 25 16 6 4 9 5 4 0 0
0 0 0 0 0 0 0 0 0 0 0 0 0 0 0 0 0 0 21 93 64 52 165 8 0 0 7 3 6 2 0 2 0 0 3 45 20 35 65 50 62 23 0 7 26 20 0 0 0
38 11 0 0 0 0 0 0 0 0 0 0 0 0 0 0 0 0 35 34 48 36 14 0 0 0 1 0 0 0 0 0 0 0 8 22 22 30 19 6 8 15 0 41 53 14 0 0 13
0 0 0 0 0 0 0 0 0 0 0 0 0 0 0 0 0 5 83 84 100 95 8 0 0 0 2 0 0 0 0 0 0 0 0 8 13 31 4 1 5 3 21 48 56 38 6 16 9
0 0 0 0 0 0 0 0 0 0 0 0 0 0 0 0 1 47 102 105 129 135 13 0 0 0 0 11 8 0 0 0 0 0 0 5 21 35 4 3 21 19 38 57 72 46 4 4 6
0 0 0 0 0 0 0 0 0 0 0 0 0 0 0 0 1 116 124 133 161 164 26 0 0 0 0 12 7 0 0 0 0 2 5 7 11 16 13 11 11 15 20 49 45 0 1 5 0
0 0 0 0 0 2 0 0 0 0 0 0 0 0 0 0 51 207 185 213 199 159 32 0 0 0 4 0 7 0 0 0 0 9 0 11 15 4 3 3 9 12 1 0 0 5 11 12 0
0 0 0 0 0 0 0 0 0 0 0 0 0 0 0 0 97 266 276 283 228 162 60 0 0 1 4 0 4 0 0 0 0 0 0 9 5 2 0 0 0 5 4 1 3 23 15 48 22
0 0 0 0 0 0 0 0 0 0 0 0 0 0 0 0 4 277 326 325 261 183 85 0 0 1 12 0 1 0 0 0 0 1 8 11 9 0 0 0 0 0 1 26 11 22 41 66 99
0 0 0 0 0 0 0 0 0 0 0 0 0 0 0 0 33 358 398 312 292 177 42 6 0 0 1 2 1 2 3 0 0 0 3 12 14 2 1 1 0 0 16 42 38 39 60 68 57
0 0 0 0 0 0 0 0 0 0 0 0 0 0 0 0 219 422 455 315 243 151 40 0 0 0 1 4 3 2 2 0 0 0 0 0 0 11 9 4 7 0 16 31 61 46 46 43 8
0 0 0 0 0 0 0 0 0 0 0 0 0 0 0 0 8 344 354 314 223 161 59 3 0 0 0 6 2 3 2 1 0 0 0 0 0 0 6 3 9 20 21 6 18 48 34 21 16
0 0 0 0 0 0 0 6 4 0 0 0 0 4 2 4 12 1 352 336 268 197 94 33 10 0 0 0 5 3 9 0 0 0 0 0 0 0 0 0 6 8 12 16 13 8 12 23 12
0 0 0 0 0 0 0 1 0 0 0 0 14 6 8 0 44 54 322 363 303 205 149 89 44 0 0 0 0 1 4 6 3 0 0 1 0 0 0 0 0 0 3 3 2 3 4 12 8

GFSSGP_con_mucape_090.txt.gz
CAPE
0 0 0 0 0 0 0 0 0 0 0 0 0 0 4 14 20 18 945 1303 1368 1259 1488 1822 1761 1812 1887 1870 1816 1958 1948 1823 1916 1853 1697 1622 1556 1505 1399 1358 1283 1393 1605 1165 984 962 959 787 1001
0 0 0 0 0 0 0 0 0 0 0 0 0 0 26 517 924 1147 1180 1492 1458 1403 1272 1588 1872 1849 1950 1904 1947 2069 2056 1824 2001 1944 1801 1746 1690 1644 1578 1422 1323 1415 1577 1111 579 1029 787 925 814
0 0 0 0 0 0 0 0 0 0 0 0 0 0 0 386 1096 1183 1174 1511 1692 1590 1484 1223 1713 1957 1941 1887 1919 2029 2100 1891 1935 2016 1987 1905 1820 1759 1609 1567 1547 1638 1555 1245 859 926 825 813 632
0 0 0 0 0 0 0 0 0 0 0 0 0 0 0 413 1154 1004 1546 1763 1824 1719 1673 1622 1451 1976 2006 1976 1986 2042 2081 1795 1848 1993 2095 2073 1983 1841 1747 1465 1485 1565 1479 1394 1262 1149 802 565 389
0 0 0 0 0 0 0 0 0 0 0 0 0 0 148 742 774 1298 1376 1749 1821 1834 1763 1644 1469 1674 2069 2182 2080 1989 1991 1649 1370 1224 921 450 436 918 1328 1340 1378 1292 1336 1207 1031 715 573 402 282
0 0 0 0 0 0 0 0 0 0 0 0 0 0 230 945 867 994 1293 1318 1715 1765 1664 1531 1328 1387 1925 2140 2102 1922 1799 1404 911 492 318 142 238 512 714 997 1254 1126 1012 903 687 625 482 275 5
0 0 0 0 0 0 0 0 0 0 0 0 0 0 474 850 702 698 1063 1387 1471 1636 1588 1060 1344 1086 1268 1619 2021 1924 1692 1199 667 277 182 163 87 62 167 570 803 738 615 584 504 311 165 26 0
0 0 0 0 0 0 0 0 0 0 0 0 0 56 443 529 663 700 843 898 1029 1226 849 884 873 1272 940 1067 1743 1428 1334 989 626 180 72 77 51 35 17 293 534 632 579 430 328 97 35 14 0
0 0 0 0 0 0 0 0 0 0 0 0 0 3 0 482 649 498 195 232 384 633 591 994 717 533 748 700 695 732 650 596 203 75 22 29 31 1 45 198 364 422 291 230 135 24 6 17 0
0 0 0 0 0 0 0 0 0 0 0 0 0 107 438 617 591 308 172 92 40 107 276 725 719 474 506 548 521 404 102 12 21 4 10 3 0 3 82 176 218 230 168 109 40 0 1 2 0
0 0 0 0 0 0 0 0 0 0 0 0 0 105 430 593 490 132 65 127 202 136 87 224 619 547 455 287 275 145 0 0 0 7 40 11 31 131 129 101 105 110 39 2 1 0 0 5 0
0 0 0 0 0 0 0 0 0 0 0 0 0 41 396 439 319 167 169 236 353 232 126 20 212 396 279 126 80 24 0 20 60 8 8 41 62 51 89 68 62 71 51 0 0 0 0 7 0
0 0 0 0 0 0 0 0 0 0 0 0 0 0 239 261 238 140 238 336 502 242 74 0 223 245 299 262 112 102 100 215 27 16 28 82 87 33 53 51 51 52 15 0 0 0 0 4 0
0 0 0 0 0 0 0 0 0 0 0 0 0 0 5 31 65 58 107 250 443 216 45 0 92 77 152 190 204 196 85 163 178 31 2 70 37 35 26 12 17 14 0 0 0 0 0 0 0
0 0 0 0 0 0 0 0 0 0 0 0 0 0 0 0 0 0 16 232 320 161 28 0 0 51 114 127 90 52 45 32 151 89 31 12 14 30 14 13 24 4 0 0 0 0 0 1 0
0 0 0 0 0 0 0 0 0 0 0 0 0 0 0 0 0 7 104 280 272 132 47 0 11 35 33 51 43 41 13 31 75 77 48 40 7 33 26 27 19 28 0 0 0 0 0 0 0
0 0 0 0 0 0 0 0 0 0 0 0 0 0 0 0 0 1 201 240 230 163 76 14 21 0 0 2 39 24 14 27 32 93 51 78 87 35 42 10 18 38 9 21 0 0 0 0 0
0 0 0 0 0 0 0 0 0 0 0 0 0 0 0 0 0 0 137 223 204 161 126 65 38 16 0 4 6 7 4 6 3 3 43 53 54 52 33 60 70 19 1 13 0 0 0 0 0
0 0 0 0 0 0 0 0 0 0 0 0 0 0 0 0 0 0 37 183 161 149 157 74 46 9 0 0 0 0 0 0 4 1 3 50 67 85 21 73 7 35 7 3 0 0 0 0 0
0 0 0 0 0 0 0 0 0 0 0 0 0 0 0 0 0 0 66 123 150 126 137 73 42 1 0 0 0 0 0 0 0 0 0 7 46 73 67 37 25 13 7 6 9 8 1 9 13
0 0 0 0 0 0 0 0 0 0 0 0 0 0 0 0 0 0 78 126 128 103 102 102 52 0 0 0 2 3 1 0 0 0 0 0 10 62 62 55 27 7 11 5 0 0 22 23 20
0 0 0 0 0 0 0 0 0 0 0 0 0 0 0 0 0 0 57 106 117 119 136 132 30 0 0 0 1 0 0 0 0 0 0 3 5 17 11 18 16 2 4 0 0 8 64 41 31
0 0 0 0 0 0 0 0 0 0 0 0 0 0 0 0 0 0 30 92 117 143 144 126 27 0 0 0 0 0 0 0 0 0 0 2 0 0 2 4 2 3 0 0 35 63 46 31 30
0 0 0 0 0 0 0 0 0 0 0 0 0 0 0 0 0 0 12 123 167 184 193 153 37 0 0 0 1 0 1 0 0 0 0 3 17 7 20 16 23 13 42 12 47 33 33 37 30
0 0 0 0 0 0 0 0 0 0 0 0 0 0 0 0 0 15 26 130 196 216 227 168 35 0 0 0 2 3 4 0 0 0 0 9 15 11 14 13 19 6 23 4 0 2 19 29 33
0 0 1 0 0 0 0 0 0 0 0 0 0 0 0 0 9 108 88 170 260 250 223 170 41 0 1 0 0 4 1 0 0 0 0 0 6 17 3 1 0 8 2 34 13 8 3 2 46
0 0 0 0 0 0 0 0 0 0 0 0 0 0 0 0 92 141 170 215 284 302 245 160 29 0 0 1 0 1 0 0 0 0 0 0 5 11 9 0 0 0 0 5 9 4 4 26 26
0 0 0 2 0 0 0 0 0 0 0 0 0 0 0 2 160 203 237 280 333 350 252 164 50 0 0 2 0 0 2 2 0 0 0 0 0 3 9 2 0 0 0 0 16 14 23 39 38
0 0 0 0 0 0 0 47 18 0 0 0 0 8 0 66 260 241 300 343 384 391 295 180 69 17 0 0 0 0 1 1 2 0 0 0 0 0 0 2 0 8 3 0 0 15 36 36 27
0 0 0 0 0 0 0 0 13 0 0 0 4 0 1 1 0 281 350 461 426 359 288 206 88 54 35 0 1 0 1 1 0 0 0 0 0 0 0 0 0 0 0 4 7 0 0 0 1

GFSSGP_con_mucape_093.txt.gz
CAPE
0 0 0 0 0 0 0 0 0 0 0 0 0 0 0 13 0 0 538 1018 1269 1263 1510 1499 1581 1788 1832 1717 1671 1802 1979 2013 1946 1872 1859 1867 1886 1890 1782 1733 1749 1798 1288 1009 1269 1453 1184 1110 1087
0 0 0 0 0 0 0 0 0 0 0 0 0 6 28 262 790 696 1034 1195 1343 1286 1574 1493 1543 1755 1894 1872 1939 1984 1970 1999 2017 1921 1896 1917 1892 1844 1780 1688 1677 1651 1549 1452 1287 1247 1165 1035 1020
0 0 0 0 0 0 0 0 0 0 0 0 0 0 13 179 925 945 954 1302 1113 1158 1525 1687 1562 1664 1892 1912 1976 2037 2013 2093 2011 1939 1927 1887 1892 1822 1766 1554 1608 1721 1761 1659 1346 1265 1008 914 654
0 0 0 0 0 0 0 0 0 0 0 0 0 0 3 457 1080 1066 1234 1382 1364 1166 1161 1537 1692 1638 1892 1959 2017 2165 2023 1944 1961 1903 1982 1943 1909 1883 1746 1563 1605 1775 1547 1501 1623 1236 862 577 370
0 0 0 0 0 0 0 0 0 0 0 0 0 0 23 864 1054 1118 1416 1536 1503 1451 1338 1204 1681 1798 1916 2086 2118 2120 1949 1875 1971 1990 1705 1911 1659 1550 1603 1332 1351 1406 1463 1307 1263 902 704 453 221
0 0 0 0 0 0 0 0 0 0 0 0 0 16 194 628 1076 1452 1634 1691 1658 1595 1627 1522 1352 1714 1999 2064 2019 2005 1851 1634 1598 1356 996 859 815 560 537 589 1121 1029 980 804 680 613 586 307 86
0 0 0 0 0 0 0 0 0 0 0 0 0 9 109 790 1145 1347 1531 1731 1656 1692 1686 1479 1349 1319 1797 2021 2005 1840 1673 1355 1082 899 679 763 379 312 294 435 656 721 682 587 542 467 311 123 18
0 0 0 0 0 0 0 0 0 0 0 0 0 6 184 852 937 1206 1269 1385 1496 1513 1497 1130 974 935 1016 1440 1898 1635 1446 1226 968 618 367 305 353 442 427 319 289 559 661 691 465 344 63 0 0
0 0 0 0 0 0 0 0 0 0 0 0 0 12 3 782 774 948 1195 1250 1277 1201 1184 892 714 702 721 903 1253 1254 1030 866 835 580 395 202 102 92 89 148 204 209 337 322 359 148 0 0 0
0 0 0 0 0 0 0 0 0 0 0 0 0 87 210 682 780 763 796 806 811 796 659 719 565 538 451 580 1045 1100 838 722 725 511 206 57 41 31 38 77 105 236 192 176 160 46 4 4 2
0 0 0 0 0 0 0 0 0 0 0 0 0 15 303 569 650 600 556 167 76 219 346 653 650 425 361 171 320 681 453 338 133 43 23 1 0 9 9 63 126 133 139 72 80 39 6 14 0
0 0 0 0 0 0 0 0 0 0 0 0 0 0 276 470 614 578 395 13 1 38 69 340 557 481 271 168 286 327 200 27 2 0 0 10 19 14 98 101 118 75 42 59 39 18 9 2 0
0 0 0 0 0 0 0 0 0 0 0 0 0 6 162 338 534 521 428 83 86 180 184 56 382 413 277 186 104 105 79 14 46 0 0 34 42 27 78 59 40 19 42 68 56 0 0 0 0
0 0 0 0 0 0 0 0 0 0 0 0 0 0 20 154 369 415 439 184 190 287 218 23 71 252 169 142 74 19 37 21 1 0 1 55 26 42 40 77 55 21 73 69 63 1 0 0 0
0 0 0 0 0 0 0 0 0 0 0 0 0 0 0 48 133 300 292 275 274 359 249 17 62 137 150 162 95 126 167 199 220 5 1 136 44 40 51 60 47 72 72 40 11 5 0 0 0
0 0 0 0 0 0 0 0 0 0 0 0 0 0 0 0 22 99 128 174 247 377 251 15 35 33 51 84 108 123 117 139 264 98 37 49 81 20 32 39 27 37 55 5 0 0 0 0 0
0 0 0 0 0 0 0 0 0 0 0 0 0 0 0 0 0 0 64 92 174 341 235 34 0 31 15 57 25 4 28 86 131 96 42 36 60 51 27 35 32 44 30 0 0 0 6 0 0
0 0 0 0 0 0 0 0 0 0 0 0 0 0 0 0 0 0 0 37 111 291 235 50 0 9 30 28 0 0 6 28 33 41 67 43 57 83 49 38 30 40 6 10 0 0 3 0 0
0 0 0 0 0 0 0 0 0 0 0 0 0 0 0 0 0 0 5 74 131 307 204 80 28 0 19 0 0 1 0 6 8 7 10 69 40 71 33 53 28 27 26 8 11 9 0 0 0
0 0 0 0 0 0 0 0 0 0 0 0 0 0 0 0 0 0 54 168 243 291 198 93 39 10 2 0 0 0 0 0 0 0 0 0 16 31 45 60 43 55 28 18 5 2 0 5 2
0 0 0 0 0 0 0 0 0 0 0 0 0 0 0 0 0 0 38 198 225 248 193 113 52 37 7 0 0 0 0 0 0 0 0 0 6 18 35 44 50 50 32 16 3 5 1 2 9
0 0 0 0 0 0 0 0 0 0 0 0 0 0 0 0 0 0 28 118 209 254 166 139 68 69 5 0 0 0 0 0 0 0 0 0 2 24 44 32 27 17 27 25 4 3 4 49 7
0 0 0 0 0 0 0 0 0 0 0 0 0 0 0 0 0 2 64 115 191 247 196 123 79 102 7 0 0 0 0 0 0 0 0 0 0 0 25 19 36 8 18 12 8 8 0 24 51
0 0 0 0 0 0 0 0 0 0 0 0 0 0 0 0 0 0 18 17 127 209 203 122 106 110 9 0 0 0 0 0 0 0 0 0 0 4 6 18 10 4 18 17 10 5 0 0 56
0 0 0 0 0 0 0 0 0 0 0 0 0 0 0 0 0 0 11 48 85 191 197 143 140 122 23 0 0 0 0 0 0 0 0 0 0 0 0 0 2 5 9 6 3 0 0 0 0
0 0 0 0 0 0 0 0 0 0 0 0 0 0 0 0 0 0 11 28 48 183 204 173 183 127 31 0 0 0 0 0 0 0 0 0 0 0 0 3 0 0 3 8 0 4 16 0 28
0 0 0 0 0 0 0 0 0 0 0 0 0 0 0 0 0 0 13 20 20 147 201 196 212 130 30 0 0 0 3 0 0 0 0 0 0 2 7 7 20 10 12 10 2 23 0 6 6
0 0 0 0 0 0 0 0 2 3 0 0 0 0 0 0 0 3 18 20 14 104 210 231 243 146 31 0 0 0 0 0 0 0 0 0 0 0 0 1 1 0 23 12 4 4 4 16 7
0 0 0 0 0 0 0 31 56 0 1 0 0 0 0 0 91 89 44 25 25 83 239 263 235 176 58 0 1 0 0 0 0 0 0 0 0 0 0 0 0 0 0 0 0 5 14 14 19
0 0 0 0 0 0 0 0 29 2 1 1 0 0 0 0 197 214 134 117 128 153 268 326 271 206 77 13 0 1 0 0 0 0 0 0 0 0 0 0 0 0 0 0 0 0 0 3 4

GFSSGP_con_mucape_096.txt.gz
CAPE
0 0 0 0 0 0 0 0 0 0 0 0 0 0 0 0 0 0 191 959 810 1028 1144 1387 1611 1725 1679 1704 1697 1781 2009 2151 2251 2214 2139 2100 2091 1992 1943 1945 1839 1782 1837 1618 1855 1618 1493 1223 1163
0 0 0 0 0 0 0 0 0 0 0 0 0 0 0 0 441 415 900 1015 1163 1015 1197 1352 1537 1737 1799 1743 1770 1924 2013 2150 2213 2251 2254 2236 2174 2045 2022 1950 1769 1686 1829 1728 1378 1354 1349 1281 1138
0 0 0 0 0 0 0 0 0 0 0 0 0 0 0 18 660 510 780 1013 1214 1256 1207 1317 1489 1652 1834 1807 1850 1983 1983 2014 2029 2092 2250 2283 2234 2108 1998 1878 1666 1509 1641 1828 1448 1302 1363 1198 945
0 0 0 0 0 0 0 0 0 0 0 0 0 0 0 299 757 741 936 1216 1278 1229 1362 1375 1451 1569 1837 1903 1952 1967 2028 1910 1886 2003 2122 2214 2051 2168 1857 1608 1507 1579 1661 1673 1526 1429 1249 892 661
0 0 0 0 0 0 0 0 0 0 0 0 0 0 0 502 894 938 1202 1171 989 1037 1314 1497 1432 1465 1815 2026 2054 2048 1981 1866 1884 1945 1855 1676 872 786 1191 1310 1264 1106 1178 1499 1383 1245 955 672 458
0 0 0 0 0 0 0 0 0 0 0 0 0 0 0 314 906 1272 1261 1186 1172 1024 987 1101 1634 1531 1722 1895 1907 1899 1719 1643 1804 1731 1683 1309 720 608 869 1093 764 801 839 957 1195 933 729 450 288
0 0 0 0 0 0 0 0 0 0 0 0 0 0 0 485 903 1346 1429 1476 1422 1321 1257 1216 1201 1638 1775 1833 1775 1725 1580 1556 1438 1189 1261 965 722 610 724 617 489 446 678 843 974 713 493 291 182
0 0 0 0 0 0 0 0 0 0 0 0 0 0 0 390 958 1403 1570 1666 1669 1577 1532 1518 1302 1166 1506 1775 1889 1717 1533 1204 999 889 766 425 194 245 121 88 237 445 547 654 827 486 283 196 143
0 0 0 0 0 0 0 0 0 0 0 0 0 0 0 454 1130 1327 1520 1651 1563 1496 1528 1419 1283 1068 908 1160 1511 1442 1320 1318 987 599 540 422 155 99 78 54 145 530 331 355 586 236 174 109 35
0 0 0 0 0 0 0 0 0 0 0 0 0 4 108 606 1025 1229 1277 1287 1547 1321 1326 1181 897 718 647 688 892 1045 951 1175 595 671 598 467 159 121 135 84 232 258 266 284 214 112 36 0 0
0 0 0 0 0 0 0 0 0 0 0 0 0 0 80 512 751 915 1024 1020 917 1073 1095 951 709 510 409 486 572 821 992 682 603 512 712 304 192 130 136 104 130 133 151 161 108 73 5 0 0
0 0 0 0 0 0 0 0 0 0 0 0 0 0 18 224 585 665 694 821 667 707 738 663 764 493 336 237 433 729 798 531 592 433 334 204 67 13 41 52 53 110 135 95 65 52 34 0 0
0 0 0 0 0 0 0 0 0 0 0 0 0 0 0 61 316 491 555 602 581 267 155 384 726 485 269 150 104 120 526 334 209 75 0 0 0 9 12 40 67 95 96 62 66 81 26 1 0
0 0 0 0 0 0 0 0 0 0 0 0 0 0 0 0 51 209 344 493 420 6 0 100 294 407 297 104 36 97 171 153 37 2 0 0 1 1 33 13 64 65 43 70 52 71 56 24 7
0 0 0 0 0 0 0 0 0 0 0 0 0 0 0 0 0 122 253 405 417 86 40 130 105 310 285 109 0 14 46 15 18 67 6 2 6 30 21 25 40 36 20 69 58 85 76 5 0
0 0 0 0 0 0 0 0 0 0 0 0 0 0 0 0 0 30 116 283 361 255 95 241 128 84 168 55 12 0 5 19 57 78 67 7 5 3 20 14 30 15 39 64 61 62 32 0 0
0 0 0 0 0 0 0 0 0 0 0 0 0 0 0 0 0 2 51 188 293 306 143 323 164 6 101 72 0 13 53 73 188 234 55 15 38 0 27 38 14 23 60 48 62 63 19 0 0
0 0 0 0 0 0 0 0 0 0 0 0 0 0 0 0 0 0 0 23 135 197 195 347 194 34 32 34 0 19 29 11 87 106 129 68 37 11 12 6 15 25 61 35 26 9 0 0 0
0 0 0 0 0 0 0 0 0 0 0 0 0 0 0 0 0 0 0 0 23 109 173 363 256 45 3 0 0 0 3 2 15 92 167 58 34 59 28 16 16 20 1 30 20 0 0 5 0
0 0 0 0 0 0 0 0 0 0 0 0 0 0 0 0 0 0 0 0 38 87 127 313 294 72 23 0 0 5 3 0 3 20 29 35 123 34 33 25 30 31 4 70 17 2 0 8 6
0 0 0 0 0 0 0 0 0 0 0 0 0 0 0 0 0 0 0 19 58 68 82 292 300 97 43 4 0 0 2 1 1 0 0 1 1 63 49 27 32 45 23 60 22 2 4 6 12
0 0 0 0 0 0 0 0 0 0 0 0 0 0 0 0 0 0 0 31 96 105 114 276 284 132 60 17 0 0 0 0 0 0 0 0 0 0 5 13 27 77 47 48 21 10 3 2 0
0 0 0 0 0 0 0 0 0 0 0 0 0 0 0 0 0 0 0 6 107 156 160 281 256 157 80 37 0 0 0 0 0 0 0 0 0 0 9 13 30 16 38 29 29 16 8 0 1
0 0 0 0 0 0 0 0 0 0 0 0 0 0 0 0 0 0 0 1 104 131 177 248 210 169 90 64 16 0 0 0 0 0 0 0 0 0 14 10 5 25 5 45 25 18 10 6 0
0 0 0 0 0 0 0 0 0 0 0 0 0 0 0 0 0 0 0 1 92 98 150 193 214 171 110 84 23 0 0 0 0 0 0 0 0 0 0 0 2 10 14 34 19 19 22 6 1
0 0 0 0 0 0 0 0 0 0 0 0 0 0 0 0 0 0 0 0 17 31 77 168 229 176 122 108 31 0 0 0 0 0 0 0 0 0 0 0 8 11 3 6 9 11 17 18 2
0 0 0 0 0 0 0 0 0 0 0 0 0 0 0 0 0 0 0 0 1 4 20 119 210 158 134 140 41 0 0 0 0 0 0 0 0 0 0 0 0 0 1 0 7 1 3 3 3
0 0 0 0 0 0 0 0 0 0 3 0 0 0 0 0 0 0 0 0 0 6 0 38 192 172 154 159 45 0 0 0 0 0 0 0 0 0 0 0 0 0 0 3 4 4 7 0 0
0 0 0 0 0 0 0 0 92 16 0 0 0 0 0 1 0 18 0 0 0 2 2 23 172 191 175 154 55 0 0 0 0 0 0 0 0 0 0 0 0 8 0 5 0 7 15 12 5
0 0 0 0 0 0 0 0 0 20 0 0 0 1 32 77 205 135 35 0 0 1 7 20 154 191 234 154 52 0 0 0 0 0 0 0 0 0 0 0 0 11 0 0 6 0 6 4 6

GFSSGP_con_mucape_099.txt.gz
CAPE
0 0 0 0 0 0 0 0 0 0 0 0 0 0 0 0 0 0 97 1134 1083 1409 1389 1346 1298 1554 1609 1534 1618 1901 2270 2374 2295 2233 2224 2193 2166 2141 2006 2043 2060 2007 2085 1964 1752 1633 1575 1381 1314
0 0 0 0 0 0 0 0 0 0 0 0 0 0 0 0 67 100 899 1069 1173 1430 1300 1470 1350 1510 1651 1594 1695 2043 2307 2420 2376 2361 2331 2303 2259 2163 2153 2059 1998 2051 2094 2220 1753 1636 1547 1454 1352
0 0 0 0 0 0 0 0 0 0 0 0 0 0 0 0 504 151 930 1175 1243 1311 1298 1530 1409 1466 1633 1636 1716 1932 2210 1840 2298 2335 2475 2464 2336 2233 2118 1704 1548 1955 1953 2041 1851 1690 1641 1380 1113
0 0 0 0 0 0 0 0 0 0 0 0 0 0 0 81 780 720 995 1325 1512 1361 1367 1287 1393 1471 1642 1753 1819 1914 1983 1910 1824 2220 2454 2529 2328 2252 1705 1322 1115 1903 1978 1896 1808 1674 1465 1103 857
0 0 0 0 0 0 0 0 0 0 0 0 0 0 0 447 708 1007 1388 1450 1623 1525 1270 1289 1331 1458 1651 1821 1942 1944 1814 1799 1907 2132 2277 2230 1416 1253 769 595 772 1106 1484 1600 1416 1363 1173 883 686
0 0 0 0 0 0 0 0 0 0 0 0 0 0 0 362 1164 1390 1463 1553 1535 1635 1651 1704 1321 1390 1608 1672 1670 1679 1740 1670 1702 1694 1670 1511 1280 966 732 733 983 1194 998 956 1037 1004 811 739 563
0 0 0 0 0 0 0 0 0 0 0 0 0 0 0 430 1121 1527 1453 1403 1352 1403 1513 1747 1941 1606 1512 1564 1512 1529 1567 1591 1435 1264 1291 1118 932 700 695 805 1070 993 798 949 874 881 571 536 317
0 0 0 0 0 0 0 0 0 0 0 0 0 0 0 205 1068 1472 1452 1483 1389 1265 1422 1405 1989 2110 2074 2105 1543 1500 1537 1433 1440 1136 962 712 566 608 705 852 736 586 651 752 585 513 371 338 247
0 0 0 0 0 0 0 0 0 0 0 0 0 0 15 302 951 1349 1170 1270 1381 1360 1408 1352 1466 1646 1988 2140 1776 1613 1480 1217 1240 868 869 626 652 532 766 390 399 554 470 466 468 346 215 275 254
0 0 0 0 0 0 0 0 0 0 0 0 0 1 184 537 1049 1390 1239 1158 1337 1445 1531 1550 1415 1329 1356 1297 1544 1571 1349 1189 1126 800 803 1099 642 601 277 104 80 300 281 374 348 229 173 222 165
0 0 0 0 0 0 0 0 0 0 0 0 0 0 23 506 1020 1299 1384 1261 1187 1063 1388 1459 1320 1151 958 751 1103 1314 1086 924 1026 710 564 506 418 581 208 346 272 474 250 246 158 102 243 237 169
0 0 0 0 0 0 0 0 0 0 0 0 0 0 0 51 762 1134 1205 1218 1006 828 1298 1168 1060 862 747 692 753 840 764 708 689 952 485 566 410 360 246 308 354 316 314 104 80 150 235 100 37
0 0 0 0 0 0 0 0 0 0 0 0 0 0 0 0 12 682 1026 1013 825 661 798 792 750 658 523 475 498 466 454 648 514 583 585 424 245 204 283 176 123 118 150 49 59 42 54 55 26
0 0 0 0 0 0 0 0 0 0 0 0 0 0 0 0 0 95 649 707 606 581 485 559 402 512 430 341 323 280 272 345 414 582 423 335 243 168 14 94 85 128 145 81 61 54 49 81 1
0 0 0 0 0 0 0 0 0 0 0 0 0 0 0 0 0 1 192 544 610 545 340 255 232 780 390 290 182 111 71 44 121 183 174 28 8 58 12 1 49 28 69 38 62 63 66 61 37
0 0 0 0 0 0 0 0 0 0 0 0 0 0 0 0 0 0 21 262 356 411 282 142 107 537 641 329 163 52 21 68 64 26 68 26 219 63 41 24 36 23 49 22 43 60 51 59 66
0 0 0 0 0 0 0 0 0 0 0 0 0 0 0 0 0 0 0 104 259 229 144 161 107 147 309 285 139 74 0 34 54 32 27 54 32 148 84 83 13 45 33 18 3 42 52 72 81
0 0 0 0 0 0 0 0 0 0 0 0 0 0 0 0 0 0 0 0 62 190 154 191 68 153 160 157 78 20 0 22 312 28 30 58 150 101 110 33 6 6 13 18 38 60 45 89 70
0 0 0 0 0 0 0 0 0 0 0 0 0 0 0 0 0 0 0 0 0 91 141 126 108 182 189 49 59 15 0 0 7 25 36 64 82 39 44 33 8 2 5 30 34 52 60 0 48
0 0 0 0 0 0 0 0 0 0 0 0 0 0 0 0 0 0 0 0 0 4 130 123 143 228 225 48 4 26 2 4 1 32 41 45 172 69 85 35 47 18 7 6 26 35 4 13 24
0 0 0 0 0 0 0 0 0 0 0 0 0 0 0 0 0 0 0 0 0 0 107 169 225 257 278 103 0 0 3 6 20 5 20 46 50 85 89 34 46 12 25 5 12 16 22 3 4
0 0 0 0 0 0 0 0 0 0 0 0 0 0 0 0 0 0 0 0 0 12 95 179 216 236 307 152 19 6 0 0 0 1 0 1 18 17 16 24 34 60 37 22 6 4 12 1 0
0 0 0 0 0 0 0 0 0 0 0 0 0 0 0 0 0 0 0 0 0 23 122 196 190 171 283 201 53 24 2 0 0 0 0 3 0 0 20 8 31 13 73 36 50 9 12 0 0
0 0 0 0 0 0 0 0 0 0 0 0 0 0 0 0 0 0 0 0 5 94 179 230 130 103 264 230 89 47 4 0 0 0 0 0 0 0 0 40 0 6 12 23 57 11 22 0 0
0 0 0 0 0 0 0 0 0 0 0 0 0 0 0 0 0 0 0 0 105 197 323 307 154 114 262 244 129 76 7 0 0 0 0 0 0 0 0 2 12 8 35 18 40 40 40 22 10
0 0 0 0 0 0 0 0 0 0 0 0 0 0 0 0 0 0 0 11 198 321 393 194 83 152 229 226 152 113 16 0 0 0 0 0 0 2 0 27 7 13 6 0 32 25 49 15 9
0 0 0 0 0 0 0 0 0 0 14 3 0 0 0 0 0 1 0 0 204 325 303 201 74 153 223 188 170 137 24 0 0 0 0 0 0 0 0 0 0 0 5 9 19 0 2 12 1
0 0 0 0 0 0 0 0 0 28 47 18 0 0 0 26 87 7 0 0 93 209 179 112 46 132 182 167 159 136 17 0 0 0 0 0 0 0 0 0 0 1 0 10 2 17 2 3 5
0 0 0 0 0 0 0 0 69 76 76 41 1 32 6 178 237 177 10 15 50 94 64 5 31 253 142 191 155 137 5 0 0 0 0 0 0 0 0 0 0 0 0 0 0 0 2 0 0
0 0 0 0 0 0 0 0 80 69 73 76 14 2 8 140 294 252 126 11 11 29 3 1 119 216 149 177 152 96 2 0 0 0 0 0 0 0 0 0 0 0 5 1 0 0 0 5 3

GFSSGP_con_mucape_102.txt.gz
CAPE
0 0 0 0 0 0 0 0 0 0 0 0 0 0 0 0 0 0 185 1404 1736 1722 1568 1231 1000 1593 1596 1691 1868 2183 2230 2320 2366 2302 2301 2357 2390 2399 2239 2226 2259 2218 2190 1896 1836 1800 1783 1605 1652
0 0 0 0 0 0 0 0 0 0 0 0 0 0 0 0 0 11 847 1351 1645 1594 1721 1610 1161 1550 1586 1754 2000 2295 2566 2528 2446 2431 2480 2456 2435 2335 2273 2247 2147 2200 2294 2181 1897 1799 1798 1695 1561
0 0 0 0 0 0 0 0 0 0 0 0 0 0 0 0 4 17 492 1250 1456 1483 1573 1794 1149 1445 1600 1583 1906 2187 2464 2444 2429 2464 2605 2563 2499 2269 2109 1993 1956 1752 1575 1935 1705 1797 1664 1630 1300
0 0 0 0 0 0 0 0 0 0 0 0 0 0 0 51 10 88 818 1333 1392 1480 1518 1492 1218 1374 1618 1624 1771 2102 2121 2071 2266 2419 2600 2607 2370 1600 1748 1524 1513 1224 1360 1535 1856 1792 1647 1264 1024
0 0 0 0 0 0 0 0 0 0 0 0 0 0 0 191 584 533 997 1453 1564 1757 1740 1952 1283 1375 1644 1778 1851 1911 1943 1745 1967 2303 2484 2416 1756 1659 1203 1164 1227 1200 1198 1201 1274 1346 1167 1061 841
0 0 0 0 0 0 0 0 0 0 0 0 0 0 0 332 970 906 1218 1606 1988 2182 2118 2084 1361 1374 1478 1714 1759 1659 1679 1775 1684 2171 2016 1612 1507 1182 1065 905 749 581 685 1086 1097 995 966 874 636
0 0 0 0 0 0 0 0 0 0 0 0 0 0 0 137 950 1404 1511 1709 2103 2445 2426 2379 2096 1834 1338 1328 1439 1495 1523 1641 1712 1747 1570 1206 1221 1052 892 856 815 501 851 974 1202 931 667 617 417
0 0 0 0 0 0 0 0 0 0 0 0 0 0 0 108 1324 1754 1603 1817 2184 2422 2457 2502 2420 2246 2248 2086 1281 1293 1466 1480 1474 1461 1402 1087 820 832 874 767 846 1108 864 750 816 699 476 361 250
0 0 0 0 0 0 0 0 0 0 0 0 0 0 0 176 1243 1818 1647 1591 1940 2159 2256 2347 2377 2343 2085 2118 1840 1379 1413 1454 1345 1186 957 989 1334 1122 823 597 765 826 714 613 648 402 195 183 163
0 0 0 0 0 0 0 0 0 0 0 0 0 0 0 70 868 1716 1671 1422 1737 2086 2222 2232 2299 2279 2248 1888 2236 2353 2285 2071 1856 1547 1346 1228 1113 1103 615 466 522 556 445 412 220 153 129 151 313
0 0 0 0 0 0 0 0 0 0 0 0 0 0 0 0 7 664 1454 1013 1274 1646 1994 2114 2282 2273 2133 1883 1701 1762 2002 1748 1794 1411 1495 1409 1360 1085 796 922 621 550 326 710 145 93 152 175 583
0 0 0 0 0 0 0 0 0 0 0 0 0 0 0 0 0 2 404 1270 1375 1449 1720 1933 2017 2159 2101 1630 1620 1492 1117 1300 1341 1223 1082 1121 1204 919 786 788 399 502 378 474 184 73 108 301 444
0 0 0 0 0 0 0 0 0 0 0 0 0 0 0 0 0 0 0 367 1136 1543 1586 1758 1787 1942 1764 1631 1287 1016 1203 1089 1035 912 555 774 894 637 279 351 497 609 835 251 132 59 111 505 355
0 0 0 0 0 0 0 0 0 0 0 0 0 0 0 0 0 0 0 44 814 1313 1461 1904 1595 1624 1553 1428 1351 1187 1192 887 789 617 411 477 722 598 618 569 507 740 755 407 129 72 103 495 399
0 0 0 0 0 0 0 0 0 0 0 0 0 0 0 0 0 0 0 0 403 909 1326 1680 1652 1421 1452 1349 1361 1054 756 1107 614 447 466 477 400 545 454 346 369 580 396 93 69 23 69 60 234
0 0 0 0 0 0 0 0 0 0 0 0 0 0 0 0 0 0 0 0 7 405 979 1405 1286 1176 958 1195 1221 899 654 841 765 479 322 366 432 482 443 340 256 274 142 39 2 19 53 47 157
0 0 0 0 0 0 0 0 0 0 0 0 0 0 0 0 0 0 0 0 0 182 699 1151 1348 1110 665 704 1037 922 594 371 608 428 455 388 517 419 391 281 67 62 17 58 17 38 34 33 165
0 0 0 0 0 0 0 0 0 0 0 0 0 0 0 0 0 0 0 0 0 52 552 952 1102 1144 460 426 1046 825 361 445 216 192 488 504 295 384 428 302 8 17 20 19 26 10 14 47 142
0 0 0 0 0 0 0 0 0 0 0 0 0 0 0 0 0 0 0 0 0 0 405 819 1001 1190 390 662 758 524 235 66 319 154 169 274 397 287 262 110 5 4 15 30 19 13 9 52 67
0 0 0 0 0 0 0 0 0 0 0 0 0 0 0 0 0 0 0 0 0 0 112 621 870 1116 837 979 859 547 336 196 103 105 176 402 419 274 232 40 26 4 5 26 16 5 20 40 58
0 0 0 0 0 0 0 0 0 0 0 0 0 0 0 0 0 0 0 0 0 0 9 424 701 1056 888 974 791 474 347 67 88 61 1 81 312 176 35 29 20 34 1 11 3 6 21 0 0
0 0 0 0 0 0 0 0 0 0 0 0 0 0 0 0 0 0 0 0 0 0 0 231 514 895 858 968 740 366 184 75 77 40 1 7 50 47 48 41 43 7 2 4 25 10 8 4 0
0 0 0 0 0 0 0 0 0 0 0 0 3 0 0 0 0 0 0 0 0 0 7 292 475 772 848 958 706 500 457 318 102 18 9 8 28 60 54 23 30 18 43 25 22 14 7 2 13
0 0 0 1 0 0 0 0 0 0 0 0 1 0 0 0 0 0 0 0 0 0 14 454 533 774 831 840 711 614 523 237 30 8 11 18 19 24 29 67 8 30 14 36 12 14 2 5 32
2 0 2 0 0 0 0 0 0 0 0 0 0 2 3 2 1 0 0 0 0 0 330 579 614 765 753 381 545 541 266 225 53 3 3 8 5 22 25 41 67 3 30 27 7 22 12 1 4
0 0 0 0 0 0 0 0 6 3 10 5 8 5 3 0 5 52 36 0 0 36 545 637 652 663 447 348 402 337 209 277 34 2 2 5 12 24 27 51 56 34 6 0 32 41 17 44 12
11 0 3 0 0 0 0 0 0 1 28 45 18 4 2 0 0 40 248 51 0 274 618 720 560 504 530 352 227 334 375 156 6 5 5 7 12 0 3 36 0 1 2 20 12 1 10 36 33
8 6 0 1 0 0 0 0 22 49 50 55 40 13 6 3 0 117 404 162 0 416 745 644 464 405 490 186 225 346 238 146 8 9 4 12 18 0 0 0 0 3 7 6 3 3 4 15 16
25 6 2 9 3 0 0 67 67 13 0 12 24 21 15 1 0 44 48 339 105 381 670 409 355 398 382 107 268 328 208 127 10 11 9 11 19 0 0 0 0 0 0 7 5 1 14 8 6
15 8 5 6 0 0 0 0 9 0 0 11 27 28 10 0 0 5 180 95 174 379 404 295 358 254 147 165 296 298 226 80 9 14 13 9 6 3 0 0 0 0 0 0 0 0 0 2 10

GFSSGP_con_mucape_105.txt.gz
CAPE
0 0 0 0 0 0 0 0 0 0 0 0 0 0 0 0 0 6 191 1377 1492 1392 1437 1161 1392 1583 1702 1748 1936 2159 2297 2304 2338 2314 2322 2354 2429 2461 2454 2505 2465 2401 2471 2058 1881 1763 1817 1698 1724
0 0 0 0 0 0 0 0 0 0 0 0 0 0 0 0 0 75 489 1126 830 835 1596 1457 1280 1551 1763 1945 2161 2322 2437 2436 2421 2381 2424 2268 2524 2498 2433 2349 2225 1981 1927 2071 1919 1713 1786 1747 1677
0 0 0 0 0 0 0 0 0 0 0 0 0 0 0 0 0 2 400 485 495 667 1317 1793 1119 1444 1676 1878 2128 2396 2443 2405 2395 2362 2523 2546 2567 2329 2080 2188 2056 1751 2082 1700 1593 1521 1638 1694 1418
0 0 0 0 0 0 0 0 0 0 0 0 0 0 0 0 0 26 251 374 551 641 998 1572 1022 1358 1580 1834 2105 2361 2405 2276 2254 2316 2499 2607 2341 1918 2069 1798 1964 1973 1807 2051 1995 1450 1348 1349 1197
0 0 0 0 0 0 0 0 0 0 0 0 0 0 0 1 13 156 434 523 666 892 1308 1910 1112 1338 1612 1759 2035 2199 2129 2146 2187 2337 2399 2498 2076 2100 1900 1638 1607 1747 1787 1699 1796 1741 1412 1189 1028
0 0 0 0 0 0 0 0 0 0 0 0 0 0 0 0 189 303 695 829 1020 1488 1706 2296 1250 1329 1522 1636 1678 1783 1762 1749 1957 2226 2241 1966 1886 1830 1584 1411 1388 1429 1479 1337 1535 1351 1270 1009 773
0 0 0 0 0 0 0 0 0 0 0 0 0 0 0 0 87 412 790 1178 1692 2027 2316 2547 1942 1610 1298 1381 1367 1399 1623 1605 1623 1875 1842 1586 1395 1163 1208 1060 966 958 1017 1309 1261 1028 857 708 577
0 0 0 0 0 0 0 0 0 0 0 0 0 0 0 189 485 1239 1013 1367 1947 2419 2554 2601 2425 2114 1993 1691 1253 1270 1318 1532 1596 1644 1721 1393 1028 904 1002 822 832 633 567 1029 1072 756 494 397 267
0 0 0 0 0 0 0 0 0 0 0 0 0 0 0 0 200 1384 1211 1435 1818 2222 2425 2481 2407 2248 2262 1981 1676 1161 1238 1285 1317 1519 1414 1361 1664 1468 1141 745 648 749 897 950 914 464 167 147 179
0 0 0 0 0 0 0 0 0 0 0 0 0 0 0 0 139 1130 1259 1357 1347 1759 2023 2067 2229 2170 2114 2098 2207 1969 1737 1809 1718 1452 1593 1753 1347 1483 1219 824 653 788 704 571 489 192 84 93 130
0 0 0 0 0 0 0 0 0 0 0 0 0 0 0 0 0 284 896 1069 1007 1217 1626 1776 2119 2218 2283 2168 2237 2170 2355 2411 2178 1844 1798 1775 1628 1833 1368 1540 676 721 494 606 228 121 170 38 50
0 0 0 0 0 0 0 0 0 0 0 0 0 0 0 0 0 0 59 738 887 1033 1470 1693 1935 2238 2315 1835 2166 1790 1987 2222 1962 1802 1771 1879 1806 1813 1616 1390 1018 1069 1065 729 803 492 115 10 74
0 0 0 0 0 0 0 0 0 0 0 0 0 0 0 0 0 0 0 11 383 746 1229 1812 1871 2224 2178 2112 1793 1627 1596 1751 1744 1712 1551 1684 1591 1453 1366 1219 1025 832 1111 775 641 405 39 39 68
0 0 0 0 0 0 0 0 0 0 0 0 0 0 0 0 0 0 0 0 4 398 1132 1835 1963 2046 2023 1976 1719 1526 1368 1109 1480 1438 1378 1478 1551 1472 1178 978 740 570 1014 884 760 305 68 50 45
0 0 0 0 0 0 0 0 0 0 0 0 0 0 0 0 0 0 0 0 0 2 540 1906 2143 2059 2030 1863 1844 1673 1295 1102 1085 945 1218 1182 1275 1190 897 687 576 641 1144 724 590 287 67 96 103
0 0 0 0 0 0 0 0 0 0 0 0 0 0 0 0 0 0 0 0 0 0 175 1362 1975 2117 1981 1834 1757 1577 1077 1041 1108 941 1125 1138 1116 1086 1029 908 858 802 800 436 262 130 40 45 93
0 0 0 0 0 0 0 0 0 0 0 0 0 0 0 0 0 0 0 0 0 0 0 838 1965 2152 1962 1817 1736 1640 1215 959 744 826 894 926 861 1000 897 818 774 919 599 81 38 69 48 59 64
0 0 0 0 0 0 0 0 0 0 0 0 0 0 0 0 0 0 0 0 0 0 0 423 1715 2140 2047 1589 1653 1533 1252 936 704 753 716 681 895 1074 793 674 558 500 177 48 12 11 25 35 50
0 0 0 0 1 0 0 0 0 0 0 0 0 0 0 0 0 0 0 0 0 0 0 468 1466 2005 1827 1079 1355 1502 1294 472 657 392 607 873 714 835 771 522 3 1 2 11 18 27 7 24 46
0 0 0 0 0 0 0 0 0 0 0 0 0 0 0 0 0 0 0 0 0 0 0 341 932 1477 1814 1095 1135 1380 1152 416 674 632 522 486 356 620 627 300 2 0 0 0 31 39 3 27 9
0 0 0 0 0 0 0 0 0 0 0 0 0 0 0 0 0 0 0 0 0 0 0 0 565 1079 1658 1105 1208 1319 1070 545 457 442 487 490 432 666 553 315 7 1 1 0 35 29 32 28 10
0 0 0 0 0 0 0 0 0 0 0 0 0 0 0 0 0 0 0 0 0 0 3 0 150 738 1300 1296 1313 1485 1081 787 578 607 190 372 443 350 383 124 7 11 0 3 5 11 30 7 0
0 0 0 0 0 0 0 0 0 0 0 0 0 0 0 2 0 0 0 0 0 0 4 44 17 416 1008 1497 1527 1710 1130 925 699 590 353 191 281 151 199 92 73 8 0 1 8 15 69 5 0
0 0 0 0 0 1 0 0 0 1 2 0 10 7 12 20 27 27 18 0 0 0 0 29 38 266 972 1404 1672 1790 1160 1029 842 661 280 56 138 146 146 95 21 16 9 0 8 15 40 52 25
0 0 3 8 8 4 0 0 0 39 34 1 9 24 37 40 51 42 40 114 4 0 0 45 99 292 879 1412 1590 1436 1131 1160 969 575 230 147 39 28 111 227 117 16 9 1 4 11 20 20 11
0 0 0 7 0 5 0 0 44 63 67 14 34 31 23 23 21 11 33 312 187 2 0 0 27 455 642 1244 1364 1471 1242 1200 851 547 224 113 45 12 13 27 94 50 29 13 0 2 2 9 10
24 0 5 0 0 0 4 76 142 94 64 33 33 36 36 25 10 3 0 12 358 166 0 30 372 580 688 1269 1344 1410 1457 1078 885 532 179 113 61 10 24 25 35 27 33 2 20 17 11 12 7
50 60 0 0 0 0 0 0 163 37 12 10 10 50 15 8 5 0 0 4 35 131 65 625 844 745 953 645 628 1029 951 1132 761 395 160 98 10 6 16 14 19 51 39 15 4 9 1 4 6
76 61 77 58 102 0 0 134 79 11 6 16 40 41 7 9 0 0 0 98 87 128 645 940 897 857 590 407 820 673 882 1027 628 254 89 39 6 32 6 12 0 0 0 5 1 2 1 12 13
94 111 92 31 2 18 73 75 30 3 2 25 69 25 4 0 0 0 0 207 113 234 585 626 869 534 405 458 676 511 1108 781 481 222 70 27 2 10 6 11 0 0 2 3 2 0 5 0 0

GFSSGP_con_mucape_108.txt.gz
CAPE
0 0 0 0 0 0 0 0 0 0 0 0 0 0 0 0 0 104 898 1316 1813 1245 1109 1173 1357 1593 1723 1806 1943 2082 2160 2201 2216 2185 2239 2279 2349 2450 2528 2503 2444 2494 2004 2149 1966 1953 1891 1612 1786
0 0 0 0 0 0 0 0 0 0 0 0 0 0 0 0 10 179 822 1089 1424 1323 1127 1240 1276 1506 1694 1840 2075 2241 2388 2346 2268 2233 2309 2349 2426 2371 2416 2475 2316 2136 2115 1924 1730 1866 1837 1818 1685
0 0 0 0 0 0 0 0 0 0 0 0 0 0 0 0 0 115 798 601 808 1315 1252 1355 1238 1376 1673 1820 2071 2218 2285 2264 2278 2220 2397 2441 2408 2242 2382 2220 2199 2063 2250 2291 1647 1735 1874 1682 1421
0 0 0 0 0 0 0 0 0 0 0 0 0 0 0 0 0 212 352 309 548 1052 1628 917 1130 1277 1646 1883 2139 2257 2206 2114 2149 2191 2356 2497 2296 2144 2274 2017 2067 2083 2125 2239 2128 2138 1743 1323 1218
0 0 0 0 0 0 0 0 0 0 0 0 0 0 0 0 0 177 248 454 788 1871 1693 1124 1069 1217 1586 1904 2163 2228 2119 2051 2041 2207 2302 2364 2263 2227 1976 1857 1945 1891 1951 2261 2094 1847 1457 1191 1097
0 0 0 0 0 0 0 0 0 0 0 0 0 0 0 0 16 269 557 1011 1680 2567 2341 1336 1134 1220 1365 1646 1823 1903 1997 1936 1776 1776 2105 2289 2088 1946 1804 1730 1785 1759 1705 1708 1639 1482 1262 1046 960
0 0 0 0 0 0 0 0 0 0 0 0 0 0 0 0 68 358 994 1725 2246 2660 2782 1932 1483 1318 1155 1149 1261 1535 1694 1700 1518 1601 1954 1960 1758 1702 1636 1529 1526 1512 1398 1282 1403 1235 1040 788 791
0 0 0 0 0 0 0 0 0 0 0 0 0 0 0 9 121 479 1119 1991 2794 2886 3062 2302 1980 1605 1484 1303 963 1163 1408 1375 1534 1566 1728 1714 1508 1386 1153 1072 1119 1051 1106 1111 959 804 665 494 340
0 0 0 0 0 0 0 0 0 0 0 0 0 0 0 9 689 811 988 1661 2463 2725 2798 2870 2344 1950 1858 1622 1178 947 1047 1254 1303 1426 1507 1576 1421 1103 935 763 659 652 405 829 816 610 427 152 115
0 0 0 0 0 0 0 0 0 0 0 0 0 0 0 0 81 1035 1014 1289 2063 2502 2646 2600 2488 2207 2231 1514 1525 1368 1315 1240 1252 1489 1418 1538 1519 1392 1088 743 604 546 504 674 562 348 171 70 95
0 0 0 0 0 0 0 0 0 0 0 0 0 0 0 0 0 272 804 1164 1806 2063 2176 2158 2525 2454 2293 1577 2007 1687 1556 1516 1447 1432 1655 1593 1357 1363 1062 1045 496 555 579 618 320 137 46 34 44
0 0 0 0 0 0 0 0 0 0 0 0 0 0 0 0 0 0 215 739 1107 1431 1755 1889 2189 2639 2167 1806 2185 2050 1818 1957 1855 1807 1581 1443 1290 1155 1129 1092 893 686 504 562 214 95 87 8 19
0 0 0 0 0 0 0 0 0 0 0 0 0 0 0 0 0 0 0 54 599 1025 1523 1699 2045 2317 2488 2647 2051 1768 1927 1894 1923 1672 1618 1402 1309 1140 1134 1001 1008 835 805 597 348 199 60 5 33
0 0 0 0 0 0 0 0 0 0 0 0 0 0 0 0 0 0 0 0 7 507 1261 1778 1881 2355 2401 2053 2355 1803 1746 1699 1471 1462 1292 1469 1308 1137 931 904 807 738 737 580 471 281 62 17 38
0 0 0 0 0 0 0 0 0 0 0 0 0 0 0 0 0 0 0 0 0 2 860 1900 1939 2511 2284 2097 2138 1692 1367 1051 1018 1108 1005 1590 1372 1073 775 803 754 659 605 609 368 317 73 40 50
0 0 0 0 0 0 1 0 0 0 0 0 0 0 0 0 0 0 0 0 0 0 5 2058 1999 2197 2309 2082 1952 1541 1556 1092 826 836 1011 999 1077 1149 900 740 770 370 531 434 406 268 182 67 46
0 0 0 0 0 0 0 0 0 0 0 0 0 0 0 0 0 0 0 0 0 0 0 2052 2022 2252 2120 2151 1835 1706 1684 1244 1022 672 671 1130 912 954 842 632 520 478 393 345 297 213 92 66 54
0 0 0 0 0 0 0 0 0 0 0 0 0 0 0 0 0 0 0 0 0 0 0 1829 2188 2337 2043 1942 1822 1627 1525 1017 907 703 739 749 655 904 953 706 499 316 312 220 137 51 57 30 35
0 4 5 0 0 0 0 0 0 0 0 0 0 0 0 0 0 0 0 0 0 0 0 1028 2131 2323 2025 1870 1723 1577 1399 1125 792 657 545 482 599 759 853 520 308 408 110 195 31 16 35 60 51
0 2 5 3 2 0 0 3 4 0 0 0 0 0 0 0 0 0 0 0 0 0 0 447 1967 2289 1972 1832 1579 1479 1392 1062 771 360 356 583 660 798 649 377 170 29 28 33 2 0 16 38 32
0 0 8 0 3 0 0 0 0 0 0 0 0 0 0 0 0 0 0 0 17 12 37 4 554 2125 1896 1596 1214 1148 1305 1119 805 467 336 373 539 461 538 244 72 17 0 2 1 3 9 68 19
0 0 18 0 0 1 0 0 0 0 0 0 0 0 0 0 0 0 0 0 1 24 85 6 69 1152 1802 1607 1175 882 1070 1033 822 458 225 304 306 425 415 156 51 1 0 0 0 0 0 21 5
0 9 4 0 0 0 0 0 0 0 0 0 0 2 0 0 0 0 0 0 0 0 0 71 23 336 1318 1529 1260 1003 1235 993 487 441 298 193 447 308 358 170 38 1 0 3 0 0 0 8 27
3 0 0 0 0 2 0 0 0 0 0 8 39 0 3 19 16 16 10 20 11 0 0 0 75 74 662 1512 1255 1255 1247 938 638 607 431 216 197 260 207 98 31 2 0 0 1 0 0 2 31
0 0 0 0 4 0 0 0 0 15 49 107 39 55 23 26 11 5 2 1 11 103 163 0 0 29 283 1464 1385 1344 1471 1135 810 637 450 204 136 119 145 98 48 10 0 0 12 0 0 1 1
0 0 0 0 2 0 0 0 0 26 133 99 126 113 22 1 2 0 0 0 0 81 191 31 0 9 165 1167 1532 1254 1648 1138 1006 791 538 288 100 57 18 117 22 18 5 1 7 5 0 3 8
0 0 0 0 0 1 0 86 11 53 140 157 119 72 18 10 4 0 0 0 0 62 64 81 2 0 80 771 1460 1276 1426 1134 1175 818 622 342 171 23 0 31 74 14 1 0 0 1 1 18 8
28 9 0 3 0 0 0 11 111 34 49 75 105 30 14 0 0 0 0 0 0 0 6 46 114 0 312 1090 1268 1423 1247 1227 1102 820 546 355 215 64 0 2 15 33 10 10 4 0 1 5 1
32 25 17 4 0 0 0 144 8 1 0 71 10 0 0 0 0 0 0 0 1 0 279 451 673 698 1109 1281 1221 1194 1164 1137 1065 730 565 365 160 37 0 5 11 22 27 8 4 0 2 12 1
0 2 6 67 3 0 3 1 0 84 63 17 0 0 0 0 0 0 0 0 35 5 173 402 549 639 776 851 931 947 920 979 1011 866 483 292 142 0 1 35 3 11 11 6 0 0 0 4 0

GFSSGP_con_mucape_111.txt.gz
CAPE
0 0 0 0 0 0 0 0 0 0 0 0 0 0 0 0 31 342 972 728 690 905 1118 1231 1295 1447 1554 1673 1810 1760 1900 2027 2063 2046 2001 2079 2207 2280 2270 2291 2467 2606 2612 2137 1933 1890 1788 1805 1658
0 0 0 0 0 0 0 0 0 0 0 0 0 0 0 0 593 1105 1305 939 823 827 997 1075 1217 1390 1535 1630 1740 1913 2114 2127 2079 2120 2139 2209 2302 2296 2318 2213 2181 2148 2416 2372 2010 2068 1904 1746 1647
0 0 0 0 0 0 0 0 0 0 0 0 0 0 0 0 520 667 1386 1095 785 814 984 1134 1150 1332 1538 1669 1825 1961 2039 2017 2030 2099 2279 2349 2350 2319 2327 2080 1999 2096 2352 2415 1978 2113 1949 1657 1383
0 0 0 0 0 0 0 0 0 0 0 0 0 0 0 0 389 810 1107 1070 762 1022 1116 1001 1091 1283 1557 1782 1910 1986 1759 1812 1895 2016 2283 2418 2340 2340 2195 1913 1947 2145 2373 2305 2299 1936 1836 1335 1179
0 0 0 0 0 0 0 0 0 0 0 0 0 0 0 12 413 376 917 1059 1082 1328 875 921 1020 1245 1576 1918 2000 1944 1660 1828 1894 1996 2153 2309 2224 2230 1933 1787 1854 1932 2189 2280 2281 1991 1468 1183 1088
0 0 0 0 0 0 0 0 0 0 0 0 0 0 0 37 79 131 409 1583 1524 1384 859 891 1022 1204 1494 1820 1857 1821 1790 1814 1839 1952 2039 2169 2016 1875 1789 1740 1723 1685 1850 1916 1805 1505 1259 1111 1015
0 0 0 0 0 0 0 0 0 0 0 0 0 0 0 3 1 283 982 1846 1715 1280 846 942 1043 1088 1258 1474 1644 1727 1750 1631 1364 1409 1814 1964 1773 1585 1529 1619 1674 1596 1539 1528 1447 1237 1092 996 866
0 0 0 0 0 0 0 0 0 0 0 0 0 0 1 0 38 691 1280 2069 2139 1690 1115 897 952 918 907 1039 1274 1440 1605 1426 1153 1159 1380 1829 1631 1467 1294 1331 1412 1423 1305 1325 1278 1020 921 724 740
0 0 0 0 0 0 0 0 0 0 0 0 0 0 214 272 450 909 1641 1887 2484 2094 1751 1190 1040 959 880 792 899 1141 1248 1359 1346 1304 1552 1649 1518 1376 1213 1009 1013 1050 1009 1003 853 738 540 478 305
0 0 0 0 0 0 0 0 0 0 0 0 0 0 34 453 598 900 1576 1867 2073 2515 2154 1618 1237 1135 1101 1052 820 777 923 1100 1159 1327 1423 1437 1295 1254 975 774 641 577 550 745 654 519 352 158 48
0 0 0 0 0 0 0 0 0 0 0 0 0 0 0 0 78 761 1189 1881 2138 2238 2499 2145 1753 1472 1405 1373 1069 764 756 785 905 1146 1161 1218 1211 1091 835 577 444 256 152 444 548 400 303 104 37
0 0 0 0 0 0 0 0 0 0 0 0 0 0 0 0 0 57 902 1455 2007 2315 2357 2367 2077 1814 1762 1424 1360 1023 979 839 845 797 1094 1036 1133 1094 896 719 506 329 272 333 379 247 189 90 16
0 0 0 0 0 0 0 0 0 0 0 0 0 0 0 0 0 0 19 624 1719 2038 2148 2196 2135 2006 1989 1716 1611 1442 1288 1089 1154 1031 988 1132 1044 862 858 929 673 455 351 309 267 116 93 74 14
0 0 0 0 0 0 0 0 0 0 0 0 0 0 0 0 0 0 0 0 795 1706 1868 1983 1969 2070 1889 1708 1779 1666 1630 1669 1585 1395 1327 1089 875 707 661 713 733 652 544 362 278 174 58 25 1
0 0 0 0 0 0 0 0 0 0 0 0 0 0 0 0 0 0 0 0 0 517 1562 1731 1826 2083 1923 1699 1820 1756 1340 1631 1624 1350 1220 1034 960 888 755 679 593 590 563 488 198 75 40 23 8
0 0 0 0 0 0 0 0 0 0 0 0 0 0 0 0 0 0 0 0 0 0 950 1510 1711 1918 2083 1752 1897 1813 1608 1188 1094 793 843 800 974 831 695 651 563 520 524 379 219 139 94 68 31
0 0 0 0 0 0 0 0 0 0 0 0 0 0 0 0 0 0 0 0 0 0 6 1439 1663 1906 2007 1913 1615 1562 1462 1206 894 735 720 573 784 939 717 526 532 514 437 340 240 205 102 102 23
0 0 0 0 0 0 0 0 0 0 0 0 0 0 0 0 0 0 0 0 0 0 0 1390 1581 1987 1981 1974 1683 1586 1490 1252 1108 663 542 434 442 733 677 548 487 369 321 215 151 79 84 82 32
0 3 0 0 0 0 0 0 0 0 0 0 0 0 0 0 0 0 0 0 0 0 0 1533 1581 1976 2013 1966 1649 1612 1312 1310 1102 812 541 302 400 587 610 594 413 357 313 260 443 157 98 108 41
0 0 4 0 0 21 20 0 0 0 0 0 0 0 0 0 0 0 0 0 0 0 0 1659 1747 1885 1905 1923 1614 1477 1382 1205 1080 771 556 385 391 501 725 695 482 358 208 181 45 305 175 39 16
0 0 0 2 4 23 22 4 0 0 0 0 0 0 0 0 0 0 0 0 0 0 0 1443 1875 2005 1868 1761 1731 1433 1438 1302 1045 874 635 467 404 384 478 638 416 199 184 45 20 162 64 25 30
0 0 0 14 44 40 44 28 7 0 0 0 0 0 0 0 0 0 0 0 0 0 0 448 2011 2040 1917 1754 1710 1475 1421 1275 1190 990 724 464 418 409 725 664 359 187 46 5 88 5 2 7 14
0 0 0 21 40 15 37 26 2 0 0 0 0 2 26 13 4 0 0 0 0 4 3 3 395 1929 1783 1771 1598 1515 1248 1091 1225 1181 1012 637 209 457 417 394 275 64 21 0 0 2 2 7 11
1 30 115 26 15 7 0 0 1 2 0 42 71 33 11 2 0 2 3 5 0 2 35 22 3 35 1401 1603 1523 1297 1150 1016 1028 1116 1092 722 256 241 335 304 187 23 15 0 0 0 1 5 11
12 108 2 3 10 0 0 0 15 40 216 219 132 60 23 6 0 0 0 0 0 1 11 31 14 0 18 1388 1391 1226 928 993 1093 1100 1063 563 306 219 265 284 106 119 17 0 0 0 3 1 18
3 4 2 0 0 0 0 0 0 20 218 245 94 56 35 8 21 0 0 0 0 0 0 17 74 14 0 729 1333 1137 1022 866 1206 1064 907 507 315 316 155 219 126 46 4 1 0 0 9 10 0
1 0 16 30 4 0 0 0 62 155 241 115 46 8 2 16 31 0 0 0 0 0 0 17 76 48 0 39 1203 1149 1066 1044 1107 1091 896 781 441 195 151 201 153 43 3 3 0 0 5 5 0
3 0 10 10 0 3 10 16 54 52 49 38 18 22 8 9 4 1 0 0 0 0 0 0 107 128 144 16 1149 1226 1229 1231 1016 1002 844 724 654 359 156 147 89 49 0 5 14 6 0 6 10
22 12 0 50 0 0 0 9 2 5 0 0 28 5 3 0 0 0 0 0 0 0 0 0 208 333 486 323 1162 1201 1134 1119 1041 929 963 1112 728 449 128 108 190 151 25 0 10 3 6 13 1
10 43 0 0 0 1 26 0 0 2 0 0 0 0 0 0 0 0 0 0 0 0 0 20 191 175 320 583 1070 1103 989 902 778 764 809 1030 736 323 163 30 8 49 5 13 10 6 12 7 13

GFSSGP_con_mucape_114.txt.gz
CAPE
0 0 0 0 0 0 0 0 0 0 0 0 0 0 0 0 0 12 745 722 794 857 949 1181 1364 1577 1656 1574 1531 1634 1769 1823 1736 1815 1835 1959 2080 2128 2172 2298 2425 2518 2441 2024 1992 1969 1926 1752 1793
0 0 0 0 0 0 0 0 0 0 0 0 0 0 0 465 838 899 855 791 904 998 1028 1094 1207 1388 1589 1676 1612 1745 1912 1889 1928 1916 1981 2090 2162 2167 2248 2264 2283 2521 2550 2064 2007 2014 1859 1701 1720
0 0 0 0 0 0 0 0 0 0 0 0 0 0 0 318 1080 909 724 755 922 1057 1092 1117 1171 1278 1447 1540 1692 1797 1930 1872 1899 1957 2135 2199 2272 2284 2237 2040 1822 2224 2647 2355 2213 2125 1791 1638 1423
0 0 0 0 0 0 0 0 0 0 0 0 0 0 0 594 1016 1100 728 630 718 904 984 1149 1162 1280 1489 1642 1763 1829 1820 1700 1742 1920 2186 2297 2349 2389 2129 1847 1771 2193 2534 2533 2421 2156 1717 1273 1215
0 0 0 0 0 0 0 0 0 0 0 0 0 0 19 571 989 1009 735 531 694 862 941 1041 1131 1313 1588 1860 1914 1760 1404 1578 1693 1930 2091 2220 2299 2333 1970 1744 1772 1986 2334 2404 2414 1945 1422 1158 1119
0 0 0 0 0 0 0 0 0 0 0 0 0 0 0 236 1169 953 560 604 946 794 857 881 1068 1349 1623 1808 1821 1525 1298 1393 1664 1857 1963 2074 2066 1994 1783 1714 1672 1710 1952 2018 1810 1508 1287 1100 1061
0 0 0 0 0 0 0 0 0 0 0 0 0 0 0 668 950 899 875 1128 996 736 791 857 1034 1271 1565 1671 1728 1657 1531 1594 1640 1772 1867 1872 1702 1663 1605 1658 1600 1542 1650 1695 1553 1301 1155 1077 1038
0 0 0 0 0 0 0 0 0 0 0 0 0 0 159 481 625 1344 1309 1240 1048 684 740 815 950 1133 1348 1548 1630 1671 1678 1502 1323 1620 1752 1746 1562 1432 1448 1550 1464 1381 1496 1472 1392 1191 1096 1066 944
0 0 0 0 0 0 0 0 0 0 0 0 0 0 27 170 1104 1516 1699 1569 1140 804 681 767 823 891 1039 1312 1512 1601 1626 1370 1076 1127 1209 1710 1511 1365 1253 1350 1431 1242 1089 1217 1193 1080 1025 929 764
0 0 0 0 0 0 0 0 0 0 0 0 4 130 80 790 1173 1377 1666 1821 1643 1142 813 770 785 721 759 883 1205 1372 1491 1269 1081 1112 1233 1602 1504 1316 1125 1051 1197 1183 916 1002 932 853 791 628 424
0 0 0 0 0 0 0 0 0 0 0 0 15 299 386 928 1114 1264 1442 1872 2008 1690 1264 993 823 734 668 706 829 986 1130 1190 1219 1252 1354 1528 1388 1285 1086 838 785 661 728 728 711 601 403 275 71
0 0 0 0 0 0 0 0 0 0 0 0 0 446 423 570 846 1172 1426 1630 1933 2136 1875 1507 1003 878 822 849 555 607 754 835 902 1124 1209 1290 1260 1098 1038 725 498 401 361 506 516 463 289 153 36
0 0 0 0 0 0 0 0 0 0 0 0 0 0 381 655 657 849 1301 1583 1858 2258 2249 1971 1497 1152 1091 1145 685 557 548 552 556 780 928 908 1111 1045 941 695 463 297 178 226 281 269 272 209 74
0 0 0 0 0 0 0 0 0 0 0 0 0 0 0 0 39 543 978 1302 1876 2115 2306 2190 2046 1695 1374 1388 1255 912 730 638 561 505 585 889 883 977 950 660 552 443 337 292 331 342 250 189 105
0 0 0 0 0 0 0 0 0 0 0 0 0 0 0 0 0 0 6 232 1575 1969 2176 2321 2218 2020 1829 1632 1432 1224 1173 1014 924 885 803 847 939 863 812 850 794 759 389 389 352 308 335 212 66
0 0 0 0 0 0 0 0 0 0 0 0 0 0 0 0 0 0 0 0 102 1524 1962 2174 2269 2100 1983 1824 1710 1425 1451 1451 1503 1301 1193 1145 1074 871 732 575 613 633 548 472 416 336 235 89 0
0 0 0 0 0 0 0 0 0 0 0 0 0 0 0 0 0 0 0 0 0 0 1374 1852 2113 2112 2076 1908 1820 1547 1630 1757 1753 1636 1508 1344 992 831 815 654 568 517 506 504 490 344 253 123 23
0 0 0 0 0 0 0 0 0 0 0 0 0 0 0 0 0 0 0 0 0 0 2 1306 1822 1970 2031 1933 1819 1685 1789 1622 1621 1590 1294 1055 810 779 830 725 619 499 504 458 383 362 337 164 106
0 0 0 0 0 0 0 0 0 0 0 0 0 0 0 0 0 0 0 0 0 0 0 783 1384 1751 1952 1959 1798 1915 1921 1759 1485 1164 952 698 552 621 695 700 537 456 391 312 361 318 267 259 213
0 0 0 0 0 30 16 4 0 0 0 0 0 0 0 0 0 0 0 0 0 0 0 380 1130 1656 1860 1902 1901 1742 1598 1524 1420 1252 970 592 510 383 489 666 431 454 446 288 264 471 481 220 177
0 0 0 0 0 0 71 0 0 0 0 0 0 0 0 0 0 0 0 0 0 0 0 408 1132 1738 1813 1858 1767 1569 1488 1352 1354 1341 1142 751 524 331 425 618 497 442 385 271 413 112 381 299 66
19 0 0 0 0 0 96 2 2 0 0 0 0 0 0 0 7 3 0 0 0 0 0 104 1343 1612 1805 1834 1782 1672 1377 1224 1355 1380 1069 870 666 339 482 539 578 459 351 206 120 114 155 102 13
1 18 6 0 0 78 9 36 0 23 16 0 5 1 8 1 0 9 15 2 0 0 0 0 970 1714 1721 1651 1717 1770 1388 1146 1161 1189 1084 846 772 644 405 466 539 532 411 75 48 51 278 163 51
11 23 58 63 86 17 1 13 0 22 67 64 15 112 32 19 20 9 11 4 0 0 0 0 0 562 1357 1550 1412 1337 1298 1259 1206 1075 911 823 835 845 636 416 487 534 362 188 62 19 118 35 0
6 20 0 0 8 0 11 1 38 71 115 24 1 1 0 5 6 20 8 4 0 0 0 0 0 0 179 891 1213 1244 1247 1250 1190 991 955 978 971 940 941 578 535 533 256 97 10 0 5 0 3
13 7 0 0 0 0 12 0 1 100 18 88 74 90 98 96 73 53 21 6 0 0 0 0 0 2 15 1 353 1069 1276 1228 1013 957 922 1094 1149 1051 982 426 347 325 189 4 2 6 0 0 1
26 0 4 25 47 7 0 53 129 157 34 0 124 188 141 121 149 112 34 5 0 0 0 0 0 3 34 29 9 182 1032 1203 1057 960 787 772 898 916 644 310 355 368 142 3 225 35 1 1 1
19 47 23 15 0 3 15 7 12 50 33 35 27 115 114 101 101 58 0 0 0 0 0 0 2 2 27 42 28 19 746 1062 1131 929 795 1027 960 772 479 245 231 269 113 191 52 18 14 0 1
4 30 51 11 23 3 29 0 2 2 13 2 3 49 69 67 13 1 0 0 0 0 0 0 3 4 73 58 47 361 754 805 1023 851 944 1108 818 770 529 353 264 177 149 24 53 45 0 2 0
20 52 31 0 0 0 0 3 0 0 0 0 0 38 25 1 4 0 0 0 0 0 0 0 3 43 150 144 287 344 811 773 800 758 857 1001 881 712 684 514 161 168 202 63 46 4 42 4 21

GFSSGP_con_mucape_117.txt.gz
CAPE
0 0 0 0 0 0 0 0 0 0 0 0 0 0 0 0 62 0 455 678 630 847 1135 1222 1321 1442 1467 1504 1455 1506 1657 1634 1659 1683 1809 1883 2034 2167 2227 2281 2328 2336 2244 1998 2049 2014 1936 1872 1878
0 0 0 0 0 0 0 0 0 0 0 0 0 0 0 38 644 677 778 753 741 925 1148 1250 1331 1427 1496 1501 1535 1623 1745 1705 1717 1742 1870 1993 2098 2196 2311 2332 2297 2352 2402 2054 2084 2038 1846 1844 1810
0 0 0 0 0 0 0 0 0 0 0 0 0 0 0 102 902 770 767 818 805 938 1115 1215 1365 1477 1528 1483 1551 1655 1747 1685 1694 1779 1945 2090 2179 2258 2349 2199 2255 2438 2435 2159 1953 1743 1727 1633 1434
0 0 0 0 0 0 0 0 0 0 0 0 0 0 0 369 835 854 919 959 889 906 965 1166 1306 1438 1563 1590 1638 1691 1597 1490 1543 1736 1975 2188 2267 2323 2166 1774 1995 2452 2467 2420 1945 1745 1594 1269 1195
0 0 0 0 0 0 0 0 0 0 0 0 0 0 0 803 810 889 905 923 853 960 933 1007 1107 1236 1478 1752 1772 1704 1504 1428 1506 1756 1930 2120 2285 2218 1893 1612 1834 2064 2453 2407 2286 1743 1337 1149 1131
0 0 0 0 0 0 0 0 0 0 0 0 0 0 91 803 913 698 641 680 789 875 943 985 1083 1198 1434 1663 1712 1608 1462 1426 1498 1661 1797 2020 2076 1968 1746 1647 1694 1877 2082 2076 1751 1358 1201 1084 1086
0 0 0 0 0 0 0 0 0 0 0 0 0 0 0 987 907 620 387 456 613 762 896 1007 1079 1247 1485 1642 1600 1410 1408 1448 1475 1613 1637 1782 1784 1718 1600 1628 1605 1719 1735 1655 1443 1167 1050 1024 1021
0 0 0 0 0 0 0 0 0 0 0 0 0 0 0 716 1078 733 751 687 573 683 768 896 1031 1245 1421 1548 1552 1264 1224 1508 1479 1566 1578 1588 1566 1580 1501 1532 1446 1493 1554 1511 1325 1091 1004 1013 988
0 0 0 0 0 0 0 0 0 0 0 0 0 0 0 778 1216 1034 855 655 539 634 740 830 945 1103 1243 1364 1588 1466 1429 1540 1504 1532 1586 1542 1381 1384 1409 1477 1372 1220 1348 1301 1157 1022 988 882 764
0 0 0 0 0 0 0 0 0 0 0 0 0 0 190 1223 1338 1302 1094 834 518 559 686 721 835 999 1198 1202 1583 1584 1627 1470 1337 1437 1519 1434 1326 1256 1228 1362 1378 1060 1148 1092 1017 930 914 793 550
0 0 0 0 0 0 0 0 0 0 0 0 0 0 643 1051 1343 1380 1343 1125 686 523 547 674 729 848 1014 1106 1339 1545 1828 1359 1201 1211 1254 1511 1368 1209 1100 1068 1262 1090 821 818 801 775 691 558 473
0 0 0 0 0 0 0 0 0 0 0 0 0 0 115 1079 1350 1383 1454 1419 1257 860 642 695 713 699 799 824 871 977 1363 1350 1009 1094 1145 1407 1426 1222 1107 895 963 1094 826 610 569 478 413 247 194
0 0 0 0 0 0 0 0 0 0 0 0 0 0 0 95 1204 1321 1372 1460 1621 1292 1063 846 693 600 620 665 678 707 774 1050 896 994 1145 1341 1257 1160 1110 928 725 691 676 555 383 312 275 115 72
0 0 0 0 0 0 0 0 0 0 0 0 0 0 0 0 881 1240 1185 1378 1825 1823 1704 1187 750 596 590 614 485 489 550 631 710 800 1020 1210 1043 1042 1012 962 732 516 338 338 232 154 199 191 135
0 0 0 0 0 0 0 0 0 0 0 0 0 0 0 0 13 964 1186 1421 1619 1987 2170 1811 1240 794 724 717 571 393 412 457 505 545 707 910 906 980 918 913 790 578 393 291 203 184 192 244 198
0 0 0 0 0 0 0 0 0 0 0 0 0 0 0 0 0 0 331 1108 1491 1846 2182 2266 1924 1571 1042 874 927 736 555 496 437 434 428 596 755 743 863 843 731 576 491 402 347 273 256 237 235
0 0 0 0 0 0 0 0 0 0 0 0 0 0 0 0 0 0 0 0 944 1504 1971 2257 2284 2131 1833 1393 1167 1107 938 817 745 693 634 560 696 869 793 771 732 674 733 716 444 367 346 287 229
0 0 0 0 0 0 0 0 0 0 0 0 0 0 3 0 0 0 0 0 0 56 1401 1968 2228 2283 2180 2000 1705 1499 1359 1179 1102 952 1098 1063 1017 1083 1040 891 780 715 648 644 534 439 401 335 241
0 0 0 0 0 0 0 0 0 0 0 0 0 0 2 7 0 0 0 0 0 0 2 1365 1822 2101 2174 2132 2006 1825 1701 1585 1369 1491 1559 1436 1317 1319 1045 824 829 706 580 806 687 393 555 285 223
0 0 0 0 0 0 0 0 0 0 0 0 0 0 0 5 5 0 0 0 0 0 0 0 1189 1704 2028 2016 2047 1831 1789 1675 1555 1767 1756 1681 1532 1326 842 780 818 766 639 668 592 349 220 294 252
0 0 0 0 0 0 0 0 0 0 0 0 0 0 0 0 1 0 0 0 0 0 0 0 502 1125 1681 1968 1851 1830 1714 1630 1363 1443 1650 1627 1321 1066 751 656 702 704 576 811 248 243 194 119 130
0 0 0 7 11 0 6 0 0 0 0 0 0 0 0 0 0 0 0 0 0 0 0 52 660 1061 1557 1881 1838 1718 1709 1617 1333 1277 1326 1317 1174 749 669 554 559 616 532 381 152 218 157 92 21
0 0 0 4 14 12 0 5 0 0 5 21 0 0 0 0 0 0 0 0 0 0 0 178 794 1276 1709 1922 1847 1720 1595 1528 1200 1229 1209 1378 1224 987 702 535 426 608 536 440 374 286 198 189 18
0 30 54 19 25 0 0 0 3 83 161 70 54 11 0 0 0 0 0 0 0 0 0 0 316 1174 1350 2049 2292 1724 1640 1533 1210 1143 1043 1157 1258 1041 844 622 319 503 527 457 368 240 15 182 80
0 11 0 3 0 0 16 5 0 10 74 88 164 104 36 22 26 1 0 0 0 0 0 0 0 0 297 1507 1753 1999 1576 1487 1279 866 469 562 1025 1045 838 649 542 426 465 501 442 297 112 44 91
0 0 11 0 0 9 18 22 37 10 3 47 126 90 122 125 76 43 26 21 14 12 0 0 0 0 0 15 667 1231 1874 1882 1418 562 344 920 867 791 780 667 680 628 565 362 421 196 103 118 150
1 0 0 0 9 8 8 69 5 7 11 0 8 46 9 25 120 102 79 40 4 0 0 0 0 0 0 0 9 19 569 1161 1352 1266 1060 1024 885 675 712 701 801 804 685 351 733 383 262 40 21
31 13 11 1 0 0 4 0 7 22 17 1 0 8 7 4 56 114 64 11 0 0 0 0 0 2 2 11 34 30 28 25 730 1174 1060 966 916 792 656 658 889 925 593 255 506 255 4 7 50
12 1 3 3 34 2 0 0 0 0 0 1 23 6 159 174 146 144 112 76 19 0 0 0 0 1 2 10 15 18 13 28 450 790 969 846 785 679 567 778 941 779 335 249 336 56 4 16 10
56 1 5 0 0 52 0 0 0 2 0 0 0 0 3 78 102 127 118 74 0 0 0 0 0 2 15 25 40 49 127 433 662 668 707 642 630 593 466 582 546 422 266 315 240 14 8 5 7

GFSSGP_con_mucape_120.txt.gz
CAPE
0 0 0 0 0 0 0 0 0 0 0 0 0 0 0 0 33 2 392 508 592 883 1032 1145 1390 1430 1396 1358 1356 1371 1547 1703 1737 1718 1755 1879 1995 2061 2133 2195 2173 2187 2202 1938 1998 1897 1813 1760 1898
0 0 0 0 0 0 0 0 0 0 0 0 0 0 0 0 139 525 571 552 678 1030 1052 1131 1345 1413 1473 1406 1458 1467 1622 1679 1730 1752 1833 1977 2084 2139 2193 2149 2072 2189 2252 2018 2042 1972 1845 1841 1752
0 0 0 0 0 0 0 0 0 0 0 0 0 0 0 0 606 633 606 626 802 1023 1069 1144 1330 1376 1471 1448 1508 1531 1504 1513 1598 1727 1943 2077 2163 2237 2250 2051 2001 2224 2307 2083 1671 1796 1779 1606 1455
0 0 0 0 0 0 0 0 0 0 0 0 0 0 0 2 733 703 733 751 863 1029 1123 1223 1285 1346 1444 1530 1571 1617 1431 1344 1424 1644 1941 2113 2213 2284 2153 1965 2038 2269 2355 1759 1663 1612 1537 1235 1262
0 0 0 0 0 0 0 0 0 0 0 0 0 0 0 222 831 880 870 848 884 1041 1138 1230 1287 1350 1430 1639 1681 1558 1342 1253 1374 1615 1814 1993 2162 2166 1869 1869 2073 2203 2265 2164 1962 1610 1233 1077 1141
0 0 0 0 0 0 0 0 0 0 0 0 0 0 0 333 894 1001 957 843 881 1000 1124 1272 1357 1410 1460 1580 1603 1440 1261 1213 1339 1494 1688 1923 1956 1807 1570 1537 1766 1943 2030 1976 1621 1228 1115 1012 1017
0 0 0 0 0 0 0 0 0 0 0 0 0 0 0 115 922 1010 1015 853 907 945 1024 1213 1346 1416 1487 1564 1562 1416 1277 1245 1301 1407 1546 1699 1670 1503 1439 1459 1583 1759 1837 1661 1277 1024 953 970 955
0 0 0 0 0 0 0 0 0 0 0 0 0 0 0 0 933 973 990 811 886 977 969 1035 1157 1218 1365 1488 1530 1461 1312 1282 1315 1338 1427 1479 1514 1412 1378 1340 1403 1524 1536 1429 1158 886 858 915 890
0 0 0 0 0 0 0 0 0 0 0 0 0 0 0 7 832 935 644 661 814 964 1007 1029 1044 1112 1181 1362 1441 1454 1384 1342 1362 1360 1368 1412 1347 1379 1332 1332 1263 1330 1338 1258 1023 858 819 862 860
0 0 0 0 0 0 0 0 0 0 0 0 0 0 0 1000 971 909 528 507 617 759 875 959 960 1051 1266 1287 1432 1203 1188 1420 1365 1377 1367 1291 1258 1341 1301 1328 1225 1152 1148 1121 936 821 807 746 646
0 0 0 0 0 0 0 0 0 0 0 0 0 0 57 1061 1206 1116 521 302 353 543 660 829 872 1045 1257 1060 1519 1105 1527 1334 1412 1344 1389 1294 1190 1212 1227 1282 1318 989 1031 927 837 745 739 595 318
0 0 0 0 0 0 0 0 0 0 0 0 0 0 0 166 794 1318 961 502 335 451 555 706 874 888 1026 932 1203 1658 1637 1882 1361 1363 1372 1365 1177 1161 1108 1162 1297 1088 905 740 694 585 600 406 268
0 0 0 0 0 0 0 0 0 0 0 0 0 0 0 0 24 901 1436 1278 904 389 491 655 814 875 929 880 906 1390 1423 1477 1059 1155 1301 1246 1213 1352 1076 999 1069 1138 888 605 500 399 346 298 151
0 0 0 0 0 0 0 0 0 0 0 0 0 0 0 0 0 89 1069 1440 1470 1095 464 589 769 721 781 827 669 864 1052 1153 930 767 987 1166 1692 1788 1040 1015 857 933 966 724 485 323 196 143 59
0 0 0 0 0 0 0 0 0 0 0 0 0 0 0 0 0 0 440 1239 1553 1652 1103 729 729 708 684 653 628 508 469 730 1006 845 969 1608 1445 1509 1199 987 905 764 737 724 533 347 172 117 68
0 0 0 0 0 0 0 0 0 0 0 0 0 0 0 0 0 0 0 718 1493 1680 1758 1435 898 740 635 593 534 456 460 429 422 498 656 1082 1240 1105 813 843 915 801 670 488 360 242 120 87 100
0 0 0 0 0 0 0 0 0 0 0 0 0 0 0 0 0 0 0 10 1003 1558 1942 2102 1756 1130 783 834 908 730 638 456 436 469 513 645 759 912 895 837 747 843 729 573 438 338 242 175 152
0 0 0 0 0 0 0 0 0 0 0 0 0 0 0 0 0 0 0 0 4 1229 1711 2095 2215 2030 1586 1178 1058 997 831 726 477 432 429 439 595 702 732 724 743 693 704 588 511 437 439 333 270
0 0 0 0 0 0 0 0 0 0 0 0 0 0 0 0 0 0 0 0 0 0 807 1623 2172 2230 2065 1836 1645 1390 1235 1076 781 652 558 540 478 530 603 691 695 720 671 556 606 637 399 541 183
0 0 0 0 0 0 0 0 0 0 0 0 0 0 0 0 0 0 0 0 0 0 0 0 1050 2150 2161 2098 2008 1871 1678 1492 1256 938 896 771 778 861 793 955 994 929 796 666 600 285 129 215 159
0 0 0 0 0 0 0 0 0 0 0 0 0 0 0 0 0 0 0 0 0 0 0 0 0 1021 2065 2134 2059 1901 1893 1858 1733 1531 1365 1097 1203 1354 1119 1119 1173 772 776 660 530 124 278 31 35
0 0 0 0 0 0 0 0 0 0 0 2 0 0 0 0 0 0 0 9 0 0 0 0 0 138 1306 2009 1993 1870 1716 1545 1696 1874 1668 1336 1703 1625 1495 1383 1263 681 652 700 341 167 94 151 62
0 0 0 0 0 0 0 0 0 0 94 22 40 0 0 0 0 0 0 3 8 2 96 163 196 511 1024 1800 2031 1932 1683 1760 1488 1424 1493 1540 1414 1474 1609 1425 1205 752 597 565 359 157 281 84 90
0 0 0 0 0 0 0 0 0 4 38 110 100 29 8 0 0 0 1 0 0 14 111 287 719 832 988 1553 1724 1736 1790 1809 1693 1576 1413 1239 1110 1330 1454 1288 976 750 544 454 576 423 150 82 83
0 0 0 0 0 0 10 3 0 0 0 29 62 73 63 34 28 33 14 12 9 98 85 192 635 1109 1072 1474 1887 1868 1600 1823 1649 1674 1521 1279 1083 940 970 778 961 788 649 415 244 593 522 295 90
0 0 0 0 0 0 9 0 0 0 16 5 1 47 65 76 62 68 41 24 6 37 56 2 25 49 236 702 1353 1586 1695 1390 1824 1527 1537 1413 1092 601 274 129 527 814 747 527 249 354 369 282 276
0 0 0 0 0 0 4 0 0 9 23 17 3 66 86 74 56 116 82 41 23 4 7 12 26 19 18 28 56 249 816 1262 1386 1535 1281 1293 1009 229 33 85 344 628 741 576 430 269 294 288 240
0 1 0 0 0 0 30 4 1 1 0 0 0 49 53 135 126 160 157 123 100 69 37 21 4 0 0 3 3 22 29 35 295 1079 1325 1256 1281 265 146 177 510 494 674 592 570 494 564 308 272
3 1 0 5 1 0 0 4 0 0 0 0 0 0 0 68 6 150 161 190 161 54 16 2 1 0 0 3 23 30 29 27 3 34 91 743 946 913 671 622 458 472 522 628 629 609 731 437 307
17 0 2 0 0 0 2 0 0 0 0 0 0 0 0 0 0 0 86 71 23 8 4 1 1 0 0 1 10 16 20 35 75 266 651 631 762 603 711 591 493 451 401 366 566 958 392 324 188

GFSSGP_con_mucape_123.txt.gz
CAPE
0 0 0 0 0 0 0 0 0 0 0 0 0 0 0 0 23 0 581 624 748 1285 1344 1476 1313 1393 1399 1353 1340 1419 1741 1918 1959 1893 1814 1859 1968 2081 2095 2056 2067 2138 2168 1805 1765 1841 1705 1635 1813
0 0 0 0 0 0 0 0 0 0 0 0 0 0 0 0 0 106 894 784 930 1318 1435 1570 1310 1356 1445 1360 1413 1546 1806 1896 1861 1877 1917 1980 2088 2156 2125 2026 1958 2099 2252 1962 1894 1854 1788 1778 1608
0 0 0 0 0 0 0 0 0 0 0 0 0 0 0 0 305 966 861 872 1101 1305 1419 1653 1371 1358 1451 1450 1463 1558 1673 1652 1694 1813 2028 2076 2140 2214 2140 1870 1871 2111 2314 2046 1945 1919 1799 1562 1361
0 0 0 0 0 0 0 0 0 0 0 0 0 0 0 0 557 845 935 996 1277 1366 1397 1426 1415 1390 1440 1555 1568 1570 1497 1461 1549 1743 2010 2134 2180 2222 2017 1768 1871 2117 2274 1778 1661 1817 1582 1227 1185
0 0 0 0 0 0 0 0 0 0 0 0 0 0 0 0 954 1165 1144 1190 1428 1503 1522 1658 1465 1460 1492 1691 1709 1508 1359 1375 1562 1799 1935 2071 2173 2141 1894 1731 1801 1944 2038 1769 1692 1673 1224 1090 1079
0 0 0 0 0 0 0 0 0 0 0 0 0 0 0 0 847 1326 1283 1361 1512 1630 1658 1767 1481 1503 1557 1629 1637 1363 1239 1282 1532 1761 1870 2032 2044 1898 1806 1753 1762 1814 1795 1725 1578 1168 1042 998 980
0 0 0 0 0 0 0 0 0 0 0 0 0 0 0 0 579 1246 1155 1290 1443 1523 1736 1833 1908 1684 1550 1605 1580 1319 1186 1233 1406 1633 1779 1903 1856 1693 1664 1743 1789 1807 1725 1490 1159 955 861 901 848
0 0 0 0 0 0 0 0 0 0 0 0 0 0 0 0 33 906 1133 1239 1454 1501 1685 1788 1905 1987 1997 1946 1571 1350 1189 1195 1283 1453 1639 1705 1598 1516 1323 1485 1649 1630 1628 1323 1035 793 814 832 750
0 0 0 0 0 0 0 0 0 0 0 0 0 0 0 652 808 925 1189 1186 1376 1388 1606 1730 1820 1891 1975 1783 1786 1438 1294 1184 1237 1326 1473 1626 1787 1837 1538 1370 1439 1503 1442 1144 880 696 752 784 735
0 0 0 0 0 0 0 0 0 0 0 0 0 0 0 0 1065 981 1167 1427 1309 1372 1413 1548 1786 1757 1747 1472 1505 1835 1803 1665 1634 1664 1762 1879 1924 1950 1669 1385 1255 1332 1271 1048 808 667 673 784 954
0 0 0 0 0 0 0 0 0 0 0 0 0 0 0 0 0 104 947 1017 1057 1094 1339 1374 1560 1656 1465 1376 1336 1632 1624 1483 1504 1632 1902 1929 1789 1872 1869 2065 1642 1768 1161 1520 1006 980 1051 564 515
0 0 0 0 0 0 0 0 0 0 0 0 0 0 0 0 0 0 67 1289 909 627 1038 1286 1384 1418 1383 1462 1271 1279 1232 1750 1740 1757 1579 1314 1453 1795 1916 1956 1944 1803 1614 1603 1330 1145 513 1008 724
0 0 0 0 0 0 0 0 0 0 0 0 0 0 0 0 0 0 0 95 1322 934 719 1022 991 1114 1043 1307 1286 1164 1044 1449 1801 1513 1479 1348 1265 1278 1562 1767 1665 1761 1718 1467 1229 885 1033 937 635
0 0 0 0 0 0 0 0 0 0 0 0 0 0 0 0 0 0 0 0 1219 1394 998 995 1080 1278 1170 1177 1235 998 1098 1161 1824 1495 1328 1839 1432 1154 1122 1317 1500 1259 1487 1297 1122 764 850 907 622
0 0 0 0 0 0 0 0 0 0 0 0 0 0 0 0 0 0 0 0 54 1118 1636 1048 1148 1274 1419 1345 1271 1000 889 877 1380 1058 1328 1588 1609 1228 966 1006 1137 1278 1034 963 673 342 204 680 259
0 0 0 0 0 0 0 0 0 0 0 0 0 0 0 0 0 0 0 0 1 492 1915 1435 1056 1182 1313 1506 1388 962 844 788 872 661 846 1650 1745 1510 1478 1464 891 993 859 921 775 534 358 535 492
0 0 0 0 0 0 0 0 0 0 0 0 0 0 0 0 0 0 0 0 0 225 1659 1964 1402 1290 1421 1473 1416 1275 947 618 780 918 1071 1178 1400 1415 1383 1437 925 821 778 764 710 608 375 202 112
0 0 0 0 0 0 0 0 0 0 0 0 0 0 0 0 0 0 0 0 0 0 1376 2142 1995 1623 1484 1372 1335 1202 1060 1001 1001 800 881 812 1124 1310 1435 876 754 634 762 721 633 488 374 288 252
0 0 0 0 0 0 0 0 0 0 0 0 0 0 0 0 0 0 0 0 0 0 421 1946 2221 1932 1609 1338 1492 1323 1220 1163 1051 915 944 986 1034 1127 969 778 662 560 587 690 648 587 404 405 215
0 0 0 0 0 0 0 0 0 0 0 0 0 0 0 0 0 0 0 0 0 0 5 998 1774 2410 1978 1768 1793 1691 1583 1402 1380 1110 969 1015 1068 1095 1050 772 515 480 518 622 473 413 316 403 161
0 0 0 0 0 0 0 0 0 0 0 0 0 0 0 0 0 0 0 0 0 0 1 57 444 1788 2501 2365 2226 1868 1803 1683 1469 1402 1234 1057 995 1016 993 919 654 420 519 821 561 411 695 297 80
0 0 0 0 0 0 0 0 0 0 5 3 0 0 0 0 0 0 0 0 0 0 0 0 0 0 1125 2720 2430 2241 1901 1810 1794 1767 1666 1471 1118 1197 1126 885 586 511 700 671 630 405 635 458 145
0 0 0 0 0 0 0 0 0 0 0 0 0 0 0 11 50 52 20 6 3 9 35 8 1 0 48 909 2231 2398 2349 2412 2171 1838 1900 1762 1563 1245 1026 744 1055 845 872 785 365 414 644 437 347
0 0 0 0 0 0 0 0 0 0 0 0 0 5 10 22 64 82 82 33 61 38 78 162 96 74 245 889 1230 1796 2030 1997 1991 1890 1550 1420 1331 1441 1330 945 1083 1088 752 806 512 644 666 403 256
0 0 0 0 0 0 0 0 0 0 0 0 0 11 21 31 54 91 102 70 65 89 126 141 157 261 469 753 1004 1315 1596 1964 2061 1771 1728 1581 1473 1364 1314 1257 1005 931 913 824 744 609 698 527 401
0 0 0 0 0 0 0 0 0 0 0 0 0 1 2 24 43 86 99 107 127 204 291 434 511 606 703 805 1143 1541 1438 1363 1476 1664 1500 1355 1247 1290 1106 840 852 855 823 734 698 630 493 290 297
0 0 0 0 0 0 0 0 0 0 0 0 0 0 0 43 65 98 83 177 243 295 363 480 452 399 500 633 705 837 997 1069 1156 1228 1295 1137 961 1105 1003 886 854 617 431 212 280 603 659 449 279
0 0 0 0 0 0 0 0 0 0 0 0 0 0 2 53 19 84 95 117 187 216 259 224 206 131 40 9 6 84 170 298 476 636 669 857 949 914 864 840 664 589 426 125 181 516 532 514 237
0 0 0 5 0 0 0 3 0 0 0 0 0 0 0 0 0 26 20 72 94 134 157 160 133 66 3 0 0 0 3 5 26 56 75 168 323 724 811 1018 656 317 173 106 234 644 292 504 428
0 0 0 0 0 0 1 0 0 0 0 0 0 0 0 0 0 0 1 42 65 152 110 181 69 4 0 0 0 9 22 37 72 76 69 155 238 113 442 631 732 445 180 50 199 324 294 477 473